[[{"header":{"parameterUnit":"m.s-1","parameterCategory":1,"la1":30.6,"la2":28.766,"lo1":-90.7593,"lo2":-88.6598,"dx":0.0162,"dy":0.0183,"nx":116,"ny":114,"refTime":"2023-02-06T06:00:00:Z","depth":0,"parameterNumber":2,"parameterNumberName":"U-component_of_WINDS"},"data":[0.0,0.0,0.0,0.0,0.0,0.0,0.0,0.0,0.0,0.0,0.0,0.0,0.0,0.0,0.0,0.0,0.0,0.0,0.0,0.0,0.0,0.0,0.0,0.0,0.0,0.0,0.0,0.0,0.0,0.0,0.0,0.0,0.0,0.0,0.0,0.0,0.0,0.0,0.0,0.0,0.0,0.0,0.0,0.0,0.0,0.0,0.0,0.0,0.0,0.0,0.0,0.0,0.0,0.0,0.0,0.0,0.0,0.0,0.0,0.0,0.0,0.0,0.0,0.0,0.0,0.0,0.0,0.0,0.0,0.0,0.0,0.0,0.0,0.0,0.0,0.0,0.0,0.0,0.0,0.0,0.0,0.0,0.0,0.0,0.0,0.0,0.0,0.0,0.0,0.0,0.0,0.0,0.0,0.0,0.0,0.0,0.0,0.0,0.0,0.0,0.0,0.0,0.0,0.0,0.0,0.0,0.0,0.0,0.0,0.0,0.0,0.0,0.0,0.0,0.0,0.0,0.0,0.0,0.0,0.0,0.0,0.0,0.0,0.0,0.0,0.0,0.0,0.0,0.0,0.0,0.0,0.0,0.0,0.0,0.0,0.0,0.0,0.0,0.0,0.0,0.0,0.0,0.0,0.0,0.0,0.0,0.0,0.0,0.0,0.0,0.0,0.0,0.0,0.0,0.0,0.0,0.0,0.0,0.0,0.0,0.0,0.0,0.0,0.0,0.0,0.0,0.0,0.0,0.0,0.0,0.0,0.0,0.0,0.0,0.0,0.0,0.0,0.0,0.0,0.0,0.0,0.0,0.0,0.0,0.0,0.0,0.0,0.0,0.0,0.0,0.0,0.0,0.0,0.0,0.0,0.0,0.0,0.0,0.0,0.0,0.0,0.0,0.0,0.0,0.0,0.0,0.0,0.0,0.0,0.0,0.0,0.0,0.0,0.0,0.0,0.0,0.0,0.0,0.0,0.0,0.0,0.0,0.0,0.0,0.0,0.0,0.0,0.0,0.0,0.0,0.0,0.0,0.0,0.0,0.0,0.0,0.0,0.0,0.0,0.0,0.0,0.0,0.0,0.0,0.0,0.0,0.0,0.0,0.0,0.0,0.0,0.0,0.0,0.0,0.0,0.0,0.0,0.0,0.0,0.0,0.0,0.0,0.0,0.0,0.0,0.0,0.0,0.0,0.0,0.0,0.0,0.0,0.0,0.0,0.0,0.0,0.0,0.0,0.0,0.0,0.0,0.0,0.0,0.0,0.0,0.0,0.0,0.0,0.0,0.0,0.0,0.0,0.0,0.0,0.0,0.0,0.0,0.0,0.0,0.0,0.0,0.0,0.0,0.0,0.0,0.0,0.0,0.0,0.0,0.0,0.0,0.0,0.0,0.0,0.0,0.0,0.0,0.0,0.0,0.0,0.0,0.0,0.0,0.0,0.0,0.0,0.0,0.0,0.0,0.0,0.0,0.0,0.0,0.0,0.0,0.0,0.0,0.0,0.0,0.0,0.0,0.0,0.0,0.0,0.0,0.0,0.0,0.0,0.0,0.0,0.0,0.0,0.0,0.0,0.0,0.0,0.0,0.0,0.0,0.0,0.0,0.0,0.0,0.0,0.0,0.0,0.0,0.0,0.0,0.0,0.0,0.0,0.0,0.0,0.0,0.0,0.0,0.0,0.0,0.0,0.0,0.0,0.0,0.0,0.0,0.0,0.0,0.0,0.0,0.0,0.0,0.0,0.0,0.0,0.0,0.0,0.0,0.0,0.0,0.0,0.0,0.0,0.0,0.0,0.0,0.0,0.0,0.0,0.0,0.0,0.0,0.0,0.0,0.0,0.0,0.0,0.0,0.0,0.0,0.0,0.0,0.0,0.0,0.0,0.0,0.0,0.0,0.0,0.0,0.0,0.0,0.0,0.0,0.0,0.0,0.0,0.0,0.0,0.0,0.0,0.0,0.0,0.0,0.0,0.0,0.0,0.0,0.0,0.0,0.0,0.0,0.0,0.0,0.0,0.0,0.0,0.0,0.0,0.0,0.0,0.0,0.0,0.0,0.0,0.0,0.0,0.0,0.0,0.0,0.0,0.0,0.0,0.0,0.0,0.0,0.0,0.0,0.0,0.0,0.0,0.0,0.0,0.0,0.0,0.0,0.0,0.0,0.0,0.0,0.0,0.0,0.0,0.0,0.0,0.0,0.0,0.0,0.0,0.0,0.0,0.0,0.0,0.0,0.0,0.0,0.0,0.0,0.0,0.0,0.0,0.0,0.0,0.0,0.0,0.0,0.0,0.0,0.0,0.0,0.0,0.0,0.0,0.0,0.0,0.0,0.0,0.0,0.0,0.0,0.0,0.0,0.0,0.0,0.0,0.0,0.0,0.0,0.0,0.0,0.0,0.0,0.0,0.0,0.0,0.0,0.0,0.0,0.0,0.0,0.0,0.0,0.0,0.0,0.0,0.0,0.0,0.0,0.0,0.0,0.0,0.0,0.0,0.0,0.0,0.0,0.0,0.0,0.0,0.0,0.0,0.0,0.0,0.0,0.0,0.0,0.0,0.0,0.0,0.0,0.0,0.0,0.0,0.0,0.0,0.0,0.0,0.0,0.0,0.0,0.0,0.0,0.0,0.0,0.0,0.0,0.0,0.0,0.0,0.0,0.0,0.0,0.0,0.0,0.0,0.0,0.0,0.0,0.0,0.0,0.0,0.0,0.0,0.0,0.0,0.0,0.0,0.0,0.0,0.0,0.0,0.0,0.0,0.0,0.0,0.0,0.0,0.0,0.0,0.0,0.0,0.0,0.0,0.0,0.0,0.0,0.0,0.0,0.0,0.0,0.0,0.0,0.0,0.0,0.0,0.0,0.0,0.0,0.0,0.0,0.0,0.0,0.0,0.0,0.0,0.0,0.0,0.0,0.0,0.0,0.0,0.0,0.0,0.0,0.0,0.0,0.0,0.0,0.0,0.0,0.0,0.0,0.0,0.0,0.0,0.0,0.0,0.0,0.0,0.0,0.0,0.0,0.0,0.0,0.0,0.0,0.0,0.0,0.0,0.0,0.0,0.0,0.0,0.0,0.0,0.0,0.0,0.0,0.0,0.0,0.0,0.0,0.0,0.0,0.0,0.0,0.0,0.0,0.0,0.0,0.0,0.0,0.0,0.0,0.0,0.0,0.0,0.0,0.0,0.0,0.0,0.0,0.0,0.0,0.0,0.0,0.0,0.0,0.0,0.0,0.0,0.0,0.0,0.0,0.0,0.0,0.0,0.0,0.0,0.0,0.0,0.0,0.0,0.0,0.0,0.0,0.0,0.0,0.0,0.0,0.0,0.0,0.0,0.0,0.0,0.0,0.0,0.0,0.0,0.0,0.0,0.0,0.0,0.0,0.0,0.0,0.0,0.0,0.0,0.0,0.0,0.0,0.0,0.0,0.0,0.0,0.0,0.0,0.0,0.0,0.0,0.0,0.0,0.0,0.0,0.0,0.0,0.0,0.0,0.0,0.0,0.0,0.0,0.0,0.0,0.0,0.0,0.0,0.0,0.0,0.0,0.0,0.0,0.0,0.0,0.0,0.0,0.0,0.0,0.0,0.0,0.0,0.0,0.0,0.0,0.0,0.0,0.0,0.0,0.0,0.0,0.0,0.0,0.0,0.0,0.0,0.0,0.0,0.0,0.0,0.0,0.0,0.0,0.0,0.0,0.0,0.0,0.0,0.0,0.0,0.0,0.0,0.0,0.0,0.0,0.0,0.0,0.0,0.0,0.0,0.0,0.0,0.0,0.0,0.0,0.0,0.0,0.0,0.0,0.0,0.0,0.0,0.0,0.0,0.0,0.0,0.0,0.0,0.0,0.0,0.0,0.0,0.0,0.0,0.0,0.0,0.0,0.0,0.0,0.0,0.0,0.0,0.0,0.0,0.0,0.0,0.0,0.0,0.0,0.0,0.0,0.0,0.0,0.0,0.0,0.0,0.0,0.0,0.0,0.0,0.0,0.0,0.0,0.0,0.0,0.0,0.0,0.0,0.0,0.0,0.0,0.0,0.0,0.0,0.0,0.0,0.0,0.0,0.0,0.0,0.0,0.0,0.0,0.0,0.0,0.0,0.0,0.0,0.0,0.0,0.0,0.0,0.0,0.0,0.0,0.0,0.0,0.0,0.0,0.0,0.0,0.0,0.0,0.0,0.0,0.0,0.0,0.0,0.0,0.0,0.0,0.0,0.0,0.0,0.0,0.0,0.0,0.0,0.0,0.0,0.0,0.0,0.0,0.0,0.0,0.0,0.0,0.0,0.0,0.0,0.0,0.0,0.0,0.0,0.0,0.0,0.0,0.0,0.0,0.0,0.0,0.0,0.0,0.0,0.0,0.0,0.0,0.0,0.0,0.0,0.0,0.0,0.0,0.0,0.0,0.0,0.0,0.0,0.0,0.0,0.0,0.0,0.0,0.0,0.0,0.0,0.0,0.0,0.0,0.0,0.0,0.0,0.0,0.0,0.0,0.0,0.0,0.0,0.0,0.0,0.0,0.0,0.0,0.0,0.0,0.0,0.0,0.0,0.0,0.0,0.0,0.0,0.0,0.0,0.0,0.0,0.0,0.0,0.0,0.0,0.0,0.0,0.0,0.0,0.0,0.0,0.0,0.0,0.0,0.0,0.0,0.0,0.0,0.0,0.0,0.0,0.0,0.0,0.0,0.0,0.0,0.0,0.0,0.0,0.0,0.0,0.0,0.0,0.0,0.0,0.0,0.0,0.0,0.0,0.0,0.0,0.0,0.0,0.0,0.0,0.0,0.0,0.0,0.0,0.0,0.0,0.0,0.0,0.0,0.0,0.0,0.0,0.0,0.0,0.0,0.0,0.0,0.0,0.0,0.0,0.0,0.0,0.0,0.0,0.0,0.0,0.0,0.0,0.0,0.0,0.0,0.0,0.0,0.0,0.0,0.0,0.0,0.0,0.0,0.0,0.0,0.0,0.0,0.0,0.0,0.0,0.0,0.0,0.0,0.0,0.0,0.0,0.0,0.0,0.0,0.0,0.0,0.0,0.0,0.0,0.0,0.0,0.0,0.0,0.0,0.0,0.0,0.0,0.0,0.0,0.0,0.0,0.0,0.0,0.0,0.0,0.0,0.0,0.0,0.0,0.0,0.0,0.0,0.0,0.0,0.0,0.0,0.0,0.0,0.0,0.0,0.0,0.0,0.0,0.0,0.0,0.0,0.0,0.0,0.0,0.0,0.0,0.0,0.0,0.0,0.0,0.0,0.0,0.0,0.0,0.0,0.0,0.0,0.0,0.0,0.0,0.0,0.0,0.0,0.0,0.0,0.0,0.0,0.0,0.0,0.0,0.0,0.0,0.0,0.0,0.0,0.0,0.0,0.0,0.0,0.0,0.0,0.0,0.0,0.0,0.0,0.0,0.0,0.0,0.0,0.0,0.0,0.0,0.0,0.0,0.0,0.0,0.0,0.0,0.0,0.0,0.0,0.0,0.0,0.0,0.0,0.0,0.0,0.0,0.0,0.0,0.0,0.0,0.0,0.0,0.0,0.0,0.0,0.0,0.0,0.0,0.0,0.0,0.0,0.0,0.0,0.0,0.0,0.0,0.0,0.0,0.0,0.0,0.0,0.0,0.0,0.0,0.0,0.0,0.0,0.0,0.0,0.0,0.0,0.0,0.0,0.0,0.0,0.0,0.0,0.0,0.0,0.0,0.0,0.0,0.0,0.0,0.0,0.0,0.0,0.0,0.0,0.0,0.0,0.0,0.0,0.0,0.0,0.0,0.0,0.0,0.0,0.0,0.0,0.0,0.0,0.0,0.0,0.0,0.0,0.0,0.0,0.0,0.0,0.0,0.0,0.0,0.0,0.0,0.0,0.0,0.0,0.0,0.0,0.0,0.0,0.0,0.0,0.0,0.0,0.0,0.0,0.0,0.0,0.0,0.0,0.0,0.0,0.0,0.0,0.0,0.0,0.0,0.0,0.0,0.0,0.0,0.0,0.0,0.0,0.0,0.0,0.0,0.0,0.0,0.0,0.0,0.0,0.0,0.0,0.0,0.0,0.0,0.0,0.0,0.0,0.0,0.0,0.0,0.0,0.0,0.0,0.0,0.0,0.0,0.0,-3.0069,0.0,0.0,0.0,0.0,0.0,0.0,0.0,0.0,0.0,0.0,0.0,0.0,0.0,0.0,0.0,0.0,0.0,0.0,0.0,0.0,0.0,0.0,0.0,0.0,0.0,0.0,0.0,0.0,0.0,0.0,0.0,0.0,0.0,0.0,0.0,0.0,0.0,0.0,0.0,0.0,0.0,0.0,0.0,0.0,0.0,0.0,0.0,0.0,0.0,0.0,0.0,0.0,0.0,0.0,0.0,0.0,0.0,0.0,0.0,0.0,0.0,0.0,0.0,0.0,0.0,0.0,0.0,0.0,0.0,0.0,0.0,0.0,0.0,0.0,0.0,0.0,0.0,0.0,0.0,0.0,0.0,0.0,0.0,0.0,0.0,0.0,0.0,0.0,0.0,0.0,0.0,0.0,0.0,0.0,0.0,0.0,0.0,0.0,0.0,0.0,0.0,0.0,0.0,0.0,0.0,0.0,0.0,0.0,0.0,0.0,0.0,0.0,0.0,0.0,0.0,0.0,-2.9478,0.0,0.0,0.0,0.0,0.0,0.0,0.0,0.0,0.0,0.0,0.0,0.0,0.0,0.0,0.0,0.0,0.0,0.0,0.0,0.0,0.0,0.0,0.0,0.0,0.0,0.0,0.0,0.0,0.0,0.0,0.0,0.0,0.0,0.0,0.0,0.0,0.0,0.0,0.0,0.0,0.0,0.0,0.0,0.0,0.0,0.0,0.0,0.0,0.0,0.0,0.0,0.0,0.0,0.0,0.0,0.0,0.0,0.0,0.0,0.0,0.0,0.0,0.0,0.0,0.0,0.0,0.0,0.0,0.0,0.0,0.0,0.0,0.0,0.0,0.0,0.0,0.0,0.0,0.0,0.0,0.0,0.0,0.0,0.0,0.0,0.0,0.0,0.0,0.0,0.0,0.0,0.0,0.0,0.0,0.0,0.0,0.0,0.0,0.0,0.0,0.0,0.0,0.0,0.0,0.0,0.0,0.0,0.0,-2.5116,-2.5577,-2.6362,-2.6362,-2.6362,-2.6493,-2.8483,-2.9485,-2.9688,-2.9706,0.0,0.0,0.0,0.0,0.0,0.0,0.0,0.0,0.0,0.0,0.0,0.0,0.0,0.0,0.0,0.0,0.0,0.0,0.0,0.0,0.0,0.0,0.0,0.0,0.0,0.0,0.0,0.0,0.0,0.0,0.0,0.0,0.0,0.0,0.0,0.0,0.0,0.0,-2.758,-2.8371,-2.8625,-2.8482,0.0,0.0,0.0,0.0,0.0,0.0,0.0,0.0,0.0,0.0,0.0,0.0,0.0,0.0,0.0,0.0,0.0,0.0,0.0,0.0,0.0,0.0,0.0,0.0,0.0,0.0,0.0,0.0,0.0,0.0,0.0,0.0,0.0,0.0,0.0,0.0,0.0,0.0,0.0,0.0,0.0,0.0,0.0,0.0,-2.7148,-2.7002,0.0,0.0,0.0,0.0,0.0,0.0,0.0,0.0,0.0,0.0,0.0,0.0,0.0,-2.5665,-2.6347,-2.6462,-2.6747,-2.7192,-2.7267,-2.7377,-2.7499,-2.7499,-2.7499,-2.7531,-2.7822,0.0,-2.6249,-2.8404,0.0,0.0,0.0,0.0,0.0,0.0,0.0,0.0,0.0,0.0,0.0,0.0,0.0,0.0,0.0,0.0,0.0,0.0,0.0,0.0,0.0,0.0,0.0,0.0,0.0,0.0,0.0,0.0,0.0,0.0,0.0,0.0,0.0,0.0,0.0,0.0,-2.7421,-2.77,-2.7646,-2.8342,-2.8662,-2.8709,-2.9699,-3.0284,-3.0553,-3.0699,0.0,0.0,0.0,0.0,0.0,0.0,0.0,0.0,0.0,0.0,0.0,0.0,0.0,0.0,0.0,0.0,0.0,0.0,0.0,0.0,0.0,0.0,0.0,0.0,0.0,0.0,0.0,0.0,0.0,0.0,0.0,0.0,0.0,0.0,0.0,0.0,0.0,0.0,0.0,-2.6452,-2.5888,-2.5182,-2.5729,-2.5684,0.0,0.0,0.0,0.0,0.0,0.0,0.0,0.0,0.0,-2.5669,-2.539,-2.5502,-2.6126,-2.6218,-2.6445,-2.6956,-2.6946,-2.6982,-2.6982,-2.6982,-2.6848,-2.6553,-2.6553,-2.6057,-2.5342,-2.6941,-2.6971,-2.6021,0.0,0.0,0.0,0.0,-2.5039,-2.5194,0.0,0.0,0.0,0.0,0.0,0.0,0.0,0.0,0.0,0.0,0.0,0.0,0.0,0.0,0.0,-2.5008,0.0,0.0,0.0,0.0,0.0,0.0,0.0,0.0,0.0,0.0,0.0,0.0,-2.6367,-2.6837,-2.6773,-2.7896,-2.8414,-2.8463,-2.916,-2.9602,-2.9839,-3.0177,0.0,0.0,0.0,0.0,0.0,0.0,0.0,0.0,0.0,0.0,0.0,0.0,0.0,0.0,0.0,0.0,0.0,0.0,0.0,0.0,0.0,0.0,0.0,0.0,0.0,0.0,0.0,0.0,0.0,0.0,0.0,0.0,0.0,0.0,0.0,0.0,0.0,0.0,0.0,-2.5885,-2.5288,-2.4144,-2.4978,-2.4946,0.0,0.0,0.0,0.0,0.0,0.0,-2.5284,-2.5261,-2.5466,-2.5992,-2.5652,-2.5674,-2.6221,-2.6074,-2.6279,-2.6709,-2.6602,-2.6494,-2.6387,-2.6387,-2.6094,-2.5566,-2.5635,-2.5478,-2.5179,-2.606,-2.6178,-2.5815,-2.5081,-2.4642,-2.4395,-2.4169,-2.4208,-2.4478,0.0,0.0,0.0,0.0,0.0,0.0,0.0,0.0,0.0,0.0,0.0,0.0,0.0,0.0,-2.1302,-2.1793,-2.2069,-2.1925,0.0,0.0,0.0,0.0,0.0,0.0,0.0,0.0,0.0,-2.1089,-2.2225,-2.2808,-2.2833,-2.5565,-2.6838,-2.694,-2.9534,-3.0413,-2.9751,0.0,0.0,0.0,0.0,0.0,0.0,0.0,0.0,0.0,0.0,0.0,0.0,0.0,0.0,0.0,0.0,0.0,0.0,0.0,0.0,0.0,0.0,0.0,0.0,0.0,0.0,0.0,0.0,0.0,0.0,0.0,0.0,0.0,0.0,0.0,0.0,0.0,0.0,0.0,0.0,0.0,0.0,-2.5424,-2.4876,0.0,0.0,0.0,0.0,-2.3156,-2.248,-2.2889,-2.4977,-2.5112,-2.5496,-2.6359,-2.6358,-2.6728,-2.7611,-2.7158,-2.7168,-2.765,-2.7178,-2.6777,-2.6387,-2.6387,-2.5918,-2.5174,-2.5557,-2.5478,-2.52,-2.6259,-2.5915,-2.4681,-2.4787,-2.422,-2.3292,-2.238,-2.2605,-2.3362,0.0,0.0,0.0,0.0,0.0,0.0,0.0,0.0,0.0,0.0,0.0,0.0,0.0,-2.0346,-2.0895,-2.1728,-2.219,-2.2097,-2.1276,0.0,0.0,0.0,0.0,0.0,0.0,0.0,-2.1171,-2.1903,-2.2577,-2.3056,-2.3341,-2.4339,-2.494,-2.5227,-2.6205,-2.7178,0.0,0.0,0.0,0.0,0.0,0.0,0.0,0.0,0.0,0.0,0.0,0.0,0.0,0.0,0.0,0.0,0.0,0.0,0.0,0.0,0.0,0.0,0.0,0.0,0.0,0.0,0.0,0.0,0.0,0.0,0.0,0.0,0.0,0.0,0.0,0.0,0.0,0.0,0.0,0.0,0.0,0.0,0.0,-2.2107,-2.2746,0.0,-2.1638,-2.1261,-2.133,-2.1945,-2.1933,-2.2214,-2.2983,-2.3564,-2.4018,-2.4351,-2.4597,-2.4851,-2.5177,-2.5045,-2.5045,-2.5186,-2.5037,-2.465,-2.4034,-2.4034,-2.3604,-2.2955,-2.3651,-2.4068,-2.4307,-2.5241,-2.5211,-2.4456,-2.4255,-2.3731,-2.3125,-2.2814,-2.289,-2.3158,0.0,0.0,0.0,0.0,0.0,0.0,0.0,0.0,0.0,0.0,0.0,-1.7783,-1.8855,-1.9256,-1.9824,-2.078,-2.1033,-2.0948,-2.0504,0.0,0.0,0.0,0.0,0.0,0.0,-1.8774,-1.9687,-2.046,-2.1425,-2.205,-2.233,-2.3067,-2.3526,-2.3765,-2.4522,0.0,0.0,0.0,0.0,0.0,0.0,0.0,-2.6158,0.0,0.0,0.0,0.0,0.0,0.0,0.0,0.0,0.0,0.0,0.0,0.0,0.0,0.0,0.0,0.0,0.0,0.0,0.0,0.0,0.0,0.0,0.0,0.0,0.0,0.0,0.0,0.0,0.0,0.0,0.0,0.0,0.0,0.0,0.0,-2.1186,-2.0751,-2.151,-2.1636,-2.0617,-2.0395,-2.0579,-2.1204,-2.1486,-2.1889,-2.249,-2.3102,-2.342,-2.342,-2.3651,-2.3822,-2.3822,-2.3822,-2.3822,-2.3822,-2.3698,-2.3326,-2.2687,-2.2625,-2.2163,-2.1503,-2.224,-2.2591,-2.2721,-2.348,-2.3446,-2.3038,-2.3715,-2.3364,-2.2536,-2.296,-2.3091,-2.3091,0.0,0.0,0.0,0.0,0.0,0.0,0.0,0.0,0.0,0.0,-1.7043,-1.7017,-1.8138,-1.7846,-1.7956,-1.8858,-1.8335,-1.8061,-1.8402,-1.6985,0.0,0.0,0.0,0.0,-1.2836,-1.4797,-1.6013,-1.6419,-1.8333,-1.9249,-1.9269,-2.1523,-2.2528,-2.2632,-2.4871,0.0,0.0,0.0,0.0,0.0,0.0,0.0,-2.7173,0.0,0.0,0.0,0.0,0.0,0.0,0.0,0.0,0.0,0.0,0.0,0.0,0.0,0.0,0.0,0.0,0.0,0.0,0.0,0.0,0.0,0.0,0.0,0.0,0.0,0.0,0.0,0.0,0.0,0.0,0.0,0.0,0.0,-1.9493,-2.1029,-2.188,-2.1663,-2.1325,-2.0844,-2.0329,-1.923,-1.9237,-2.0933,-2.1052,-2.1792,-2.3582,-2.3654,-2.3654,-2.3654,-2.3654,-2.3654,-2.3654,-2.3654,-2.3654,-2.3654,-2.3412,-2.2995,-2.2573,-2.2273,-2.1714,-2.0941,-2.1427,-2.1188,-2.0563,-2.0998,-2.0709,-2.0339,-2.3177,-2.3023,-2.1391,-2.2536,-2.3003,-2.3003,0.0,0.0,0.0,0.0,0.0,0.0,0.0,0.0,0.0,0.0,-1.5473,-1.6175,-1.7392,-1.7713,-1.8277,-1.9165,-1.765,-1.6684,-1.6759,0.0,0.0,0.0,0.0,0.0,-1.3297,-1.3968,-1.4567,-1.5098,-1.5639,-1.5996,-1.6101,-1.7973,-1.9047,-1.9447,0.0,0.0,0.0,0.0,0.0,0.0,0.0,0.0,-2.5533,0.0,0.0,0.0,0.0,0.0,0.0,0.0,0.0,0.0,0.0,0.0,0.0,0.0,0.0,0.0,0.0,0.0,0.0,0.0,0.0,0.0,0.0,0.0,0.0,0.0,0.0,0.0,0.0,0.0,0.0,0.0,0.0,-1.733,-1.8835,-1.9495,-1.9849,-2.0019,-2.0301,-2.0413,-2.0212,-1.9735,-1.9641,-2.0117,-1.9975,-2.0057,-2.0594,-2.0594,-2.0594,-2.0594,-2.0594,-2.0594,-2.0594,-2.0594,-2.0594,-2.0594,-2.0281,-1.9968,-1.9654,-1.9341,-1.8971,-1.8565,-1.9387,-1.9675,-1.9633,-2.0443,-1.9974,-1.8972,-2.061,-2.0773,-2.0034,-2.0359,-2.0494,-2.0494,0.0,0.0,0.0,0.0,0.0,0.0,0.0,0.0,0.0,0.0,-1.3459,-1.431,-1.5348,-1.5831,-1.6381,-1.7025,-1.5771,-1.4951,-1.4951,0.0,0.0,0.0,0.0,-1.1756,-1.1768,-1.2584,-1.3194,-1.3586,-1.4331,-1.4736,-1.4862,-1.603,-1.6774,-1.7055,0.0,0.0,0.0,0.0,0.0,0.0,0.0,0.0,-2.4728,-2.4655,-2.4906,-2.5275,-2.5021,-2.5078,-2.5199,-2.4565,0.0,0.0,0.0,0.0,0.0,0.0,0.0,0.0,0.0,0.0,0.0,0.0,0.0,0.0,0.0,0.0,0.0,0.0,0.0,0.0,0.0,0.0,0.0,0.0,-1.4751,-1.5642,-1.6796,-1.819,-1.9312,-1.9853,-2.0107,-2.0281,-2.0408,-2.004,-1.98,-1.98,-1.9533,-1.9424,-1.9424,-1.9424,-1.9424,-1.9424,-1.9424,-1.9424,-1.9424,-1.9424,-1.9424,-1.9366,-1.8945,-1.8651,-1.8477,-1.805,-1.7756,-1.7628,-1.8168,-1.8295,-1.8182,-1.8723,-1.8275,0.0,0.0,0.0,0.0,0.0,-1.9497,-1.9497,0.0,0.0,0.0,0.0,0.0,0.0,0.0,0.0,0.0,0.0,0.0,-1.2157,-1.2919,-1.3295,-1.3596,-1.3859,-1.336,-1.2873,0.0,0.0,0.0,-1.0041,-1.0116,-0.976,-0.8868,-1.0421,-1.1351,-1.17,-1.3204,-1.4104,-1.433,-1.4963,-1.5219,-1.5253,0.0,0.0,0.0,0.0,0.0,0.0,0.0,0.0,-2.4396,-2.3416,-2.3213,-2.3437,-2.3332,-2.3298,-2.3373,-2.3495,0.0,0.0,0.0,0.0,0.0,0.0,0.0,0.0,0.0,0.0,0.0,0.0,0.0,0.0,0.0,0.0,0.0,0.0,0.0,0.0,0.0,0.0,0.0,0.0,-1.3146,-1.3698,-1.4217,-1.6984,-1.9239,-2.0028,-1.9856,-1.9872,-2.0348,-1.9691,-1.9311,-1.9496,-1.9109,-1.8887,-1.8887,0.0,0.0,0.0,0.0,-1.9424,-1.9424,-1.9424,-1.9424,-1.9417,-1.8771,-1.849,-1.847,-1.7856,-1.7582,-1.7582,-1.7582,-1.7248,-1.6707,-1.6707,-1.6359,-1.6035,-1.8628,-1.8754,-1.7638,-1.868,-1.9077,-1.9077,0.0,0.0,0.0,0.0,0.0,0.0,0.0,0.0,0.0,-1.0654,-1.1303,-1.2027,-1.2751,-1.3132,-1.3485,-1.3849,-1.2445,-1.0432,0.0,0.0,-0.6754,-0.5486,-0.565,-0.5677,-0.5614,-0.6067,-0.7029,-0.8487,-0.88,-0.9812,-1.1355,-1.2879,-1.3633,-1.3787,0.0,0.0,0.0,0.0,0.0,0.0,0.0,0.0,-2.3345,-2.4031,-2.4171,-2.391,-2.3505,-2.3464,-2.3407,-2.2448,-2.2139,-2.198,-2.1193,0.0,0.0,0.0,0.0,0.0,0.0,0.0,0.0,0.0,0.0,0.0,0.0,0.0,0.0,0.0,0.0,0.0,0.0,0.0,0.0,-1.1477,-1.2033,-1.2703,-1.3241,-1.5016,-1.6252,-1.6323,-1.6504,-1.7037,-1.8324,-1.6924,-1.6447,-1.7775,-1.6402,-1.5553,-1.5553,-1.6738,-1.7443,-1.7443,-1.8706,-1.9424,-1.9424,-1.9424,-1.9424,-1.9417,0.0,0.0,-1.847,-1.7856,-1.7582,-1.7582,-1.7582,-1.7248,-1.6707,-1.6707,-1.6359,-1.5879,-1.6394,-1.6434,-1.6197,-1.6426,-1.652,-1.652,0.0,0.0,0.0,0.0,0.0,0.0,0.0,0.0,0.0,0.0,-0.9278,-0.9819,-1.0235,-1.0382,-1.0549,-1.0832,-0.9371,0.0,0.0,-0.5521,-0.488,-0.4455,-0.4529,-0.4662,-0.4798,-0.4842,-0.5335,-0.6275,-0.7252,-0.8205,-0.9181,-1.1008,-1.1942,-1.2022,0.0,0.0,0.0,0.0,0.0,0.0,0.0,0.0,-1.9436,-2.0882,-2.1282,-2.1212,-2.2329,-2.2733,-2.2794,-2.2707,-2.2575,-2.2372,-2.1849,-2.1191,-2.0474,0.0,0.0,0.0,0.0,0.0,0.0,0.0,0.0,0.0,0.0,0.0,0.0,0.0,0.0,-1.3954,0.0,0.0,-1.1151,-1.0729,-1.0984,-1.1393,-1.1721,-1.2471,-1.3642,-1.5302,-1.5635,-1.5976,-1.6743,-1.5734,-1.5399,-1.6303,-1.5267,-1.4604,-1.4604,-1.537,-1.5784,-1.5784,-1.6562,-1.6979,-1.6979,-1.6979,-1.6973,-1.6896,-1.6392,-1.6134,-1.6054,-1.5659,-1.5476,-1.5417,-1.5335,-1.5058,-1.4624,-1.4372,-1.4119,-1.3836,-1.3836,-1.4663,-1.5784,-1.5784,-1.5784,-1.5784,0.0,0.0,0.0,0.0,0.0,0.0,0.0,0.0,0.0,0.0,-0.7268,-0.7553,-0.7668,-0.7604,-0.7614,0.0,0.0,0.0,0.0,-0.4536,-0.3771,-0.3777,-0.3796,-0.3824,-0.3935,-0.3928,-0.4146,-0.4458,-0.6015,-0.7019,-0.7348,-0.9315,-1.018,-1.018,0.0,0.0,0.0,0.0,0.0,0.0,0.0,0.0,-1.4871,-1.637,-1.7252,-1.7853,-1.9946,-2.0805,-2.1076,-2.1945,-2.2205,-2.212,-2.208,-2.165,-2.095,-2.005,-2.0008,0.0,0.0,0.0,0.0,0.0,0.0,0.0,0.0,0.0,-1.2674,-1.2572,-1.2785,-1.2648,-1.1524,-1.1446,-1.1256,-1.0471,-1.0348,-1.0405,-1.0521,-1.0534,-1.1538,-1.4325,-1.4666,-1.4784,-1.5017,-1.4495,-1.4237,-1.4683,-1.4055,-1.3688,-1.3651,-1.3944,-1.4128,-1.4128,-1.4426,-1.4604,-1.4604,-1.4559,-1.4501,-1.4376,-1.4049,-1.3826,-1.3693,-1.342,-1.3318,-1.3303,-1.3029,-1.2785,-1.2552,-1.2058,-1.1896,-1.1896,-1.1896,-1.321,-1.5051,-1.5051,-1.5051,-1.5051,0.0,0.0,0.0,0.0,0.0,0.0,0.0,0.0,0.0,0.0,0.0,0.0,0.0,0.0,0.0,0.0,0.0,0.0,-0.4336,-0.2991,-0.1718,-0.0601,-0.055,-0.0554,-0.0555,-0.0564,-0.1323,-0.2955,-0.3173,-0.4071,-0.571,-0.7448,-0.8299,-0.8366,0.0,0.0,0.0,0.0,0.0,0.0,0.0,0.0,-1.1228,-1.2557,-1.4204,-1.5825,-1.5918,-1.6442,-1.7168,-1.7412,-1.8155,-1.9015,-1.9282,-1.926,-1.9082,-1.8448,0.0,-1.7442,-1.6786,-1.5654,-1.4527,-1.3934,-1.3328,-1.3164,0.0,0.0,-1.3447,-1.2432,-1.2535,-1.2205,-1.0503,-1.0415,-1.0619,-1.0528,-1.0582,-1.0677,-1.0694,-1.0694,-1.0726,-1.0902,-1.0984,-1.1528,-1.2651,-1.156,-1.1323,-1.2479,-1.1302,-1.045,-1.0368,-1.1675,-1.2453,-1.2453,-1.383,-1.4604,-1.4604,-1.446,-1.4407,-1.4376,-1.3948,-1.3729,-1.3693,-1.342,-1.3318,-1.3298,-1.2815,-1.2562,-1.2394,-1.2051,-1.1896,-1.1896,-1.1896,-1.2091,-1.2334,-1.2334,-1.2334,-1.2334,0.0,0.0,0.0,0.0,0.0,0.0,0.0,0.0,0.0,0.0,0.0,0.0,0.0,0.0,0.0,0.0,0.0,0.0,-0.2927,-0.1567,-0.0581,0.0,0.0,0.0,0.0,0.0,-0.0379,-0.1134,-0.2204,-0.3088,-0.3875,-0.6717,-0.803,-0.8094,0.0,0.0,0.0,0.0,0.0,0.0,0.0,0.0,-1.0149,-1.0692,-1.1286,-1.2081,-1.3917,-1.4714,0.0,0.0,-1.5495,-1.599,-1.6405,-1.6324,-1.6007,-1.553,-1.5373,0.0,-1.5012,-1.4244,0.0,0.0,-1.2497,-1.2128,-1.2488,-1.1974,-1.1288,-1.0865,-1.1117,-1.1175,-1.0335,-1.0426,-1.0626,0.0,-1.0677,-1.0721,-1.0721,-1.0721,-1.0639,-1.0429,-1.0456,-1.0628,-1.0999,-1.0394,-1.0242,-1.0869,-1.0295,-0.9886,-0.9825,-1.0418,-1.0778,-1.0778,-1.1403,-1.1708,-1.1708,-1.1582,-1.1438,-1.1384,-1.1174,-1.1046,-1.0892,-1.0814,-1.0662,-1.0502,-1.0195,-0.9981,-0.9809,-0.9686,-0.9653,-0.9653,-0.9653,-0.9653,-0.9801,-1.1361,-1.1896,-1.1896,0.0,0.0,0.0,0.0,0.0,0.0,0.0,0.0,0.0,0.0,0.0,0.0,0.0,0.0,0.0,0.0,0.0,0.0,0.0,-0.072,0.0,0.0,0.0,0.0,0.0,0.0,0.0,0.0,-0.1282,-0.221,-0.2729,-0.5786,-0.7476,-0.7936,0.0,0.0,0.0,0.0,0.0,0.0,0.0,0.0,-1.0407,-1.0265,-1.0251,-1.0436,-1.2066,-1.2788,0.0,0.0,-1.3378,-1.3816,-1.4206,-1.4169,-1.3899,-1.3557,-1.3521,-1.3406,-1.2531,0.0,0.0,-1.0788,-1.0197,-0.9883,-1.0171,-0.9633,-0.9255,-0.9811,-1.027,-1.051,-1.0365,-1.0548,-1.0721,-1.0721,-1.0721,-1.0721,-1.0721,-1.0683,-1.0602,-1.0453,-1.0395,-1.027,-0.995,-0.9964,-0.9958,-0.9923,-0.9862,-0.9866,-0.9822,-0.9822,-0.9822,-0.9822,-0.972,-0.9649,-0.9608,-0.9459,-0.9361,-0.921,-0.9169,-0.9039,-0.8881,-0.8841,-0.871,-0.8418,-0.8368,-0.8184,-0.7988,-0.7988,-0.7988,-0.7988,-0.7988,-0.7988,-0.8233,-1.0141,-1.0828,-1.0828,0.0,0.0,0.0,0.0,0.0,0.0,0.0,0.0,0.0,0.0,0.0,0.0,0.0,0.0,0.0,0.0,0.0,0.0,0.0,-0.0685,0.0,0.0,0.0,0.0,0.0,0.0,0.0,0.0,-0.0062,-0.0884,-0.2523,-0.4344,-0.604,-0.7712,0.0,0.0,0.0,0.0,0.0,0.0,0.0,0.0,-1.1867,-1.1412,-1.1945,-1.2521,-0.9985,0.0,0.0,0.0,-1.1545,-1.2843,-1.3003,-1.3357,0.0,-1.3387,-1.291,0.0,0.0,0.0,-0.7557,-0.5079,-0.4614,-0.5232,-0.7113,-0.7689,-0.8342,-0.9972,-1.0507,-1.0666,-1.0514,-1.0616,-1.0721,-1.0721,-1.0721,-1.0721,-1.0721,-1.0592,-1.0446,-1.0304,-1.0154,-0.9936,0.0,-1.0093,-1.0144,-0.9849,-0.9899,-0.9916,-0.9829,-0.9822,-0.9822,-0.9822,-0.9819,-0.9747,-0.9612,-0.9459,-0.9361,-0.9207,-0.9011,-0.8888,-0.8878,-0.8784,-0.8557,-0.833,-0.8323,-0.8184,-0.7988,-0.7988,-0.7988,-0.7988,-0.7988,-0.7988,-0.7988,-0.8088,-0.8137,-0.8137,0.0,0.0,0.0,0.0,0.0,0.0,0.0,0.0,0.0,0.0,0.0,0.0,0.0,0.0,0.0,0.0,0.0,0.0,0.0,-0.0606,0.0,0.0,0.0,0.0,0.0,0.0,0.0,0.0,-0.0964,-0.1844,-0.2545,-0.534,-0.699,-0.7696,0.0,0.0,0.0,0.0,0.0,0.0,0.0,0.0,-1.3197,-1.2871,-1.2747,-1.2616,0.0,0.0,0.0,0.0,0.0,0.0,-0.961,0.0,0.0,-0.8722,0.0,0.0,0.0,0.0,-0.5502,-0.4747,-0.4677,-0.527,-0.7215,-0.7751,-0.8296,-0.9924,-1.0276,-1.0198,-0.9951,-1.0025,-1.0158,-1.0193,-1.0439,-1.0605,-1.0707,-1.0677,-1.0555,-1.031,-1.0236,0.0,0.0,0.0,0.0,-0.9829,-0.9869,-0.9876,-0.9825,-0.8772,-0.8711,-0.9758,-0.863,-0.7983,-0.7917,-0.7789,-0.7664,-0.7541,-0.8455,-0.8831,-0.8781,-0.8628,-0.8455,-0.8316,-0.8163,-0.8089,-0.7988,-0.7988,-0.7988,-0.7988,-0.7988,-0.7988,-0.7988,-0.7988,-0.7988,-0.7988,0.0,0.0,0.0,0.0,0.0,0.0,0.0,0.0,0.0,0.0,0.0,0.0,0.0,0.0,0.0,0.0,0.0,0.0,0.0,0.0,-0.1037,-0.1083,-0.1109,-0.112,-0.1113,-0.1085,-0.1156,-0.1274,-0.2666,-0.3775,-0.4687,-0.7231,-0.8806,-0.9503,-1.0677,0.0,0.0,0.0,0.0,0.0,0.0,0.0,-1.4213,-1.3877,-1.3823,0.0,0.0,0.0,0.0,0.0,0.0,0.0,0.0,0.0,0.0,0.0,0.0,0.0,0.0,-0.3492,-0.3506,-0.3107,-0.31,-0.3794,-0.6333,-0.6913,-0.7512,-0.9793,-1.0114,-0.9832,-0.9652,-0.9683,-0.9778,-0.9815,-1.0093,-1.0324,-1.0534,-1.0517,-1.0187,-0.946,-0.934,-0.8986,0.0,0.0,0.0,-0.97,-0.9313,-0.901,-0.8961,-0.7423,-0.6996,-0.8039,-0.6895,-0.627,-0.6264,-0.6129,-0.6071,-0.5919,-0.6869,-0.7226,-0.7113,-0.6979,-0.6906,-0.6743,-0.6612,-0.6575,-0.6575,-0.6575,-0.6828,-0.7285,-0.7285,-0.7587,-0.7988,-0.7988,-0.7988,-0.7988,0.0,0.0,0.0,0.0,0.0,0.0,0.0,0.0,0.0,0.0,0.0,0.0,0.0,0.0,0.0,0.0,0.0,0.0,0.0,0.0,0.0,-0.3258,-0.3239,-0.3278,-0.3268,-0.3339,-0.3534,-0.3855,-0.5253,-0.6876,-0.8777,-1.0163,-1.1644,-1.3087,-1.3407,0.0,0.0,0.0,0.0,0.0,0.0,0.0,-1.4862,-1.4555,0.0,0.0,0.0,0.0,0.0,0.0,0.0,0.0,0.0,0.0,0.0,0.0,0.0,-0.361,-0.2252,-0.1912,-0.1589,-0.0327,-0.0067,-0.1075,-0.4555,-0.5301,-0.6201,-0.957,-1.0002,-0.9737,0.0,0.0,-0.9581,-0.9595,-0.9617,-0.9824,-1.0129,-0.9923,-0.9229,0.0,0.0,0.0,0.0,0.0,0.0,-0.93,0.0,-0.7413,-0.7304,-0.571,-0.4794,-0.4916,-0.4846,-0.4746,-0.4618,-0.4588,-0.448,-0.4359,-0.447,-0.4394,-0.4196,-0.4196,-0.4115,-0.3977,-0.4024,-0.4022,-0.4021,-0.4017,-0.477,-0.5879,-0.5879,-0.6681,-0.7789,-0.7789,-0.7836,-0.7889,0.0,0.0,0.0,0.0,0.0,0.0,0.0,0.0,0.0,0.0,0.0,0.0,0.0,0.0,0.0,0.0,0.0,0.0,0.0,0.0,0.0,0.0,0.0,0.0,0.0,0.0,0.0,0.0,0.0,-1.2355,-1.3373,-1.5549,-1.6637,0.0,-1.684,0.0,0.0,0.0,0.0,0.0,0.0,0.0,-1.6536,0.0,0.0,0.0,0.0,0.0,0.0,0.0,0.0,0.0,0.0,0.0,-0.4264,0.0,0.0,-0.2191,-0.0864,-0.051,-0.0458,-0.0067,-0.1006,-0.2544,-0.4697,-0.6181,-0.7639,-0.9384,-0.9537,-0.9211,0.0,0.0,0.0,-0.9405,-0.8732,0.0,-0.8577,-0.7398,0.0,-0.584,0.0,-0.5521,-0.4947,-0.4975,0.0,0.0,-0.5803,-0.5552,-0.5529,-0.3996,-0.369,-0.4855,-0.3738,-0.3084,-0.3072,-0.2915,-0.2806,-0.2794,-0.3967,-0.4421,-0.4219,-0.4219,-0.4114,-0.4024,-0.4022,-0.3997,-0.3993,-0.3989,-0.4216,-0.4518,-0.4518,-0.4718,-0.5018,-0.5018,-0.5672,-0.6379,0.0,0.0,0.0,0.0,0.0,0.0,0.0,0.0,0.0,0.0,0.0,0.0,0.0,0.0,0.0,0.0,0.0,0.0,0.0,0.0,0.0,0.0,0.0,0.0,0.0,0.0,0.0,0.0,0.0,0.0,0.0,-1.9299,-2.0215,-1.9958,-1.9264,0.0,0.0,0.0,0.0,0.0,0.0,0.0,0.0,0.0,0.0,0.0,0.0,0.0,0.0,0.0,0.0,-0.4721,-0.3388,-0.3054,-0.2869,-0.153,0.0,-0.0928,-0.0191,0.0,-0.02,-0.1006,-0.1948,-0.3332,-0.5569,-0.6851,-0.7851,-0.916,-0.9117,0.0,0.0,0.0,0.0,0.0,0.0,0.0,-0.6677,-0.5829,-0.4877,0.0,-0.4043,0.0,-0.2819,-0.2822,-0.2809,0.0,-0.3482,-0.3939,-0.3853,-0.2286,-0.1787,-0.2708,-0.1897,-0.1382,-0.1396,-0.1314,-0.124,-0.1231,-0.2125,-0.244,-0.2346,-0.2346,-0.2323,-0.223,0.0,-0.2224,-0.2221,-0.223,-0.2614,-0.3115,-0.3115,-0.3465,-0.4016,-0.4016,-0.4468,-0.5022,0.0,0.0,0.0,0.0,0.0,0.0,0.0,0.0,0.0,0.0,0.0,0.0,0.0,0.0,0.0,0.0,0.0,0.0,0.0,0.0,0.0,0.0,0.0,0.0,0.0,0.0,0.0,0.0,0.0,0.0,0.0,0.0,0.0,0.0,0.0,0.0,0.0,0.0,0.0,0.0,0.0,0.0,0.0,0.0,0.0,0.0,0.0,0.0,0.0,0.0,-0.3798,-0.3363,-0.2112,-0.176,-0.1556,-0.0617,-0.0377,-0.0383,-0.0656,-0.0733,-0.1075,-0.2685,-0.3216,-0.41,-0.6764,-0.7424,-0.7725,-0.8877,0.0,-0.8469,-0.8431,-0.8564,-0.8262,-0.6893,0.0,-0.6189,-0.5076,-0.4529,-0.3771,-0.247,-0.2348,-0.1746,-0.0134,0.0,0.0,0.0,-0.1479,-0.2295,-0.22,-0.0808,0.0,0.0,0.0,0.0,0.0,0.0,0.0,0.0,0.0,0.0,0.0,0.0,0.0,0.0,0.0,0.0,0.0,0.0,-0.0709,-0.1718,-0.1713,-0.2465,-0.3465,-0.3465,-0.3565,-0.3715,0.0,0.0,0.0,0.0,0.0,0.0,0.0,0.0,0.0,0.0,0.0,0.0,0.0,0.0,0.0,0.0,0.0,0.0,0.0,0.0,0.0,0.0,0.0,0.0,0.0,0.0,0.0,0.0,0.0,0.0,0.0,0.0,0.0,0.0,0.0,0.0,0.0,0.0,0.0,0.0,0.0,0.0,0.0,0.0,0.0,0.0,0.0,0.0,0.0,0.0,-0.3223,-0.2091,-0.0784,-0.0373,-0.0574,-0.1877,-0.2215,-0.2554,-0.4058,-0.4484,-0.4559,-0.4827,-0.5912,-0.6967,-0.71,-0.8225,0.0,0.0,0.0,-0.8408,-0.816,-0.834,-0.8588,-0.8677,0.0,0.0,0.0,0.0,-0.0723,0.0,0.0,0.0,0.0,0.0,0.0,0.0,-0.0319,-0.0441,-0.0434,-0.0185,0.0,0.0,0.0,0.0,0.0,0.0,0.0,0.0,0.0,0.0,0.0,0.0,0.0,0.0,0.0,0.0,0.0,0.0,-0.0155,-0.0361,-0.0355,-0.0504,-0.0706,-0.0706,-0.141,-0.2163,0.0,0.0,0.0,0.0,0.0,0.0,0.0,0.0,0.0,0.0,0.0,0.0,0.0,0.0,0.0,0.0,0.0,0.0,0.0,0.0,0.0,0.0,0.0,0.0,0.0,0.0,0.0,0.0,0.0,0.0,0.0,0.0,0.0,0.0,0.0,0.0,0.0,0.0,0.0,0.0,0.0,0.0,0.0,0.0,0.0,0.0,0.0,0.0,0.0,0.0,-0.519,-0.3744,-0.1898,-0.133,-0.1679,-0.34,-0.4584,-0.5504,-0.6516,-0.7393,-0.8112,-0.813,-0.8648,-0.9017,-0.8449,0.0,0.0,0.0,0.0,-0.8208,-0.8015,0.0,0.0,0.0,0.0,0.0,0.0,0.0,0.0,0.0,0.0,0.0,0.0,0.0,0.0,0.0,0.0,0.0,0.0,0.0,0.0,0.0,0.0,0.0,0.0,0.0,0.0,0.0,0.0,0.0,0.0,0.0,0.0,0.0,0.0,0.0,0.0,0.0,0.0,0.0,0.0,0.0,0.0,0.0,-0.0404,-0.0857,0.0,0.0,0.0,0.0,0.0,0.0,0.0,0.0,0.0,0.0,0.0,0.0,0.0,0.0,0.0,0.0,0.0,0.0,0.0,0.0,0.0,0.0,0.0,0.0,0.0,0.0,0.0,0.0,0.0,0.0,0.0,0.0,0.0,0.0,0.0,0.0,0.0,0.0,0.0,0.0,0.0,0.0,0.0,0.0,0.0,0.0,0.0,0.0,0.0,0.0,-0.8291,-0.69,-0.5128,-0.4225,-0.4195,-0.5977,-0.757,-0.8922,-0.9487,-1.0637,-1.1765,-1.1741,-1.1351,-1.0773,-1.0116,-0.9521,0.0,0.0,-0.7988,-0.7988,-0.7988,0.0,0.0,0.0,0.0,0.0,0.0,0.0,0.0,0.0,0.0,0.0,0.0,0.0,0.0,0.0,0.0,0.0,0.0,0.0,0.0,0.0,0.0,0.0,0.0,0.0,0.0,0.0,0.0,0.0,0.0,0.0,0.0,0.0,0.0,0.0,0.0,0.0,0.0,0.0,0.0,0.0,0.0,0.0,0.0,0.0,0.0,0.0,0.0,0.0,0.0,0.0,0.0,0.0,0.0,0.0,0.0,0.0,0.0,0.0,0.0,0.0,0.0,0.0,0.0,0.0,0.0,0.0,0.0,0.0,0.0,0.0,0.0,0.0,0.0,0.0,0.0,0.0,0.0,0.0,0.0,0.0,0.0,0.0,0.0,0.0,0.0,0.0,0.0,0.0,0.0,0.0,0.0,0.0,0.0,0.0,0.0,-1.1096,-1.1269,-0.9881,-0.8582,-1.0371,0.0,0.0,-1.4367,-1.51,-1.544,-1.5385,-1.4002,-1.2531,-1.189,0.0,0.0,-0.8116,-0.7988,-0.7988,-0.7988,-0.8012,0.0,0.0,0.0,0.0,0.0,0.0,0.0,0.0,0.0,0.0,0.0,0.0,0.0,0.0,0.0,0.0,0.0,0.0,0.0,0.0,0.0,0.0,0.0,0.0,0.0,0.0,0.0,0.0,0.0,0.0,0.0,0.0,0.0,0.0,0.0,0.0,0.0,0.0,0.0,0.0,0.0,0.0,0.0,0.0,0.0,0.0,0.0,0.0,0.0,0.0,0.0,0.0,0.0,0.0,0.0,0.0,0.0,0.0,0.0,0.0,0.0,0.0,0.0,0.0,0.0,0.0,0.0,0.0,0.0,0.0,0.0,0.0,0.0,0.0,0.0,0.0,0.0,0.0,0.0,0.0,0.0,0.0,0.0,0.0,0.0,0.0,0.0,0.0,0.0,0.0,0.0,0.0,0.0,0.0,0.0,0.0,-1.5339,-1.505,0.0,0.0,-1.4088,-1.5584,-1.673,-1.8059,-1.8768,-1.7731,-1.6382,-1.4755,-1.2525,0.0,0.0,-0.8223,-0.7988,-0.7988,-0.7988,-0.7988,-0.7319,0.0,0.0,0.0,0.0,0.0,0.0,0.0,0.0,0.0,0.0,0.0,0.0,0.0,0.0,0.0,0.0,0.0,0.0,0.0,0.0,0.0,0.0,0.0,0.0,0.0,0.0,0.0,0.0,0.0,0.0,0.0,0.0,0.0,0.0,0.0,0.0,0.0,0.0,0.0,0.0,0.0,0.0,0.0,0.0,0.0,0.0,0.0,0.0,0.0,0.0,0.0,0.0,0.0,0.0,0.0,0.0,0.0,0.0,0.0,0.0,0.0,0.0,0.0,0.0,0.0,0.0,0.0,0.0,0.0,0.0,0.0,0.0,0.0,0.0,0.0,0.0,0.0,0.0,0.0,0.0,0.0,0.0,0.0,0.0,0.0,0.0,0.0,0.0,0.0,0.0,0.0,0.0,0.0,0.0,0.0,0.0,0.0,0.0,0.0,-1.6335,-1.7689,-1.8203,-1.9551,-2.0529,-1.9305,-1.7931,-1.613,0.0,0.0,-0.9931,-0.8346,-0.7988,-0.7988,-0.7988,-0.7686,-0.6678,0.0,0.0,-0.2593,0.0,0.0,0.0,0.0,0.0,0.0,0.0,0.0,0.0,0.0,0.0,0.0,0.0,0.0,0.0,0.0,0.0,0.0,0.0,0.0,0.0,0.0,0.0,0.0,0.0,0.0,0.0,0.0,0.0,0.0,0.0,0.0,0.0,0.0,0.0,0.0,0.0,0.0,0.0,0.0,0.0,0.0,0.0,0.0,0.0,0.0,0.0,0.0,0.0,0.0,0.0,0.0,0.0,0.0,0.0,0.0,0.0,0.0,0.0,0.0,0.0,0.0,0.0,0.0,0.0,0.0,0.0,0.0,0.0,0.0,0.0,0.0,0.0,0.0,0.0,0.0,0.0,0.0,0.0,0.0,0.0,0.0,0.0,0.0,0.0,0.0,0.0,0.0,0.0,0.0,0.0,0.0,0.0,0.0,0.0,0.0,-1.865,-1.8868,-1.8881,-1.9521,-2.018,-2.018,-1.8304,-1.6103,0.0,0.0,-0.9931,-0.8346,-0.7988,-0.7988,-0.7988,-0.6933,-0.5575,0.0,0.0,0.0,0.0,0.0,0.0,0.0,0.0,0.0,0.0,0.0,0.0,0.0,0.0,0.0,0.0,0.0,0.0,0.0,0.0,0.0,0.0,0.0,0.0,0.0,0.0,0.0,0.0,0.0,0.0,0.0,0.0,0.0,0.0,0.0,0.0,0.0,0.0,0.0,0.0,0.0,0.0,0.0,0.0,0.0,0.0,0.0,0.0,0.0,0.0,0.0,0.0,0.0,0.0,0.0,0.0,0.0,0.0,0.0,0.0,0.0,0.0,0.0,0.0,0.0,0.0,0.0,0.0,0.0,0.0,0.0,0.0,0.0,0.0,0.0,0.0,0.0,0.0,0.0,0.0,0.0,0.0,0.0,0.0,0.0,0.0,0.0,0.0,0.0,0.0,0.0,0.0,0.0,0.0,0.0,0.0,0.0,0.0,0.0,0.0,0.0,-1.8428,-1.8677,-1.9045,-1.9045,-1.7971,-1.6402,-1.4088,0.0,-1.078,-0.845,-0.7988,-0.7988,-0.7988,-0.6883,-0.5575,0.0,0.0,0.0,0.0,0.0,0.0,0.0,0.0,0.0,0.0,0.0,0.0,0.0,0.0,0.0,0.0,0.0,0.0,0.0,0.0,0.0,0.0,0.0,0.0,0.0,0.0,0.0,0.0,0.0,0.0,0.0,0.0,0.0,0.0,0.0,0.0,0.0,0.0,0.0,0.0,0.0,0.0,0.0,0.0,0.0,0.0,0.0,0.0,0.0,0.0,0.0,0.0,0.0,0.0,0.0,0.0,0.0,0.0,0.0,0.0,0.0,0.0,0.0,0.0,0.0,0.0,0.0,0.0,0.0,0.0,0.0,0.0,0.0,0.0,0.0,0.0,0.0,0.0,0.0,0.0,0.0,0.0,0.0,0.0,0.0,-2.585,0.0,0.0,0.0,0.0,0.0,0.0,0.0,0.0,0.0,0.0,0.0,0.0,0.0,0.0,0.0,0.0,-1.7836,-1.815,-1.815,-1.7562,0.0,0.0,0.0,-1.1165,-0.8528,-0.7988,-0.7839,-0.7335,-0.6126,-0.482,0.0,0.0,0.0,0.0,0.0,0.0,0.0,0.0,0.0,0.0,0.0549,0.0919,0.0924,0.1479,0.1835,0.1747,0.1761,0.1753,0.1715,0.0599,0.0,0.0,0.0,0.0,0.0,0.0,0.0,0.0,0.0,0.0,0.0,0.0,0.0,0.0,0.0,0.0,0.0,0.0,0.0,0.0,0.0,0.0,0.0,0.0,0.0,0.0,0.0,0.0,0.0,0.0,0.0,0.0,0.0,0.0,0.0,0.0,0.0,0.0,0.0,0.0,0.0,0.0,0.0,0.0,0.0,0.0,0.0,0.0,0.0,0.0,0.0,0.0,0.0,0.0,0.0,0.0,0.0,0.0,0.0,0.0,0.0,0.0,0.0,0.0,0.0,0.0,0.0,0.0,0.0,0.0,0.0,0.0,0.0,0.0,0.0,0.0,0.0,0.0,0.0,0.0,0.0,0.0,0.0,0.0,0.0,0.0,0.0,0.0,0.0,0.0,0.0,-0.7939,-0.7484,-0.6232,-0.482,-0.3465,0.0,0.0,0.0,0.0,0.0,0.0,0.0,0.0,0.0,0.0294,0.1727,0.2658,0.2636,0.4045,0.4808,0.4679,0.4676,0.4609,0.4522,0.1771,0.0296,0.0344,0.0344,0.0342,0.0336,0.0336,0.0336,0.028,0.0221,0.0166,0.0,0.0053,0.0,0.0,0.0,0.0,0.0,0.0,0.0,0.0,0.0,0.0,0.0,0.0,0.0,0.0,0.0,0.0,0.0,0.0,0.0,0.0,0.0,0.0,0.0,0.0,0.0,0.0,0.0,0.0,0.0,0.0,0.0,0.0,0.0,0.0,0.0,0.0,0.0,0.0,0.0,0.0,0.0,0.0,0.0,0.0,0.0,0.0,0.0,0.0,0.0,0.0,0.0,0.0,0.0,0.0,0.0,0.0,0.0,-2.3091,-2.3091,0.0,0.0,0.0,0.0,0.0,0.0,0.0,0.0,-1.8141,0.0,0.0,0.0,0.0,0.0,0.0,0.0,0.0,0.0,0.0,0.0,0.0,0.0,0.0,0.0,0.0,0.0,0.0,0.0,0.0,0.0,0.0,0.0,0.0,0.2065,0.3119,0.3682,0.4017,0.4031,0.4388,0.4557,0.454,0.4539,0.4555,0.452,0.3805,0.3441,0.3431,0.3431,0.3423,0.3466,0.3466,0.3387,0.318,0.2159,0.1637,0.1477,0.0423,0.0,0.0,0.0,0.0,0.0,0.0,0.0,0.0,0.0,0.0,0.0,0.0,0.0,0.0,0.0,0.0,0.0,0.0,0.0,0.0,0.0,0.0,0.0,0.0,0.0,0.0,0.0,0.0,0.0,0.0,0.0,0.0,0.0,0.0,0.0,0.0,0.0,0.0,0.0,0.0,0.0,0.0,0.0,0.0,0.0,0.0,0.0,0.0,0.0,0.0,0.0,0.0,0.0,0.0,0.0,0.0,0.0,-2.3091,-2.3091,0.0,-2.1712,-2.1293,-2.1069,0.0,0.0,0.0,0.0,-1.7692,0.0,0.0,0.0,0.0,0.0,0.0,0.0,0.0,0.0,0.0,0.0,0.0,0.0,0.0,0.0,0.0,0.0,0.0,0.0,0.0,0.0,0.0,0.0,0.3105,0.3438,0.0,0.5118,0.558,0.562,0.6327,0.6715,0.6664,0.6661,0.6613,0.6505,0.6503,0.5859,0.4528,0.4526,0.4453,0.4362,0.4362,0.4269,0.409,0.3368,0.2635,0.1939,0.1208,0.0573,0.0,0.0,0.0,0.0,0.0,0.0,0.0,0.0,0.0,0.0,0.0,0.0,0.0,0.0,0.0,0.0,0.0,0.0,0.0,0.0,0.0,0.0,0.0,0.0,0.0,0.0,0.0,0.0,0.0,0.0,0.0,0.0,0.0,0.0,0.0,0.0,0.0,0.0,0.0,0.0,0.0,0.0,0.0,0.0,0.0,0.0,0.0,0.0,0.0,0.0,0.0,0.0,0.0,0.0,0.0,0.0,0.0,0.0,0.0,-2.1436,-2.089,-2.0531,-1.9306,0.0,0.0,0.0,0.0,0.0,0.0,0.0,0.0,0.0,0.0,0.0,0.0,0.0,0.0,0.0,0.0,0.0,0.0,0.0,0.0,0.0,0.0,0.0,0.0,0.0,0.0,0.0,0.4703,0.0,0.5267,0.6486,0.7217,0.7203,0.8475,0.9222,0.9149,0.9118,0.8994,0.8817,0.8814,0.7645,0.5155,0.5127,0.5101,0.4918,0.4905,0.4799,0.4665,0.4454,0.3597,0.2317,0.0,0.0,0.0,0.0,0.0,0.0,0.0,0.0,0.0,0.0,0.0,0.0,0.0,0.0,0.0,0.0,0.0,0.0,0.0,0.0,0.0,0.0,0.0,0.0,0.0,0.0,0.0,0.0,0.0,0.0,0.0,0.0,0.0,0.0,0.0,0.0,0.0,0.0,0.0,0.0,0.0,0.0,0.0,0.0,0.0,0.0,0.0,0.0,0.0,0.0,0.0,0.0,0.0,0.0,0.0,0.0,0.0,0.0,0.0,0.0,0.0,-2.0169,-1.9085,-1.8048,-1.6749,0.0,0.0,0.0,0.0,0.0,-1.4016,-1.3407,0.0,0.0,0.0,0.0,0.0,0.0,0.0,0.0,0.0,0.0,0.0,0.0,0.0,0.0,0.0,0.0,0.0,0.0,0.4989,0.6363,0.0,0.6927,0.8152,0.8434,0.8585,0.8608,0.8718,0.8801,0.8781,0.8655,0.8574,0.8554,0.8554,0.8338,0.7908,0.8089,0.8198,0.8177,0.8055,0.7927,0.779,0.6516,0.5108,0.3649,0.0,0.1232,0.0,0.0,0.0,0.0,0.0,0.0,0.0,0.0,0.0,0.0,0.0,0.0,0.0,0.0,0.0,0.0,0.0,0.0,0.0,0.0,0.0,0.0,0.0,0.0,0.0,0.0,0.0,0.0,0.0,0.0,0.0,0.0,0.0,0.0,0.0,0.0,0.0,0.0,0.0,0.0,0.0,0.0,0.0,0.0,0.0,0.0,0.0,0.0,0.0,0.0,0.0,0.0,0.0,0.0,0.0,0.0,0.0,0.0,0.0,0.0,-1.8141,-1.7505,-1.6197,0.0,0.0,0.0,0.0,0.0,-1.1989,-1.1451,-1.0728,0.0,0.0,0.0,0.0,0.0,0.0,0.0,0.0,0.0,0.0,0.0,0.0,0.0,0.0,0.4323,0.5762,0.5979,0.6527,0.0,0.0,0.8291,0.9117,0.9032,0.8848,0.8821,0.875,0.8672,0.8591,0.852,0.8482,0.8482,0.8482,0.8482,0.8482,0.8621,0.8655,0.8577,0.8506,0.8391,0.819,0.7517,0.6428,0.5022,0.0,0.2332,0.1008,0.0303,0.0,0.0,0.0,0.0,0.0,0.0,0.0,0.0,0.0,0.0,0.0,0.0,0.0,0.0,0.0,0.0,0.0,0.0,0.0,0.0,0.0,0.0,0.0,0.0,0.0,0.0,0.0,0.0,0.0,0.0,0.0,0.0,0.0,0.0,0.0,0.0,0.0,0.0,0.0,0.0,0.0,0.0,0.0,0.0,0.0,0.0,0.0,0.0,0.0,0.0,0.0,0.0,0.0,0.0,0.0,0.0,0.0,0.0,0.0,0.0,0.0,0.0,0.0,0.0,-1.2716,-1.1165,-0.9887,-0.9359,-0.8589,0.0,0.0,0.0,0.0,0.0,0.0,0.0,0.0,0.0,0.0,0.0,0.0,0.0,0.5354,0.5987,0.7333,0.7553,0.801,0.9242,0.915,0.9079,0.9306,0.9059,0.8835,0.872,0.8648,0.8557,0.8438,0.8397,0.8377,0.8377,0.8377,0.8377,0.8377,0.8377,0.8357,0.8371,0.8337,0.8208,0.8092,0.8005,0.7285,0.5929,0.4568,0.3215,0.1913,0.0555,0.0,0.0,0.0,0.0,0.0,0.0,0.0,0.0,0.0,0.0,0.0,0.0,0.0,0.0,0.0,0.0,0.0,0.0,0.0,0.0,0.0,0.0,0.0,0.0,0.0,0.0,0.0,0.0,0.0,0.0,0.0,0.0,0.0,0.0,0.0,0.0,0.0,0.0,0.0,0.0,0.0,0.0,0.0,0.0,0.0,0.0,0.0,0.0,0.0,0.0,0.0,0.0,0.0,0.0,0.0,0.0,0.0,0.0,0.0,0.0,0.0,0.0,0.0,0.0,-1.2134,-0.9842,-0.8488,-0.7442,-0.6364,-0.4715,0.0,0.0,0.0,0.0,0.0,0.0,0.0,0.0,0.0,0.0,0.0,0.6503,0.7017,0.7708,0.9216,0.0,0.9396,0.9395,0.9296,0.9204,0.9224,0.8903,0.8723,0.871,0.8459,0.8347,0.8337,0.815,0.8022,0.8022,0.8022,0.8022,0.8022,0.8022,0.8204,0.8465,0.8333,0.8316,0.8248,0.8106,0.7285,0.5929,0.4568,0.3215,0.1913,0.0555,0.0,0.0,0.0,0.0,0.0,0.0,0.0,0.0,0.0,0.0,0.0,0.0,0.0,0.0,0.0,0.0,0.0,0.0,0.0,0.0,0.0,0.0,0.0,0.0,0.0,0.0,0.0,0.0,0.0,0.0,0.0,0.0,0.0,0.0,0.0,0.0,0.0,0.0,0.0,0.0,0.0,0.0,0.0,0.0,0.0,0.0,0.0,0.0,0.0,0.0,0.0,0.0,0.0,0.0,0.0,0.0,0.0,0.0,-1.6197,0.0,0.0,0.0,0.0,0.0,-1.019,-0.8474,-0.7114,-0.6488,-0.5649,-0.3406,0.0,0.0,0.0,0.0,0.0,0.0,0.0,0.0,0.0,0.0,0.0,0.8093,0.8535,0.8846,0.9535,0.9527,0.9445,0.9388,0.9303,0.921,0.921,0.8971,0.8774,0.8581,0.8465,0.8323,0.8136,0.8022,0.7988,0.7988,0.7988,0.7988,0.7988,0.7988,0.8046,0.8204,0.8153,0.8126,0.8126,0.8015,0.7736,0.7132,0.4968,0.3715,0.3065,0.0907,0.0,0.0,0.0,0.0,0.0,0.0,0.0,0.0,0.0,0.0,0.0,0.0,0.0,0.0,0.0,0.0,0.0,0.0,0.0,0.0,0.0,0.0,0.0,0.0,0.0,0.0,0.0,0.0,0.0,0.0,0.0,0.0,0.0,0.0,0.0,0.0,0.0,0.0,0.0,0.0,0.0,0.0,0.0,0.0,0.0,0.0,0.0,0.0,0.0,-2.0845,0.0,0.0,0.0,0.0,0.0,0.0,0.0,0.0,0.0,0.0,0.0,0.0,0.0,0.0,0.0,-0.7083,-0.5724,-0.5072,0.0,0.0,0.0,0.0,0.0,0.0,0.0,0.0,0.0,0.0,0.0,0.0,0.0,0.0,0.934,0.9418,0.9523,0.9405,0.9293,0.9245,0.9106,0.9067,0.9067,0.8838,0.8642,0.8431,0.837,0.8255,0.8002,0.7988,0.7988,0.7988,0.7988,0.7988,0.7988,0.7988,0.7988,0.7988,0.7988,0.7988,0.7988,0.7988,0.7988,0.7839,0.5168,0.4016,0.3815,0.1109,0.0,0.0,0.0,0.0,0.0,0.0,0.0,0.0,0.0,0.0,0.0,0.0,0.0,0.0,0.0,0.0,0.0,0.0,0.0,0.0,0.0,0.0,0.0,0.0,0.0,0.0,0.0,0.0,0.0,0.0,0.0,0.0,0.0,0.0,0.0,0.0,0.0,0.0,0.0,0.0,0.0,0.0,0.0,0.0,0.0,0.0,0.0,0.0,-2.1293,-1.9852,-1.7692,0.0,0.0,0.0,0.0,0.0,0.0,0.0,-1.3878,0.0,0.0,0.0,0.0,0.0,-0.8113,-0.5727,-0.4368,-0.3015,0.0,0.0,0.0,0.0,0.0,0.0,0.0,0.0,0.0,0.0,0.0,0.0,0.0,0.9159,0.9333,0.9378,0.9381,0.9303,0.9096,0.8898,0.8801,0.871,0.871,0.8445,0.8323,0.8323,0.813,0.7992,0.7988,0.7988,0.7988,0.7988,0.7988,0.7988,0.7988,0.7988,0.7988,0.7988,0.7988,0.7988,0.7988,0.7988,0.7988,0.7836,0.5168,0.4016,0.3765,0.1109,0.0,0.0,0.0,0.0,0.0,0.0,0.0,0.0,0.0,0.0,0.0,0.0,0.0,0.0,0.0,0.0,0.0,0.0,0.0,0.0,0.0,0.0,0.0,0.0,0.0,0.0,0.0,0.0,0.0,0.0,0.0,0.0,0.0,0.0,0.0,0.0,0.0,0.0,0.0,0.0,0.0,0.0,0.0,0.0,0.0,0.0,0.0,0.0,-2.0395,-1.9085,-1.7598,0.0,0.0,0.0,0.0,0.0,0.0,0.0,0.0,0.0,0.0,0.0,0.0,-0.8871,-0.7378,-0.5727,-0.4368,0.0,0.0,0.0,0.0,0.0,0.0,0.0,0.0,0.0,0.0,0.0,0.0,0.0,0.0,0.8988,0.9039,0.9106,0.9265,0.9001,0.8825,0.8781,0.8645,0.855,0.855,0.8472,0.8377,0.833,0.8228,0.8153,0.7995,0.7988,0.7988,0.7988,0.7988,0.7988,0.7988,0.7988,0.7988,0.7988,0.7988,0.7988,0.7988,0.7988,0.7484,0.6481,0.4768,0.3465,0.2464,0.0706,0.0,0.0,0.0,0.0,0.0,0.0,0.0,0.0,0.0,0.0,0.0,0.0,0.0,0.0,0.0,0.0,0.0,0.0,0.0,0.0,0.0,0.0,0.0,0.0,0.0,0.0,0.0,0.0,0.0,0.0,0.0,0.0,0.0,0.0,0.0,0.0,0.0,0.0,0.0,0.0,0.0,0.0,0.0,0.0,0.0,0.0,0.0,-2.0531,-1.9807,-1.8449,-1.6803,0.0,0.0,0.0,0.0,0.0,0.0,0.0,0.0,0.0,0.0,0.0,0.0,-0.758,-0.6279,-0.492,-0.3566,0.0,0.0,0.0,0.0,0.0,0.0,0.0,0.0,0.0,0.0,0.0,0.0,0.0,0.0,0.9005,0.8977,0.8988,0.919,0.8899,0.871,0.871,0.8526,0.8397,0.8397,0.8343,0.8272,0.8184,0.8177,0.8136,0.7995,0.7988,0.7988,0.7988,0.7988,0.7988,0.7988,0.7988,0.7988,0.7988,0.7988,0.7988,0.7988,0.7988,0.7285,0.5879,0.4019,0.2465,0.1159,0.0353,0.0,0.0,0.0,0.0,0.0,0.0,0.0,-0.0101,0.0,0.0,0.0,0.0,0.0,0.0,0.0,0.0,0.0,0.0,0.0,0.0,0.0,0.0,0.0,0.0,0.0,0.0,0.0,0.0,0.0,0.0,0.0,0.0,0.0,0.0,0.0,0.0,0.0,0.0,0.0,0.0,0.0,0.0,0.0,0.0,0.0,0.0,-2.2106,-1.9497,-1.9497,-1.8025,-1.5683,-1.4387,0.0,0.0,0.0,0.0,0.0,0.0,0.0,0.0,-0.8233,0.0,-0.7537,-0.6229,-0.487,-0.3565,0.0,0.0,0.0,0.0,0.0,0.0,0.0,0.0,0.0,0.0,0.0,0.0,0.0,0.8825,0.8821,0.9146,0.9011,0.8964,0.9149,0.8859,0.8669,0.8669,0.8421,0.8248,0.8248,0.8123,0.7988,0.7988,0.7988,0.7988,0.7988,0.7988,0.7988,0.7988,0.7988,0.7988,0.7988,0.7988,0.7988,0.7988,0.7988,0.7988,0.7988,0.7988,0.7185,0.5677,0.2967,0.1109,0.0,0.0,0.0,0.0,0.0,0.0,0.0,0.0,0.0,-0.0202,0.0,0.0,0.0,0.0,0.0,0.0,0.0,0.0,0.0,0.0,0.0,0.0,0.0,0.0,0.0,0.0,0.0,0.0,0.0,0.0,0.0,0.0,0.0,0.0,0.0,0.0,0.0,0.0,0.0,0.0,0.0,0.0,0.0,0.0,0.0,0.0,0.0,-2.4011,-2.1803,-1.9497,-1.9497,-1.8025,-1.5663,-1.4286,-1.3803,0.0,0.0,0.0,0.0,0.0,0.0,0.0,-0.683,-0.6431,-0.6179,-0.4818,-0.3466,0.0,0.0,0.0,0.0,0.0,0.0,0.0,0.0,0.0,0.0,0.0,0.0,0.0,0.8885,0.8858,0.8854,0.8974,0.8859,0.8771,0.8801,0.855,0.8367,0.8367,0.8204,0.8089,0.8089,0.8008,0.7988,0.7988,0.7988,0.7988,0.7988,0.7988,0.7988,0.7988,0.7988,0.7988,0.7988,0.7988,0.7988,0.7988,0.7988,0.7988,0.7988,0.7988,0.6678,0.4268,0.1611,0.0252,0.0,0.0,0.0,0.0,0.0,0.0,0.0,0.0,0.0,-0.0202,0.0,0.0,0.0,0.0,0.0,0.0,0.0,0.0,0.0,0.0,0.0,0.0,0.0,0.0,0.0,0.0,0.0,0.0,0.0,0.0,0.0,0.0,0.0,0.0,0.0,0.0,0.0,0.0,0.0,0.0,0.0,0.0,0.0,0.0,0.0,0.0,0.0,-2.4013,-2.2262,-2.0305,-1.9716,-1.8403,-1.6438,-1.3784,-1.2778,-1.248,0.0,0.0,0.0,0.0,0.0,0.0,0.0,0.0,-0.477,-0.3416,-0.2564,0.0,0.0,0.0,0.0,0.0,0.0,0.0,0.0,0.0,0.0,0.0,0.0,0.8743,0.8815,0.8828,0.8804,0.873,0.8713,0.8682,0.8611,0.8411,0.8323,0.8323,0.8133,0.7988,0.7988,0.7988,0.7988,0.7988,0.7988,0.7988,0.7988,0.7988,0.7988,0.7988,0.7988,0.7988,0.7988,0.7988,0.7988,0.7988,0.7988,0.7988,0.7939,0.6678,0.532,0.3865,0.1159,0.0,0.0,0.0,0.0,0.0,0.0,0.0,0.0,0.0,-0.0404,-0.1159,0.0,0.0,0.0,0.0,0.0,0.0,0.0,0.0,0.0,0.0,0.0,0.0,0.0,0.0,0.0,0.0,0.0,0.0,0.0,0.0,0.0,0.0,0.0,0.0,0.0,0.0,0.0,0.0,0.0,0.0,0.0,0.0,0.0,0.0,0.0,0.0,0.0,-2.4128,-2.277,-2.1203,-2.0215,-1.8915,-1.7226,0.0,0.0,0.0,0.0,0.0,0.0,-0.7651,0.0,0.0,0.0,0.0,-0.3401,-0.2061,0.0,0.0,0.0,0.0,0.0,0.0,0.0,0.0,0.0,0.0,0.0,0.0,0.8482,0.852,0.8648,0.8672,0.8628,0.8503,0.8567,0.8591,0.8462,0.8323,0.8231,0.8231,0.8116,0.7988,0.7988,0.7988,0.7988,0.7988,0.7988,0.7988,0.7988,0.7988,0.7988,0.7988,0.7988,0.7978,0.7951,0.7951,0.7951,0.7951,0.7978,0.7889,0.7587,0.512,0.4016,0.3865,0.1159,0.0,0.0,0.0,0.0,0.0,0.0,0.0,-0.0051,-0.0252,-0.1058,-0.2213,0.0,0.0,0.0,0.0,0.0,0.0,0.0,0.0,0.0,0.0,0.0,0.0,0.0,0.0,0.0,0.0,0.0,0.0,0.0,0.0,0.0,0.0,0.0,0.0,0.0,0.0,0.0,0.0,0.0,0.0,0.0,0.0,0.0,0.0,0.0,0.0,0.0,0.0,0.0,-2.1293,-2.1114,0.0,0.0,0.0,0.0,0.0,0.0,0.0,0.0,0.0,-0.5962,0.0,0.0,0.0,0.0,0.0,0.0,0.0,0.0,0.0,0.0,0.0,0.0,0.0,0.0,0.0,0.0,0.0,0.8482,0.8489,0.8509,0.8513,0.8506,0.8486,0.8394,0.8323,0.8354,0.8167,0.8019,0.8019,0.8002,0.7988,0.7988,0.7988,0.7988,0.7988,0.7988,0.7988,0.7988,0.7988,0.7988,0.7988,0.7988,0.7928,0.7841,0.7841,0.7841,0.7841,0.7928,0.7385,0.6229,0.4668,0.4016,0.3865,0.1159,0.0,0.0,0.0,0.0,0.0,0.0,0.0,-0.0151,-0.131,-0.1862,-0.2364,0.0,0.0,0.0,0.0,0.0,0.0,0.0,0.0,0.0,0.0,0.0,0.0,0.0,0.0,0.0,0.0,0.0,0.0,0.0,0.0,0.0,0.0,0.0,0.0,0.0,0.0,0.0,0.0,0.0,0.0,0.0,-2.1176,-2.2385,0.0,0.0,0.0,0.0,0.0,0.0,0.0,0.0,0.0,0.0,0.0,0.0,0.0,0.0,0.0,0.0,0.0,0.0,0.0,-0.2571,0.0,0.0,0.0,0.0,0.0,0.0,0.0,0.0,0.0,0.0,0.0,0.0,0.0,0.8157,0.8221,0.8303,0.8364,0.8364,0.8364,0.8336,0.8248,0.8255,0.8241,0.8153,0.8032,0.7988,0.7988,0.7988,0.7988,0.7988,0.7988,0.7955,0.7919,0.7913,0.7875,0.7797,0.7794,0.7794,0.7794,0.7794,0.776,0.7692,0.7692,0.7733,0.7811,0.7797,0.714,0.5927,0.4522,0.3532,0.2764,0.0857,0.0,0.0,0.0,0.0,0.0,0.0,-0.0454,-0.1209,-0.1762,-0.2967,-0.4422,0.0,0.0,0.0,0.0,0.0,0.0,0.0,0.0,0.0,0.0,0.0,0.0,0.0,0.0,0.0,0.0,0.0,0.0,0.0,0.0,0.0,0.0,0.0,0.0,0.0,0.0,0.0,0.0,0.0,0.0,-1.8849,-1.8778,-1.9331,0.0,-2.1632,0.0,0.0,0.0,0.0,0.0,0.0,0.0,0.0,0.0,0.0,0.0,0.0,0.0,0.0,0.0,0.0,0.0,0.0,0.0,0.0,0.0,0.0,0.0,0.0,0.0,0.0,0.0,0.0,0.0,0.0,0.0,0.8528,0.0,0.8381,0.8211,0.8211,0.8245,0.8218,0.8015,0.8136,0.817,0.8005,0.7988,0.7988,0.7988,0.7988,0.7988,0.7988,0.7955,0.7884,0.7821,0.7777,0.7709,0.7604,0.76,0.76,0.76,0.76,0.758,0.7543,0.7543,0.7594,0.7699,0.7341,0.6553,0.5398,0.3974,0.2662,0.145,0.0453,0.0,0.0,0.0,0.0,-0.0051,-0.0353,-0.1109,-0.2063,-0.2765,-0.4271,-0.6029,0.0,0.0,0.0,0.0,0.0,0.0,0.0,0.0,0.0,0.0,0.0,0.0,0.0,0.0,0.0,0.0,0.0,0.0,0.0,0.0,0.0,0.0,0.0,0.0,0.0,0.0,0.0,0.0,0.0,0.0,-1.7146,-1.7558,-1.7809,-1.7963,-1.9131,-1.9532,-1.9295,0.0,0.0,0.0,0.0,0.0,0.0,0.0,0.0,0.0,0.0,0.0,0.0,0.0,0.0,0.0,0.0,0.0,0.0,0.0,0.0,0.0,0.0,0.0,0.0,0.0,0.0,0.0,0.0,0.0,0.0,0.9903,0.8878,0.8002,0.8002,0.817,0.8218,0.8015,0.7995,0.7998,0.7992,0.7988,0.7988,0.7988,0.7988,0.7988,0.7988,0.7909,0.7821,0.7811,0.7685,0.7607,0.76,0.76,0.76,0.76,0.76,0.7529,0.7433,0.7429,0.7433,0.7397,0.6394,0.5221,0.3859,0.2668,0.1371,0.0098,0.005,0.0,0.0,0.0,0.0,-0.0151,-0.141,-0.1963,-0.2314,-0.4874,-0.5879,-0.6179,0.0,0.0,0.0,0.0,0.0,0.0,0.0,0.0,0.0,0.0,0.0,0.0,0.0,0.0,0.0,0.0,0.0,0.0,0.0,0.0,0.0,0.0,0.0,0.0,0.0,0.0,0.0,0.0,0.0,-1.8017,-1.698,-1.6448,-1.6234,-1.6327,-1.8348,-1.9173,-1.9085,-1.8887,0.0,0.0,0.0,0.0,0.0,0.0,0.0,0.0,0.0,0.0,0.0,0.0,0.0,0.0,0.0,0.0,0.0,0.0,0.0,0.0,0.0,0.0,0.0,0.0,0.0,0.0,0.989,1.0582,1.0974,1.0145,0.9693,0.9141,0.8155,0.8035,0.8102,0.7998,0.7988,0.7988,0.7988,0.7988,0.7988,0.7988,0.7988,0.7951,0.7902,0.7841,0.7733,0.7543,0.7482,0.7411,0.7264,0.726,0.726,0.726,0.726,0.7278,0.7224,0.7224,0.6863,0.6219,0.5767,0.4537,0.2614,0.2128,0.1188,0.0,0.0,0.0,0.0,0.0,-0.0504,-0.131,-0.1812,-0.3066,-0.4672,-0.5627,-0.6531,-0.7335,0.0,0.0,0.0,0.0,0.0,0.0,0.0,0.0,0.0,0.0,0.0,0.0,0.0,0.0,0.0,0.0,0.0,0.0,0.0,0.0,0.0,0.0,0.0,0.0,0.0,0.0,0.0,0.0,0.0,0.0,0.0,0.0,-1.5251,-1.5335,-1.6855,0.0,0.0,0.0,0.0,-1.6703,0.0,0.0,-1.4026,0.0,0.0,0.0,0.0,0.0,0.0,0.0,0.0,0.0,0.0,0.0,0.0,0.0,0.0,0.0,0.0,0.0,0.0,0.0,0.0,0.0,1.039,0.0,1.1613,1.0814,1.0388,0.9692,0.8254,0.7988,0.8137,0.8577,0.9019,0.9164,0.8726,0.9019,0.897,0.8088,0.8382,0.8466,0.7873,0.777,0.7638,0.7436,0.7322,0.0,0.7102,0.7095,0.7095,0.7095,0.7095,0.7095,0.7095,0.6738,0.6204,0.5519,0.4631,0.3401,0.1911,0.1436,0.0748,-0.0048,-0.0486,-0.0395,-0.005,-0.0503,-0.1209,-0.2113,-0.2967,-0.4422,-0.6079,-0.6481,-0.7235,-0.7988,0.0,0.0,0.0,0.0,0.0,0.0,0.0,0.0,0.0,0.0,0.0,0.0,0.0,0.0,0.0,0.0,0.0,0.0,0.0,0.0,0.0,0.0,0.0,0.0,0.0,0.0,0.0,0.0,0.0,0.0,0.0,0.0,-1.5008,0.0,-1.4656,-1.4676,-1.4937,0.0,-1.4725,-1.4299,0.0,-1.2597,-1.1793,0.0,0.0,0.0,-0.8959,-0.8919,0.0,0.0,0.0,0.0,0.0,0.0,0.0,0.0,0.0,0.0,0.0,0.0,0.0,0.0,0.0,0.0,1.1318,0.0,1.1762,1.19,1.0921,0.9649,0.8283,0.8038,0.8482,0.985,1.1072,1.1409,1.0096,1.1072,1.0925,0.8333,0.9164,0.9429,0.7914,0.7678,0.7529,0.7422,0.7224,0.7095,0.7095,0.7095,0.7095,0.7095,0.7095,0.7095,0.7051,0.5933,0.5356,0.527,0.2903,0.1789,0.1702,0.0549,0.0,-0.0095,-0.1406,-0.1272,-0.0147,-0.1499,-0.2063,-0.2364,-0.4974,-0.6029,-0.6229,-0.7537,-0.7988,-0.7988,0.0,0.0,0.0,0.0,0.0,0.0,0.0,0.0,0.0,0.0,0.0,0.0,0.0,0.0,0.0,0.0,0.0,0.0,0.0,0.0,0.0,0.0,0.0,0.0,0.0,0.0,0.0,0.0,0.0,0.0,0.0,0.0,0.0,0.0,-1.4656,-1.4046,-1.3262,-1.312,0.0,0.0,-1.1213,-1.0789,0.0,0.0,0.0,0.0,0.0,-0.8173,0.0,0.0,-0.4134,-0.3008,0.0,0.0,0.0,0.0,0.0,0.0,0.6682,0.0,0.0,0.0,0.0,0.0,0.0,0.0,1.2603,1.2014,1.1477,1.0741,0.9629,0.946,0.985,1.1165,1.0925,1.0047,0.8726,1.0485,1.0925,0.8333,0.9104,0.9296,0.7814,0.7522,0.737,0.0,0.7122,0.7095,0.7095,0.7095,0.7095,0.7095,0.7095,0.6694,0.5891,0.5542,0.4531,0.2771,0.2114,0.1324,0.0494,0.0136,0.0,-0.0092,-0.1419,-0.1775,-0.154,-0.2877,-0.4019,-0.4974,-0.5727,-0.6581,-0.7487,-0.7889,-0.7988,-0.7988,0.0,0.0,0.0,0.0,0.0,0.0,0.0,0.0,0.0,0.0,0.0,0.0,0.0,0.0,0.0,0.0,0.0,0.0,0.0,0.0,0.0,0.0,0.0,0.0,0.0,0.0,0.0,0.0,0.0,0.0,0.0,0.0,0.0,0.0,0.0,0.0,0.0,0.0,0.0,0.0,-1.0135,0.0,0.0,-0.9016,-0.889,0.0,0.0,0.0,-0.7893,-0.6013,-0.4442,0.0,0.0,0.0,0.0,0.0,0.0,0.0,0.0,0.0,0.0,0.0,0.0,0.0,1.0436,1.1574,1.2206,1.1738,1.1514,1.1065,0.9991,0.9883,1.0197,1.096,1.1404,1.097,0.9118,1.0583,1.0925,0.8333,0.9127,0.9284,0.7845,0.7553,0.7404,0.7248,0.7132,0.7095,0.7095,0.7095,0.7068,0.7011,0.7007,0.667,0.5958,0.5024,0.3865,0.2438,0.1521,0.07,0.0,0.0,-0.0271,-0.0819,-0.2185,-0.3018,-0.3616,-0.4999,-0.5733,-0.6079,-0.6631,-0.7335,-0.7988,-0.7988,-0.7988,-0.7988,0.0,0.0,0.0,0.0,0.0,0.0,0.0,0.0,0.0,0.0,0.0,0.0,0.0,0.0,0.0,0.0,0.0,0.0,0.0,0.0,0.0,0.0,0.0,0.0,0.0,0.0,0.0,0.0,0.0,0.0,0.0,0.0,0.0,0.0,0.0,0.0,0.0,0.0,0.0,-0.9746,-0.9487,-0.8869,0.0,0.0,-0.7729,0.0,-0.6525,-0.6841,-0.7599,-0.6234,-0.4518,0.0,0.0,0.0,0.0,0.0,0.3845,0.0,0.0,0.0,0.0,0.0,0.0,0.0,0.9216,1.035,1.1103,1.1379,1.1334,1.0944,0.9893,0.9749,0.9865,1.0134,1.2162,1.2861,1.0534,1.1458,1.1312,0.8528,0.9395,0.9559,0.7966,0.7668,0.7516,0.7429,0.7227,0.7088,0.7071,0.7071,0.7007,0.6866,0.6774,0.658,0.6322,0.4259,0.3176,0.3017,0.0984,0.0,0.0,0.0,-0.0677,-0.188,-0.3218,-0.4465,-0.5727,-0.7209,-0.715,-0.6313,-0.7531,-0.7988,-0.7988,-0.7988,-0.8088,-0.8233,0.0,0.0,0.0,0.0,0.0,0.0,0.0,0.0,0.0,0.0,0.0,0.0,0.0,0.0,0.0,0.0,0.0,0.0,0.0,0.0,0.0,0.0,0.0,0.0,0.0,0.0,0.0,0.0,0.0,0.0,0.0,0.0,0.0,0.0,0.0,0.0,0.0,0.0,0.0,-0.6059,-0.6948,0.0,-0.4498,-0.5232,-0.4925,-0.4106,-0.3855,-0.3938,-0.3957,0.0,-0.2229,-0.1672,0.0,0.0,0.0,0.0,0.0,0.0,0.0,0.0,0.0,0.0,0.0,0.0,0.9724,1.0489,1.0999,1.2126,1.1552,1.09,1.0939,1.0321,1.0153,1.1191,1.1877,1.2091,1.1604,1.3547,1.3686,1.0047,1.0633,1.0419,0.8052,0.7573,0.745,0.7419,0.7227,0.7048,0.6933,0.6927,0.6859,0.6749,0.5898,0.5001,0.4062,0.2755,0.1606,0.0673,0.0208,0.0,0.0,0.0,-0.0657,-0.1891,-0.3225,-0.4476,-0.5714,-0.7171,-0.7682,-0.7472,-0.7842,-0.7988,-0.7988,-0.7988,-0.8676,-0.9608,0.0,0.0,0.0,0.0,0.0,0.0,0.0,0.0,0.0,0.0,0.0,0.0,0.0,0.0,0.0,0.0,0.0,0.0,0.0,0.0,0.0,0.0,0.0,0.0,0.0,0.0,0.0,0.0,0.0,0.0,0.0,0.0,0.0,0.0,0.0,0.0,0.0,0.0,-0.4904,-0.406,-0.4668,0.0,-0.3396,-0.3834,-0.3643,-0.3109,-0.3109,-0.3109,-0.2967,-0.2017,-0.1661,0.0,0.0,0.0365,0.1107,0.0,0.3474,0.4277,0.0,0.0,0.0,0.6661,0.0,0.0,0.0,0.9405,0.9845,1.1016,1.0359,0.9699,0.9953,0.9714,0.9692,1.0389,1.1185,1.1701,1.1701,1.2379,1.194,0.9312,0.9527,0.9336,0.7914,0.7614,0.7421,0.7268,0.7075,0.696,0.6889,0.6858,0.6746,0.659,0.5554,0.4707,0.4048,0.2483,0.1404,0.0772,0.0244,0.0,0.0,-0.0642,-0.1562,-0.2778,-0.4028,-0.5337,-0.6557,-0.7375,-0.7746,-0.7828,-0.7931,-0.7988,-0.8088,-0.8775,-0.941,-1.0096,0.0,0.0,0.0,0.0,0.0,0.0,0.0,0.0,0.0,0.0,0.0,0.0,0.0,0.0,0.0,0.0,0.0,0.0,0.0,0.0,0.0,0.0,0.0,-1.7778,0.0,0.0,0.0,0.0,0.0,0.0,0.0,0.0,0.0,0.0,0.0,0.0,0.0,0.0,0.0,-0.2773,0.0,-0.2569,-0.269,-0.2755,-0.2697,-0.249,-0.2514,-0.251,-0.241,-0.1707,0.0,-0.0782,0.008,0.1056,0.0,0.0,0.0,0.0,0.0,0.0,0.0,0.0,0.0,0.6932,0.0,0.0,0.0,0.9928,0.9225,0.0,0.0,0.0,0.0,0.9203,0.0,0.0,0.0,1.038,0.0,0.8481,0.8312,0.8168,0.7862,0.7699,0.7461,0.7082,0.695,0.6859,0.6844,0.6722,0.6505,0.6152,0.5106,0.4421,0.4103,0.2231,0.1293,0.1294,0.04,-0.0121,-0.0324,-0.1352,-0.2583,-0.3964,-0.497,-0.6169,-0.7433,-0.7567,-0.7849,-0.8208,-0.8319,-0.8382,-0.8528,-0.985,-1.0534,-1.0921,0.0,0.0,0.0,0.0,0.0,0.0,0.0,0.0,0.0,0.0,0.0,0.0,0.0,0.0,0.0,0.0,0.0,0.0,-2.4272,0.0,0.0,0.0,0.0,0.0,-1.4291,0.0,0.0,0.0,0.0,0.0,0.0,0.0,0.0,0.0,-0.8964,0.0,0.0,0.0,-0.2696,0.0,-0.0745,-0.0354,0.0,-0.1412,-0.1197,-0.034,-0.0369,-0.0366,-0.0332,0.0,0.0512,0.1431,0.0,0.2305,0.0,0.0,0.0,0.0,0.0,0.0,0.0,0.0,0.6538,0.0,0.0,0.0,0.8918,1.0684,0.0,0.0,0.0,0.0,0.0,0.0,0.0,0.0,0.9732,0.9548,0.9554,0.9583,0.9454,0.8958,0.8086,0.7763,0.7421,0.6943,0.6896,0.681,0.6539,0.6549,0.6026,0.4945,0.3882,0.286,0.1958,0.0784,0.0196,0.0196,0.0039,-0.0512,-0.1419,-0.1691,-0.2941,-0.4969,-0.5374,-0.6253,-0.7439,-0.7672,-0.8509,-0.9592,-0.973,-0.9756,-0.9948,-1.1214,-1.2425,-1.3488,0.0,0.0,0.0,0.0,0.0,0.0,0.0,0.0,0.0,0.0,0.0,0.0,0.0,0.0,0.0,0.0,0.0,-2.4262,0.0,0.0,0.0,0.0,0.0,0.0,0.0,0.0,0.0,0.0,-1.3576,0.0,0.0,0.0,0.0,0.0,-0.7992,0.0,-0.5286,0.0,0.0,0.0,0.0,0.0,0.0,-0.0502,-0.0375,0.0,0.0,0.0316,0.0749,0.0,0.1512,0.0,0.0,0.0,0.0,0.0,0.0,0.0,0.0,0.0,0.0,0.0,0.0,0.0,0.7573,0.0,0.7754,0.0,0.0,0.0,0.0,0.0,0.0,0.0,0.7156,0.0,0.0,0.0,0.751,0.0,0.0,0.0,0.7828,0.7512,0.7176,0.6906,0.6848,0.6702,0.6525,0.5829,0.5207,0.4727,0.3088,0.2035,0.1607,0.0549,0.0,0.0,-0.0628,-0.1224,-0.176,-0.3093,-0.4296,-0.5299,-0.6139,-0.7277,-0.8644,-0.8742,-0.9676,-1.1091,-1.1953,-1.1794,-1.1263,-1.2571,-1.344,-1.4022,0.0,0.0,0.0,0.0,0.0,0.0,0.0,0.0,0.0,0.0,0.0,0.0,-2.3091,-2.3844,0.0,0.0,0.0,-2.3833,0.0,0.0,-2.2222,0.0,0.0,0.0,0.0,0.0,0.0,0.0,0.0,0.0,0.0,0.0,0.0,0.0,0.0,-0.547,-0.3886,0.0,0.0,-0.1097,-0.0314,0.0156,0.0346,0.0075,0.0146,0.0349,0.034,0.0919,0.1696,0.1686,0.2418,0.0,0.3383,0.0,0.0,0.0,0.0,0.0,0.6593,0.0,0.0,0.0,0.0,0.0,0.0,0.0,0.0,0.0,0.0,0.0,0.0,0.0,0.0,0.0,0.0,0.4163,0.0,0.4143,0.0,0.0,0.0,0.0,0.0,0.6884,0.6631,0.6377,0.6276,0.6286,0.6424,0.5322,0.4569,0.4256,0.252,0.146,0.1176,0.0395,-0.0158,-0.0432,-0.1215,-0.1981,-0.2714,-0.4346,-0.5544,-0.6355,-0.7241,-0.8554,-0.9987,-1.0036,-1.1019,-1.2528,-1.3536,-1.3542,-1.3108,-1.4076,-1.4411,-1.4561,0.0,-2.3091,0.0,0.0,0.0,0.0,0.0,0.0,0.0,0.0,0.0,0.0,0.0,0.0,0.0,0.0,0.0,-2.2572,-2.2529,0.0,-2.1667,0.0,0.0,-1.8185,0.0,0.0,0.0,-1.4522,-1.3028,-1.1729,0.0,0.0,0.0,0.0,0.0,-0.3762,-0.1687,-0.1646,-0.102,-0.0039,0.0,0.0496,0.1166,0.0,0.0538,0.1253,0.1253,0.0,0.0,0.2672,0.3445,0.0,0.0,0.0,0.0,0.0,0.0,0.0,0.0,0.0,0.0,0.6695,0.0,0.0,0.0,0.0,0.8046,0.0,0.0,0.0,0.0,0.0,0.0,0.0,0.0,0.0,0.0,0.0,0.0,0.0,0.0,0.0,0.0,0.5777,0.5586,0.4992,0.4959,0.5341,0.6242,0.5279,0.4217,0.3202,0.2162,0.1084,0.0079,0.0,-0.0522,-0.1568,-0.1568,-0.2733,-0.4821,-0.501,-0.6376,-0.8624,-0.8899,-0.989,-1.1252,-1.136,-1.2389,-1.383,-1.3878,-1.4609,-1.5683,-1.573,-1.573,-1.573,0.0,0.0,0.0,0.0,0.0,0.0,0.0,-2.1218,0.0,0.0,0.0,0.0,0.0,0.0,-2.3091,0.0,0.0,-2.2769,-2.2529,-2.273,0.0,0.0,0.0,-1.8843,0.0,0.0,0.0,-1.4522,-1.2502,-1.1189,0.0,0.0,0.0,0.0,0.0,-0.319,0.0,0.0,0.0,0.0,0.0,0.123,0.1452,0.0,0.0,0.2238,0.2217,0.2811,0.0,0.3555,0.4319,0.5223,0.5291,0.5617,0.6003,0.6091,0.6247,0.0,0.0,0.0,0.6549,0.6549,0.0,0.0,0.0,0.0,0.0,0.0,0.0,0.0,0.0,0.0,0.0,0.0,0.0,0.0,0.0,0.0,0.0,0.0,0.0,0.0,0.0,0.0,0.4182,0.3862,0.3857,0.4241,0.5207,0.3612,0.2803,0.3079,0.1436,0.0,-0.119,-0.11,-0.1657,-0.2801,-0.3387,-0.454,-0.6263,-0.6973,-0.8271,-0.9952,-1.0047,-1.1023,-1.2575,-1.2608,-1.3636,-1.5146,-1.5146,-1.5439,-1.5784,-1.5784,-1.5784,-1.5784,-2.2448,0.0,0.0,0.0,0.0,0.0,0.0,0.0,0.0,0.0,-2.0054,0.0,-2.05,0.0,-2.163,0.0,-2.1516,-2.137,-2.1068,-2.1829,0.0,-2.1043,-1.9939,0.0,0.0,0.0,0.0,0.0,-1.201,-1.0701,0.0,0.0,0.0,0.0,0.0,0.0,0.0,0.0,0.0236,0.0,0.0,0.2302,0.0,0.0,0.272,0.3227,0.0,0.378,0.4483,0.4483,0.495,0.5552,0.5572,0.5684,0.5793,0.58,0.5969,0.6201,0.6176,0.6323,0.0,0.6436,0.6405,0.0,0.6313,0.0,0.0,0.0,0.0,0.0,0.0,0.0,0.0,0.0,0.0,0.0,0.0,-0.2401,0.0,0.0,0.0,0.0,0.0,0.0,0.1942,0.2096,0.2129,0.272,0.4066,0.2521,0.1907,0.2551,0.0502,-0.1016,-0.1802,-0.2125,-0.2842,-0.3925,-0.4854,-0.6069,-0.7484,-0.847,-0.9766,-1.1209,-1.1209,-1.219,-1.3857,-1.3857,-1.4595,-1.5784,-1.5784,-1.5784,-1.5784,-1.5784,-1.5784,-1.5784,0.0,0.0,0.0,0.0,-2.0107,0.0,0.0,0.0,-1.9348,0.0,-1.9348,-1.9261,-1.9013,-1.9024,-1.8971,-1.8621,-1.8587,0.0,-1.839,-1.9895,0.0,0.0,-1.9153,-1.8605,-1.782,0.0,0.0,0.0,0.0,0.0,0.0,0.0,0.0,0.0,-0.361,0.0,0.0079,0.0079,0.0707,0.1762,0.2774,0.3606,0.4217,0.4256,0.4291,0.4255,0.425,0.4761,0.5395,0.5395,0.5395,0.5419,0.5566,0.5515,0.545,0.5698,0.5691,0.565,0.5895,0.6125,0.6289,0.6289,0.6395,0.0,0.0,0.0,0.7429,0.0,0.0,0.0,0.0,0.0,0.0,0.0,0.0,0.0,0.0,0.0,0.0,0.0,0.0,0.0,0.0,-0.1327,-0.1045,-0.0209,-0.0123,0.0799,0.0,0.2046,0.1548,0.1586,-0.0594,-0.1847,-0.1893,-0.3088,-0.4111,-0.4988,-0.6014,-0.721,-0.852,-0.9543,-1.0894,-1.237,-1.237,-1.338,-1.5008,-1.5008,-1.5304,-1.5784,-1.5784,-1.5784,-1.5784,-1.5784,-1.5784,-1.5784,-2.0124,-1.8993,-1.7956,0.0,-1.7544,-1.747,0.0,0.0,0.0,0.0,-1.6937,-1.7468,-1.7383,-1.8199,-1.8687,-1.8596,-1.8587,0.0,0.0,0.0,0.0,-1.9106,-1.7989,-1.7522,-1.777,-1.5174,0.0,-1.2964,0.0,0.0,-0.9036,0.0,0.0,0.0,0.0,0.0,0.1208,0.1208,0.179,0.2813,0.3865,0.4332,0.0,0.0,0.5414,0.5224,0.5116,0.5222,0.5395,0.5395,0.5395,0.5402,0.544,0.5426,0.5409,0.5487,0.5562,0.5606,0.5681,0.5891,0.6088,0.6088,0.6203,0.6344,0.0,0.0,0.0,0.0,0.0,0.0,0.0,0.0,0.0,0.0,0.0,0.0,0.0,0.0,0.0,0.0,0.0,0.0,0.0,-0.2638,-0.2559,-0.2327,-0.1625,-0.0601,0.0741,0.0,0.0763,0.1581,-0.0607,-0.2211,-0.3119,-0.4173,-0.5246,-0.6267,-0.7356,-0.8553,-0.9796,-1.0988,-1.229,-1.3646,-1.3646,-1.4149,-1.5008,-1.5008,-1.5304,-1.5784,-1.5784,-1.5784,-1.5784,-1.5784,-1.5784,-1.5784,-1.8948,0.0,0.0,-1.5092,0.0,0.0,-1.5511,0.0,0.0,-1.5196,-1.5183,0.0,-1.5754,-1.6386,-1.6759,-1.6656,-1.6641,0.0,-1.6502,0.0,0.0,-1.7746,-1.6981,-1.6695,-1.6859,-1.4821,0.0,-1.2035,0.0,0.0,-0.8348,0.0,0.0,0.0,0.0,-0.1438,0.0,0.1865,0.2836,0.3904,0.496,0.0,0.0,0.5705,0.5745,0.5515,0.5426,0.5395,0.5395,0.5395,0.5395,0.5395,0.5395,0.5395,0.5395,0.5395,0.5457,0.5525,0.5525,0.5705,0.5928,0.5928,0.6095,0.63,0.63,0.63,0.5867,0.0,0.2749,0.0599,0.0,0.0,0.0,0.0,0.0,0.0,0.0,0.0,0.0,0.0,0.0,0.0,0.0,-0.4603,-0.4425,-0.4018,-0.338,-0.2375,0.0,0.0,-0.0515,0.0084,-0.1719,-0.3246,-0.4374,-0.5518,-0.6607,-0.7586,-0.8654,-0.9848,-1.1053,-1.2228,-1.3249,-1.4095,-1.4222,-1.4536,-1.5022,-1.5149,-1.5424,-1.5784,-1.5784,-1.5784,-1.5784,-1.5784,-1.5784,-1.5784,0.0,0.0,0.0,0.0,0.0,0.0,0.0,-1.4215,0.0,-1.4674,0.0,-1.3422,-1.4135,-1.4369,-1.4362,-1.4108,0.0,-1.4195,-1.4449,-1.5376,-1.597,-1.597,-1.5933,-1.5819,-1.5576,-1.44,0.0,0.0,0.0,0.0,0.0,0.0,0.0,0.0,0.0,0.0,0.0,0.2465,0.3939,0.0,0.5944,0.6115,0.58,0.58,0.562,0.5395,0.5395,0.5395,0.5395,0.5395,0.5395,0.5395,0.5395,0.5395,0.5395,0.5395,0.5395,0.5395,0.5395,0.5597,0.5779,0.5796,0.6017,0.6276,0.6293,0.63,0.5709,0.3552,0.2411,0.0454,0.0,0.0,0.0,0.0,0.0,0.0,0.0,0.0,0.0,0.0,0.0,0.0,0.0,0.0,-0.6165,-0.5385,-0.5056,-0.4102,0.0,0.0,-0.1967,-0.2013,-0.3282,-0.4538,-0.5644,-0.696,-0.8045,-0.898,-0.9986,-1.1066,-1.2129,-1.3175,-1.38,-1.4102,-1.4355,-1.4656,-1.5028,-1.5237,-1.5531,-1.5784,-1.5784,-1.5784,-1.5832,-1.5872,-1.5885,-1.5885,0.0,0.0,0.0,0.0,0.0,-1.3293,-1.2668,-1.2073,-1.1685,-1.1632,-1.2321,-1.2818,-1.2685,-1.3583,-1.4142,-1.4088,-1.4088,0.0,0.0,0.0,0.0,-1.539,-1.4349,-1.4106,-1.4928,-1.3093,-1.2025,0.0,-0.998,-0.8975,0.0,0.0,0.0,0.0,0.0,0.0,0.2658,0.3876,0.0,0.6025,0.6219,0.6115,0.58,0.58,0.562,0.5395,0.5395,0.5395,0.5395,0.5395,0.5395,0.5395,0.5395,0.5395,0.5395,0.5395,0.5395,0.5395,0.5395,0.5525,0.5654,0.5772,0.5935,0.6105,0.6272,0.63,0.5709,0.3552,0.2329,0.0347,-0.3827,0.0,0.0,0.0,0.0,0.0,0.0,0.0,0.0,0.0,0.0,0.0,0.0,0.0,0.0,-0.6436,-0.5466,-0.4751,-0.4376,0.0,-0.2944,0.0,-0.422,-0.5579,0.0,0.0,-0.9244,-1.0454,-1.1443,-1.1983,-1.2135,-1.3429,-1.4041,-1.4088,-1.4142,-1.4512,-1.5015,-1.5062,-1.5351,-1.5784,-1.5784,-1.5784,-1.5811,-1.6106,-1.6192,-1.6192,0.0,0.0,0.0,0.0,0.0,0.0,0.0,-0.9574,0.0,-1.0909,-1.0874,-1.1163,-1.2211,-1.2808,-1.316,-1.316,-1.316,-1.2886,-1.2236,-1.2022,-1.2134,-1.2631,-1.1996,0.0,-1.2382,-1.1267,-1.0579,-1.0443,-0.9114,-0.836,0.0,0.0,0.0,0.0,0.0,0.0599,0.0,0.0,0.0,0.63,0.63,0.6115,0.58,0.58,0.562,0.5395,0.5395,0.5395,0.5395,0.5395,0.5395,0.5395,0.5395,0.5395,0.5395,0.5395,0.5395,0.5395,0.5395,0.5508,0.5606,0.5674,0.5864,0.6013,0.6125,0.6242,0.5709,0.3552,0.273,0.0932,-0.3754,-0.7133,0.0,0.0,0.0,0.0,0.0,0.0,0.0,0.0,0.0,0.0,0.0,0.0,0.0,0.0,0.0,-0.5559,-0.4945,0.0,-0.444,0.0,0.0,0.0,-0.9107,0.0,-1.0465,-1.159,-1.2066,-1.2608,-1.3153,-1.3956,-1.4309,-1.4329,-1.4629,-1.493,-1.5197,-1.5351,-1.5578,-1.5784,-1.5784,-1.5784,-1.5818,-1.6166,-1.6321,-1.6342,0.0,-1.1404,0.0,0.0,-0.8924,0.0,-0.7883,-0.7692,-0.8279,-1.0214,-0.954,-0.9579,-1.1381,-1.1809,-1.1921,-1.1906,-1.19,-1.146,-1.0429,-1.0326,-1.0234,-1.0099,-1.0084,-1.0023,-1.0017,-0.9763,-0.9436,0.0,-0.8496,-0.7901,0.0,0.0,0.0,0.0,0.0,0.0,0.0,0.0,0.453,0.63,0.63,0.6132,0.585,0.585,0.5684,0.5484,0.5453,0.5443,0.544,0.5405,0.5395,0.5395,0.5395,0.5395,0.5395,0.5395,0.5395,0.5395,0.5395,0.5484,0.5549,0.5583,0.5766,0.5915,0.5979,0.6125,0.5633,0.3548,0.2577,0.0778,-0.349,-0.5995,0.0,0.0,0.0,0.0,0.0,0.0,0.0,0.0,0.0,0.0,0.0,0.0,0.0,0.0,0.0,-0.7017,-0.6103,-0.6079,-0.657,0.0,0.0,-0.8904,-1.1219,0.0,-1.1789,-1.2971,-1.2917,-1.3379,-1.4282,-1.4509,-1.4616,-1.4643,-1.5104,-1.5337,-1.5418,-1.5712,-1.5784,-1.5784,-1.5784,-1.5784,-1.5872,-1.6233,-1.6366,-1.6413,0.0,0.0,0.0,0.0,0.0,0.0,-0.8025,-0.7692,-0.764,-0.7773,-0.8443,-0.8978,-0.9192,-1.0139,-1.0701,-1.0569,-1.0595,-1.046,-1.0243,-1.0055,-0.9873,-0.9744,-0.965,-0.9515,-0.94,-0.9337,-0.9419,0.0,-0.8666,-0.7764,-0.6883,0.0,0.0,0.0,0.0,0.0,0.0,0.4156,0.5207,0.63,0.63,0.6159,0.5973,0.5973,0.5905,0.5742,0.5613,0.5569,0.5549,0.5443,0.5395,0.5395,0.5395,0.5395,0.5395,0.5395,0.5395,0.5395,0.5395,0.5405,0.545,0.5555,0.561,0.5701,0.5932,0.6003,0.5478,0.3498,0.082,-0.1604,-0.2966,-0.4936,-0.7011,0.0,0.0,0.0,0.0,0.0,0.0,0.0,0.0,0.0,0.0,-0.9948,0.0,0.0,-0.9404,-0.9692,-0.9864,-0.9505,-0.9614,-1.0429,-1.0209,-1.1169,-1.3391,-1.29,-1.3442,-1.5127,-1.4862,-1.4787,-1.4928,-1.4955,-1.4968,-1.4975,-1.5028,-1.5202,-1.5418,-1.5712,-1.5784,-1.5784,-1.5784,-1.5784,-1.5851,-1.646,-1.6667,-1.6747,0.0,0.0,0.0,0.0,0.0,0.0,0.0,-0.7638,-0.7512,-0.7265,-0.7576,-0.8105,-0.8803,-0.9212,-0.9453,-0.9499,-0.9427,-0.9032,-0.8258,-0.8061,-0.7918,-0.7784,-0.7634,-0.7549,-0.7518,-0.7518,-0.76,0.0,0.0,-0.6801,-0.5778,-0.4318,0.0,0.0,0.0,0.2533,0.408,0.4538,0.5315,0.63,0.63,0.6169,0.5993,0.5993,0.5935,0.5793,0.5739,0.5718,0.5694,0.5583,0.547,0.5395,0.5395,0.5395,0.5395,0.5395,0.5395,0.5395,0.5395,0.5395,0.5409,0.547,0.5556,0.562,0.5739,0.5427,0.4709,0.3271,0.1046,-0.1137,-0.2812,-0.4276,-0.5928,-0.8071,0.0,0.0,0.0,0.0,0.0,0.0,0.0,0.0,0.0,0.0,0.0,0.0,0.0,-1.0203,-1.029,-1.0162,-1.0652,-1.1852,0.0,-1.2626,-1.4481,-1.4257,-1.4488,-1.5182,-1.5062,-1.5008,-1.5015,-1.5189,-1.5317,-1.5484,-1.5484,-1.5545,-1.5665,-1.5785,-1.5784,-1.5784,-1.5784,-1.5939,-1.6146,-1.6553,-1.682,-1.7079,-0.9509,0.0,-0.7434,0.0,-0.7434,-0.7356,-0.712,-0.7388,-0.7506,-0.7244,-0.7125,-0.7404,-0.8277,-0.8296,-0.8119,-0.7795,-0.769,-0.7246,-0.6331,-0.6187,-0.6242,-0.642,-0.6395,0.0,-0.5828,-0.6141,-0.6032,-0.5482,-0.5944,-0.5432,-0.4031,-0.269,0.0,0.0,0.2246,0.3308,0.4721,0.5037,0.5589,0.63,0.63,0.6235,0.6098,0.6098,0.603,0.5928,0.5884,0.5867,0.5847,0.5701,0.5552,0.5453,0.5409,0.5426,0.5453,0.5409,0.5395,0.5395,0.5395,0.5395,0.5395,0.5395,0.5477,0.5463,0.523,0.4771,0.4062,0.2765,0.0929,-0.1019,-0.2773,-0.393,-0.5319,-0.7468,0.0,0.0,0.0,0.0,0.0,0.0,-1.2305,-1.2351,-1.2516,0.0,0.0,0.0,0.0,-1.1475,-1.1462,-1.1396,-1.193,0.0,0.0,0.0,-1.5211,-1.5182,-1.5182,-1.5217,-1.5217,-1.5217,-1.5224,-1.5431,-1.5631,-1.5784,-1.5784,-1.5784,-1.5784,-1.5784,-1.5879,-1.5959,-1.5959,-1.6139,-1.6433,-1.6727,-1.7018,-1.7246,-0.8283,-0.6933,-0.6029,-0.6029,-0.6029,-0.5991,-0.5825,-0.6825,-0.7543,-0.7436,-0.7234,-0.7095,-0.7139,-0.7139,-0.659,-0.5241,-0.5142,-0.5009,-0.4753,-0.4843,-0.5339,0.0,0.0,-0.5958,-0.4727,-0.5747,-0.5276,-0.3124,0.0,0.0,-0.1585,0.0,0.1576,0.1706,0.3726,0.4674,0.4768,0.5825,0.63,0.63,0.63,0.6296,0.6296,0.6296,0.6296,0.6276,0.6081,0.599,0.5966,0.585,0.5705,0.5559,0.5443,0.5498,0.5559,0.544,0.5395,0.5395,0.5395,0.5395,0.5395,0.5395,0.5395,0.5199,0.4404,0.4202,0.3719,0.1977,-0.0078,-0.188,-0.2929,-0.3982,-0.5384,-0.7472,0.0,0.0,0.0,0.0,0.0,0.0,-1.2305,-1.2191,-1.1946,-1.2449,0.0,0.0,0.0,0.0,0.0,0.0,0.0,-1.4923,-1.4663,0.0,-1.5764,-1.5531,-1.5531,-1.5771,-1.5771,-1.5771,-1.5771,-1.5771,-1.5778,-1.5784,-1.5784,-1.5784,-1.5784,-1.5784,-1.6005,-1.6266,-1.6266,-1.6446,-1.6734,-1.7085,-1.7199,-1.7246,-0.8088,-0.7637,-0.7385,-0.7385,-0.7385,-0.7307,-0.7079,-0.7341,-0.7506,-0.7248,-0.7125,-0.7095,-0.7095,-0.7011,-0.684,0.0,-0.6368,-0.6282,0.0,-0.5458,-0.5121,-0.5337,-0.4593,-0.3989,-0.3601,-0.396,-0.379,-0.3113,0.0,0.0,0.0,0.0898,0.2348,0.3756,0.4386,0.5115,0.5825,0.6141,0.63,0.63,0.63,0.63,0.63,0.63,0.63,0.6293,0.6245,0.6186,0.6162,0.601,0.5996,0.6037,0.5742,0.559,0.5457,0.5409,0.5395,0.5395,0.5395,0.5395,0.5259,0.4619,0.4453,0.4228,0.3383,0.2672,0.1898,0.0743,-0.0613,-0.1919,-0.2929,-0.3984,-0.5154,-0.656,-0.6795,0.0,0.0,0.0,0.0,0.0,-1.1885,-1.2265,-1.2171,-1.2705,0.0,0.0,0.0,0.0,0.0,0.0,0.0,0.0,-1.5064,0.0,-1.5778,-1.5738,-1.5738,-1.5784,-1.5784,-1.5784,-1.5784,-1.5784,-1.5784,-1.5784,-1.5784,-1.5784,-1.5784,-1.5784,-1.6005,-1.6321,-1.6321,-1.6623,-1.7072,-1.7166,-1.7326,-1.7455,-0.7988,-0.7587,-0.7235,-0.7235,-0.7235,-0.7177,-0.7012,-0.7378,-0.759,-0.7301,-0.6853,-0.6531,-0.6476,-0.5999,0.0,-0.5791,-0.5292,-0.4976,-0.4932,-0.4205,-0.3909,-0.4216,-0.352,-0.2913,-0.2551,-0.2898,0.0,-0.1946,-0.1599,-0.081,0.0519,0.2038,0.345,0.4727,0.5118,0.567,0.63,0.63,0.63,0.63,0.63,0.63,0.63,0.63,0.63,0.63,0.63,0.63,0.6286,0.6149,0.6142,0.6139,0.5949,0.5722,0.5549,0.5498,0.544,0.5395,0.5395,0.516,0.4722,0.4148,0.3747,0.3263,0.2372,0.1455,0.0659,0.0112,-0.1151,-0.2347,-0.2968,-0.4295,-0.5512,-0.6183,-0.63,-0.6644,-0.7668,0.0,0.0,0.0,0.0,0.0,0.0,-1.2919,-1.3327,0.0,0.0,0.0,0.0,0.0,-1.5062,-1.5169,-1.5304,-1.5538,-1.5778,-1.5784,-1.5784,-1.5784,-1.5784,-1.5784,-1.5784,-1.5784,-1.5885,-1.5999,-1.5999,-1.6059,-1.6159,-1.6159,-1.6333,-1.665,-1.665,-1.6945,-1.7367,-1.7367,-1.7481,-1.7602,-0.7988,-0.6983,-0.6129,0.0,-0.6129,0.0,-0.6019,-0.6963,-0.7561,-0.7365,-0.6247,-0.5395,-0.528,-0.4194,-0.3481,-0.3481,0.0,0.0,0.0,-0.166,-0.2041,-0.2964,-0.2924,-0.2442,-0.1509,-0.2412,-0.1912,0.0122,0.1114,0.1688,0.1842,0.3791,0.4727,0.4844,0.5867,0.63,0.63,0.63,0.63,0.63,0.63,0.63,0.63,0.63,0.63,0.63,0.63,0.63,0.63,0.63,0.6166,0.601,0.601,0.5939,0.5789,0.5647,0.5532,0.5409,0.5342,0.4661,0.3982,0.3846,0.3147,0.2276,0.1397,0.0582,-0.0037,-0.0078,-0.172,-0.3124,-0.3202,-0.4921,-0.63,-0.63,-0.63,-0.6641,-0.7553,0.0,0.0,0.0,0.0,0.0,-1.2817,-1.306,-1.332,0.0,0.0,0.0,0.0,0.0,-1.5182,-1.5391,-1.5418,-1.5558,-1.5778,-1.5784,-1.5784,-1.5784,-1.5784,-1.5791,-1.5811,-1.5811,-1.6019,-1.6348,-1.6348,-1.646,-1.6707,-1.6707,-1.6881,-1.7199,-1.7199,-1.738,-1.7582,-1.7582,-1.7595,-1.7655,0.0,0.0,-0.7537,-0.7537,-0.7537,-0.7149,-0.601,-0.6071,-0.5883,-0.4703,-0.4294,-0.4065,-0.4026,-0.2948,-0.2236,-0.2236,-0.2814,-0.3099,-0.2992,-0.2189,-0.1819,-0.1957,-0.1185,-0.0642,-0.0385,-0.0602,-0.0085,0.1207,0.1465,0.243,0.3986,0.4453,0.5118,0.5944,0.6183,0.63,0.63,0.63,0.63,0.63,0.63,0.63,0.63,0.63,0.63,0.63,0.63,0.63,0.63,0.63,0.6276,0.6245,0.6245,0.6098,0.5909,0.5796,0.5647,0.5395,0.4666,0.4253,0.368,0.2277,0.1275,0.0577,0.0351,0.0144,-0.0221,-0.106,-0.2239,-0.3357,-0.4178,-0.5395,-0.63,-0.63,-0.63,-0.6377,-0.6602,-0.7629,0.0,0.0,-1.1043,-1.2162,-1.3021,-1.3367,-1.362,0.0,0.0,0.0,-1.5177,-1.5464,-1.5558,-1.5398,-1.5611,-1.5758,-1.5784,-1.5784,-1.5784,-1.5784,-1.5784,-1.5945,-1.6166,-1.6166,-1.6326,-1.6607,-1.6607,-1.664,-1.6707,-1.6707,-1.6881,-1.7199,-1.7199,-1.738,-1.7582,-1.7582,-1.7736,-1.7896,-0.7988,-0.7988,-0.7988,-0.7988,-0.7988,-0.7512,-0.6095,-0.5886,-0.5384,-0.3898,-0.3194,-0.2828,-0.2771,-0.1711,-0.0986,-0.0986,-0.1567,-0.1915,-0.1851,-0.128,-0.0962,-0.0854,-0.0302,0.0,0.0,0.0527,0.1344,0.2387,0.2796,0.3602,0.4727,0.5198,0.5747,0.63,0.63,0.63,0.63,0.63,0.63,0.63,0.63,0.63,0.63,0.63,0.63,0.63,0.63,0.63,0.63,0.63,0.63,0.63,0.63,0.6242,0.6043,0.5464,0.5153,0.485,0.4327,0.3487,0.2444,0.1041,0.0337,0.0,0.0,-0.0397,-0.0882,-0.1488,-0.2789,-0.4021,-0.4608,-0.5589,-0.63,-0.63,-0.6354,-0.6375,-0.631,-0.7343,-0.8502,-0.9556,-1.0872,-1.2207,-1.3472,-1.3833,-1.4168,-1.4512,-1.4955,0.0,-1.5391,-1.5671,-1.5711,-1.5598,-1.5698,-1.5784,-1.5784,-1.5784,-1.5784,-1.5784,-1.5965,-1.6119,-1.6279,-1.6413,-1.6633,-1.6907,-1.6907,-1.6987,-1.7108,-1.7108,-1.7201,-1.74,-1.74,-1.7442,-1.7582,-1.7582,-1.7776,-1.8009,-0.7988,-0.7988,-0.7988,-0.7988,-0.7839,-0.7235,-0.5927,-0.5525,-0.4891,-0.343,-0.2316,-0.1659,-0.1527,-0.0592,0.0,0.0,0.0,0.0,0.0,0.0,0.0,0.0,0.0,0.0087,0.0262,0.146,0.2533,0.3559,0.4334,0.482,0.496,0.5867,0.63,0.63,0.63,0.63,0.63,0.63,0.63,0.63,0.63,0.63,0.63,0.63,0.63,0.63,0.63,0.63,0.63,0.63,0.63,0.6261,0.6103,0.6047,0.5835,0.4779,0.4139,0.3807,0.382,0.247,0.094,0.0168,0.0,-0.0034,-0.0216,-0.0949,-0.1705,-0.2017,-0.3478,-0.4766,-0.4921,-0.5822,-0.6542,-0.6627,-0.668,-0.6723,-0.6681,0.0,-0.8487,-0.9712,-1.0994,-1.2428,-1.4061,-1.4442,-1.471,-1.5055,-1.5257,-1.5418,-1.5458,-1.5698,-1.5784,-1.5784,-1.5784,-1.5784,-1.5784,-1.5784,-1.5852,-1.5899,-1.6152,-1.6368,-1.6462,-1.666,-1.6934,-1.7266,-1.7266,-1.7407,-1.7582,-1.7582,-1.7582,-1.7582,-1.7582,-1.7609,-1.7655,-1.7655,-1.7876,-1.8162,-0.7988,-0.7988,-0.7988,-0.7988,-0.7083,-0.5877,-0.4518,-0.3366,-0.2149,-0.0786,-0.044,-0.0289,-0.0279,-0.0092,0.0,0.0,0.0,0.0,0.0,0.0,0.0,0.0,0.0,0.0491,0.1515,0.272,0.374,0.465,0.4814,0.5263,0.6064,0.6219,0.63,0.63,0.63,0.63,0.63,0.63,0.63,0.63,0.63,0.63,0.63,0.63,0.63,0.63,0.63,0.63,0.63,0.63,0.63,0.6141,0.5237,0.4931,0.4734,0.3678,0.2701,0.2,0.201,0.1117,0.0168,0.0034,0.0,-0.0246,-0.1156,-0.1479,-0.2081,-0.3846,-0.4491,-0.496,-0.5867,-0.6865,-0.7733,-0.8156,-0.7973,-0.7946,-0.8429,0.0,-0.7982,-1.0344,-1.098,-1.2175,-1.4612,-1.4914,-1.5062,-1.5304,-1.5371,-1.5504,-1.5752,-1.5758,-1.5784,-1.5784,-1.5784,-1.5784,-1.5784,-1.5784,-1.5952,-1.6206,-1.6301,-1.6583,-1.7065,-1.7112,-1.7293,-1.7515,-1.7515,-1.7542,-1.7582,-1.7582,-1.7582,-1.7582,-1.7582,-1.7742,-1.7922,-1.7922,-1.8262,-1.8798,-0.7988,-0.7434,-0.6933,-0.6933,-0.5824,-0.447,-0.3115,-0.2413,-0.1506,-0.02,0.0,0.0,0.0,0.0,0.0,0.0,0.0,0.0,0.0,0.0,0.0,0.0,0.0628,0.1836,0.3708,0.42,0.4908,0.5969,0.5921,0.6112,0.6498,0.6498,0.6494,0.6416,0.6416,0.6371,0.63,0.63,0.63,0.63,0.63,0.63,0.63,0.63,0.63,0.63,0.63,0.63,0.6222,0.5628,0.5425,0.5249,0.4177,0.3845,0.362,0.2588,0.198,0.1467,0.0908,0.0378,0.0,0.0,-0.0452,-0.0991,-0.1472,-0.2468,-0.3529,-0.4508,-0.5157,-0.573,-0.632,-0.727,-0.8133,-0.8444,-0.8418,0.0,-0.8604,-0.8373,-0.8855,-1.06,-1.1667,-1.3044,-1.5027,-1.5197,-1.5317,-1.5611,-1.5631,-1.5691,-1.5771,-1.5784,-1.5784,-1.5784,-1.5784,-1.5784,-1.5784,-1.5985,-1.6139,-1.6279,-1.6643,-1.6938,-1.7206,-1.7367,-1.7455,-1.7582,-1.7582,-1.7582,-1.7582,-1.7582,-1.7582,-1.7602,-1.7769,-1.7869,-1.8009,-1.8175,-1.8557,-1.8925,-0.7587,-0.6681,-0.5877,-0.5575,-0.4418,-0.3165,-0.2163,-0.1712,-0.1159,-0.0151,0.0,0.0,0.0,0.0,0.0,0.0,0.0,0.0,0.0,0.0,0.0135,0.0404,0.1836,0.3486,0.5359,0.549,0.5999,0.6886,0.681,0.6736,0.6702,0.6664,0.6583,0.6511,0.6477,0.6402,0.63,0.63,0.63,0.63,0.63,0.63,0.63,0.63,0.6141,0.5944,0.5944,0.5786,0.5431,0.4608,0.432,0.414,0.3082,0.2769,0.2563,0.153,0.1214,0.1048,0.0208,0.0,-0.0069,-0.0317,-0.0994,-0.1726,-0.2207,-0.3557,-0.4774,-0.5021,-0.5769,-0.6381,-0.6494,-0.7649,-0.8667,-0.8899,0.0,-0.948,-0.9503,-0.9611,-1.0166,-1.1328,-1.2552,-1.3872,-1.5372,-1.5498,-1.5591,-1.5764,-1.5784,-1.5784,-1.5784,-1.5784,-1.5784,-1.5784,-1.5784,-1.5865,-1.5932,-1.6159,-1.6388,-1.6529,-1.6985,-1.7239,-1.7306,-1.7534,-1.7582,-1.7582,-1.7582,-1.7582,-1.7582,-1.7582,-1.7582,-1.7615,-1.7923,-1.8035,-1.8129,-1.8484,-1.8778,-1.9025,-0.6381,-0.6079,-0.5625,-0.4368,-0.3015,-0.2113,-0.2013,-0.0958,-0.0101,0.0,0.0,0.0,0.0,0.0,0.0,0.0,0.0,0.0,0.0,0.0,0.0494,0.1612,0.3887,0.5225,0.5403,0.6419,0.6927,0.6886,0.6876,0.6841,0.6698,0.6556,0.6521,0.6508,0.6375,0.631,0.63,0.63,0.63,0.63,0.63,0.63,0.63,0.63,0.567,0.4805,0.4805,0.4178,0.3318,0.324,0.3237,0.3037,0.203,0.1729,0.1499,0.044,0.0107,0.0106,0.0037,0.0,-0.0247,-0.1225,-0.155,-0.2103,-0.4026,-0.4599,-0.4988,-0.5983,-0.6327,-0.6501,-0.6511,-0.8305,-0.9973,-1.0522,0.0,0.0,-1.2725,-1.1763,-1.1587,-1.3275,-1.3601,-1.42,-1.5623,-1.5751,-1.5758,-1.5784,-1.5784,-1.5784,-1.5784,-1.5784,-1.5784,-1.5784,-1.5784,-1.5965,-1.6239,-1.6308,-1.6596,-1.7132,-1.7179,-1.734,-1.7549,-1.7569,-1.7582,-1.7582,-1.7582,-1.7582,-1.7582,-1.7582,-1.7582,-1.7615,-1.7923,-1.8217,-1.8497,-1.8784,-1.9078,-1.9332,-0.6079,-0.4672,-0.3367,-0.2865,-0.1661,-0.0756,-0.0756,-0.0303,0.0,0.0,0.0,0.0,0.0,0.0,0.0,0.0,0.0,0.0373,0.1165,0.115,0.1634,0.2861,0.451,0.5714,0.6428,0.6874,0.7068,0.7014,0.7014,0.6987,0.6927,0.6824,0.6756,0.6749,0.66,0.6521,0.6429,0.6429,0.6381,0.63,0.63,0.63,0.6219,0.555,0.504,0.4608,0.3943,0.3435,0.3007,0.2386,0.2169,0.1989,0.092,0.0603,0.0518,0.0112,-0.0476,-0.098,-0.0993,-0.1007,-0.1227,-0.2256,-0.3032,-0.3745,-0.453,-0.52,-0.585,-0.6333,-0.6474,-0.6569,-0.6719,-0.808,-0.9541,-1.0786,0.0,-1.1838,-1.3011,-1.2945,-1.2963,-1.3631,-1.4462,-1.5227,-1.5771,-1.5784,-1.5784,-1.5784,-1.5784,-1.5784,-1.5784,-1.6005,-1.6186,-1.6366,-1.6373,-1.6339,-1.6321,-1.6683,-1.6978,-1.7206,-1.7387,-1.7475,-1.7582,-1.7582,-1.7582,-1.7582,-1.7582,-1.7695,-1.7869,-1.7869,-1.7976,-1.8176,-1.847,-1.8664,-1.8798,-1.9092,-1.9272,-1.9424,-0.5475,-0.3568,-0.1862,-0.1461,-0.0605,0.0,0.0,0.0,0.0,0.0,0.0,0.0,0.0,0.0,0.0,0.0,0.0,0.057,0.1839,0.2542,0.3311,0.4109,0.5309,0.6293,0.7095,0.7095,0.7095,0.7095,0.7095,0.7095,0.7092,0.6953,0.6886,0.6876,0.6719,0.6569,0.6508,0.6463,0.6189,0.5786,0.5786,0.5589,0.5198,0.4491,0.3984,0.3634,0.2891,0.2423,0.2033,0.1332,0.1086,0.0956,0.023,0.0,-0.0074,-0.0418,-0.1015,-0.1746,-0.24,-0.2557,-0.2725,-0.3419,-0.4154,-0.4784,-0.5137,-0.5817,-0.6395,-0.6494,-0.6549,-0.6678,-0.6849,-0.794,-0.9268,-1.0839,-1.1033,-1.1679,-1.3607,-1.3721,-1.3772,-1.4284,-1.5227,-1.5784,-1.5784,-1.5784,-1.5784,-1.5784,-1.5912,-1.6005,-1.6099,-1.6299,-1.65,-1.67,-1.68,-1.6747,-1.6603,-1.6998,-1.7246,-1.734,-1.7488,-1.7582,-1.7589,-1.7682,-1.7729,-1.7736,-1.7829,-1.7989,-1.8135,-1.8135,-1.8303,-1.851,-1.8711,-1.8844,-1.8951,-1.9152,-1.9285,-1.9424,-0.4268,-0.2914,-0.1561,-0.0252,0.0,0.0,0.0,0.0,0.0,0.0,0.0,0.0,0.0,0.0,0.0,0.0,0.0,0.052,0.1711,0.4068,0.5406,0.5403,0.6473,0.7095,0.7095,0.7095,0.7095,0.7095,0.7095,0.7095,0.7092,0.6953,0.6886,0.6873,0.6614,0.6474,0.6468,0.6322,0.5673,0.4688,0.4686,0.4062,0.3085,0.3085,0.2462,0.1607,0.1607,0.0902,0.0,0.0,0.0,0.0,0.0,0.0,-0.0228,-0.1284,-0.1618,-0.2087,-0.4153,-0.4727,-0.4727,-0.4727,-0.4727,-0.5002,-0.6064,-0.6412,-0.6515,-0.6515,-0.6719,-0.6932,-0.6932,-0.8001,-0.9389,-1.0869,-1.0905,-1.1878,-1.4937,-1.4254,-1.4013,-1.5596,-1.5784,-1.5784,-1.5784,-1.5784,-1.5784,-1.5784,-1.6106,-1.64,-1.6693,-1.6707,-1.6707,-1.6714,-1.7052,-1.7206,-1.7206,-1.7206,-1.7347,-1.7582,-1.7582,-1.7582,-1.7595,-1.7856,-1.7995,-1.8009,-1.8364,-1.849,-1.8497,-1.8497,-1.8497,-1.8497,-1.8497,-1.8677,-1.8925,-1.8925,-1.9112,-1.9424,-0.4066,-0.2163,-0.0454,-0.005,0.0,0.0,0.0,0.0,0.0,0.0,0.0,0.0,0.0,0.0,0.0,0.0,0.0,0.0489,0.1702,0.337,0.4603,0.5366,0.6473,0.7095,0.7095,0.7095,0.7095,0.7095,0.7095,0.7095,0.7092,0.6953,0.694,0.6981,0.5968,0.551,0.5459,0.4557,0.3942,0.3557,0.3577,0.3396,0.3007,0.2308,0.188,0.1489,0.0745,0.0275,0.0,0.0,0.0,-0.0118,-0.0902,-0.1131,-0.132,-0.2341,-0.3188,-0.3911,-0.4523,-0.5336,-0.5942,-0.585,-0.5894,-0.6046,-0.6367,-0.6525,-0.6905,-0.784,-0.8254,-0.8452,-0.8444,-0.8919,-0.9509,-1.0072,-1.0155,-1.1088,-1.3957,-1.4005,-1.4272,-1.5622,-1.5784,-1.5784,-1.5784,-1.5784,-1.5912,-1.6126,-1.6413,-1.6613,-1.67,-1.6907,-1.7159,-1.7315,-1.7408,-1.7507,-1.7507,-1.7507,-1.7495,-1.7582,-1.7582,-1.7695,-1.7856,-1.7949,-1.8109,-1.8364,-1.8457,-1.8604,-1.8791,-1.8791,-1.8918,-1.9105,-1.9105,-1.9158,-1.9232,-1.9232,-1.9292,-1.9424,-0.3316,-0.146,0.0,0.0,0.0,0.0,0.0,0.0,0.0,0.0,0.0,0.0,0.0,0.0,0.0,0.0,0.0451,0.1037,0.1736,0.3006,0.4023,0.4662,0.5784,0.6617,0.7098,0.7095,0.7095,0.7095,0.665,0.6428,0.6425,0.5859,0.5643,0.5656,0.4801,0.444,0.4388,0.3551,0.2952,0.2513,0.2516,0.2267,0.18,0.1215,0.098,0.0824,-0.0235,-0.0628,-0.0706,-0.1097,-0.1214,-0.1331,-0.1995,-0.2245,-0.2495,-0.3446,-0.4272,-0.4928,-0.532,-0.6002,-0.666,-0.7045,-0.6856,-0.6681,-0.716,-0.7368,-0.7869,-0.9266,-0.9726,-0.9753,-0.9315,-0.9397,-0.9584,-0.978,-0.981,-1.0781,-1.3502,-1.3926,-1.4364,-1.5635,-1.5784,-1.5784,-1.5784,-1.5784,-1.5999,-1.6413,-1.6714,-1.6927,-1.7048,-1.7273,-1.7454,-1.7575,-1.7582,-1.7582,-1.7582,-1.7582,-1.7582,-1.7582,-1.7582,-1.7749,-1.7995,-1.8115,-1.8384,-1.8671,-1.8784,-1.8938,-1.9098,-1.9098,-1.9205,-1.9417,-1.9239,-1.9265,-1.9352,-1.9232,-1.9265,-1.9424,-0.2264,-0.0907,0.0,0.0,0.0,0.0,0.0,0.0,0.0,0.0,0.0,0.0,0.0,0.0,0.0,0.0,0.0993,0.162,0.1617,0.2645,0.3349,0.3419,0.4472,0.566,0.6938,0.7058,0.7051,0.6962,0.5894,0.5359,0.5223,0.4105,0.3614,0.3607,0.3381,0.3278,0.3225,0.2959,0.2275,0.1455,0.1452,0.0863,0.0,-0.0118,-0.0157,-0.0275,-0.1333,-0.1723,-0.188,-0.2773,-0.3085,-0.3124,-0.3209,-0.3376,-0.3698,-0.4611,-0.5047,-0.5397,-0.6263,-0.6593,-0.7006,-0.8143,-0.7669,-0.7186,-0.8308,-0.8756,-0.9294,-1.0677,-1.118,-1.102,-1.002,-0.9879,-0.9907,-0.9997,-0.9979,-1.0895,-1.355,-1.3926,-1.4364,-1.5635,-1.5784,-1.5791,-1.5818,-1.5871,-1.6159,-1.6667,-1.7058,-1.7347,-1.7528,-1.7569,-1.7582,-1.7582,-1.7582,-1.7582,-1.7582,-1.7582,-1.7582,-1.7582,-1.7609,-1.7789,-1.8042,-1.8397,-1.8691,-1.8978,-1.9252,-1.9424,-1.9424,-1.9424,-1.9424,-1.9339,-1.9065,-1.9125,-1.9332,-1.9065,-1.9132,-1.9424,-0.2063,-0.0907,0.0,0.0,0.0,0.0,0.0,0.0,0.0,0.0,0.0,0.0,0.0,0.0,0.0,0.0,0.0252,0.0399,0.0393,0.0635,0.1207,0.2128,0.2419,0.3587,0.5719,0.6662,0.665,0.5761,0.5536,0.4912,0.3972,0.3703,0.3614,0.3566,0.2566,0.2151,0.2102,0.1109,0.0565,0.0363,0.0356,0.0196,-0.0079,-0.0941,-0.1254,-0.1372,-0.2425,-0.2773,-0.2813,-0.3046,-0.3085,-0.3251,-0.4192,-0.4458,-0.4656,-0.5756,-0.6144,-0.6226,-0.6441,-0.6671,-0.713,-0.8337,-0.853,-0.8686,-0.974,-1.0295,-1.0901,-1.2135,-1.2778,-1.3026,-1.2642,-1.2761,-1.2624,-1.1623,-1.1439,-1.2035,-1.3674,-1.3926,-1.4364,-1.5635,-1.5784,-1.5919,-1.6152,-1.6643,-1.682,-1.6714,-1.7194,-1.7467,-1.73,-1.7514,-1.7582,-1.7582,-1.7582,-1.7582,-1.7582,-1.7582,-1.7582,-1.7589,-1.7829,-1.8103,-1.8404,-1.8698,-1.8991,-1.9279,-1.9397,-1.9424,-1.9424,-1.9424,-1.9424,-1.9417,-1.9299,-1.9312,-1.9417,-1.9292,-1.9312,-1.9424,-0.1159,-0.0504,0.0,0.0,0.0,0.0,0.0,0.0,0.0,0.0,0.0,0.0,0.0,0.0,0.0,0.0,0.0,0.0,0.0,0.0,0.0295,0.0906,0.1508,0.2412,0.3634,0.4846,0.5398,0.5403,0.4243,0.3377,0.2728,0.2158,0.162,0.1081,0.0466,-0.0084,-0.0585,-0.1214,-0.1475,-0.1474,-0.1495,-0.1488,-0.1526,-0.2112,-0.2308,-0.2464,-0.3476,-0.4178,-0.4654,-0.4705,-0.469,-0.4745,-0.5462,-0.566,-0.5777,-0.6348,-0.6624,-0.6776,-0.6709,-0.6858,-0.7476,-0.9365,-0.9906,-1.0216,-1.1305,-1.1734,-1.2343,-1.377,-1.4291,-1.435,-1.375,-1.3784,-1.344,-1.2139,-1.2431,-1.3102,-1.3776,-1.4411,-1.5096,-1.5923,-1.6039,-1.6159,-1.6446,-1.6938,-1.7139,-1.6927,-1.7328,-1.7515,-1.7414,-1.7502,-1.7582,-1.7582,-1.7582,-1.7582,-1.7582,-1.7582,-1.7655,-1.7809,-1.7916,-1.8203,-1.8504,-1.8791,-1.9085,-1.9424,-1.9424,-1.9424,-1.9424,-1.9424,-1.9424,-1.9424,-1.9424,-1.9424,-1.9424,-1.9424,-1.9424,-1.9424,-0.0202,0.0,0.0,0.0,0.0,0.0,0.0,0.0,0.0,0.0,0.0,0.0,0.0,0.0,0.0,0.0,0.0,0.0,0.0,0.0,0.0,0.0,0.0954,0.159,0.1802,0.2597,0.3571,0.4779,0.2772,0.1683,0.1474,0.0261,-0.073,-0.1591,-0.1762,-0.231,-0.311,-0.3117,-0.3085,-0.3085,-0.3085,-0.3085,-0.3124,-0.3318,-0.3357,-0.3513,-0.4569,-0.555,-0.6317,-0.6436,-0.6412,-0.6361,-0.6504,-0.66,-0.6681,-0.658,-0.6937,-0.7334,-0.7257,-0.7462,-0.8312,-1.0751,-1.1384,-1.1721,-1.296,-1.325,-1.3658,-1.5107,-1.5438,-1.5205,-1.4369,-1.4214,-1.3878,-1.277,-1.3494,-1.4214,-1.4214,-1.5185,-1.5999,-1.6295,-1.6409,-1.6513,-1.676,-1.7099,-1.728,-1.728,-1.7442,-1.7582,-1.7582,-1.7582,-1.7582,-1.7582,-1.7582,-1.7609,-1.7662,-1.7662,-1.7816,-1.8069,-1.8115,-1.8323,-1.8577,-1.8865,-1.9132,-1.9424,-1.9424,-1.9424,-1.9424,-1.9424,-1.9424,-1.9424,-1.9424,-1.9424,-1.9424,-1.9424,-1.9424,-1.9424,-0.0051,0.0,0.0,0.0,0.0,0.0,0.0,0.0,0.0,0.0,0.0,0.0,0.0,0.0,0.0,0.0,0.0,0.0,0.0,0.0,0.0,0.0,0.0144,0.0754,0.1794,0.095,0.1076,0.2281,0.1969,0.1285,0.0217,-0.0868,-0.1456,-0.1633,-0.2495,-0.2955,-0.311,-0.3117,-0.3085,-0.3085,-0.3085,-0.3085,-0.3202,-0.4139,-0.4491,-0.4608,-0.5709,-0.618,-0.6303,-0.6323,-0.6399,-0.6511,-0.662,-0.6685,-0.6722,-0.6834,-0.7623,-0.8471,-0.8446,-0.9253,-1.0531,-1.2163,-1.2583,-1.3016,-1.4689,-1.5042,-1.5107,-1.5331,-1.5591,-1.5684,-1.5575,-1.5534,-1.5486,-1.5296,-1.5439,-1.5534,-1.5534,-1.5949,-1.6226,-1.6266,-1.677,-1.7099,-1.7139,-1.7407,-1.7522,-1.7522,-1.7562,-1.7582,-1.7582,-1.7582,-1.7582,-1.7582,-1.7582,-1.7709,-1.7929,-1.7929,-1.8136,-1.8437,-1.8684,-1.8824,-1.8871,-1.9172,-1.939,-1.9424,-1.9424,-1.9424,-1.9424,-1.9424,-1.9424,-1.9424,-1.9424,-1.9424,-1.9424,-1.9424,-1.9424,-1.9424,0.0,0.0,0.0,0.0,0.0,0.0,0.0,0.0,0.0,0.0,0.0,0.0,0.0,0.0,0.0,0.0,0.0,0.0,0.0,0.0,0.0,0.0,0.0,0.0232,0.0773,0.0271,0.0268,0.0793,0.0803,0.022,-0.0895,-0.1362,-0.2212,-0.3343,-0.3786,-0.4325,-0.4878,-0.4904,-0.4882,-0.4882,-0.4882,-0.4882,-0.4999,-0.6041,-0.6426,-0.6507,-0.698,-0.6795,-0.6323,-0.6491,-0.6532,-0.6555,-0.6753,-0.6827,-0.6841,-0.6866,-0.7795,-0.8828,-0.8978,-0.9939,-1.1277,-1.292,-1.3298,-1.372,-1.5258,-1.5638,-1.5638,-1.5638,-1.5738,-1.5784,-1.5784,-1.5784,-1.5784,-1.5784,-1.5784,-1.5885,-1.6052,-1.6192,-1.6442,-1.677,-1.7186,-1.744,-1.744,-1.7508,-1.7582,-1.7582,-1.7742,-1.7762,-1.7595,-1.7749,-1.7762,-1.7589,-1.7582,-1.7736,-1.7989,-1.7995,-1.8222,-1.8731,-1.8865,-1.8925,-1.8931,-1.9232,-1.9424,-1.9424,-1.9424,-1.9424,-1.9424,-1.9424,-1.9424,-1.9424,-1.9424,-1.9424,-1.9424,-1.9424,-1.9424,-1.9424]},{"header":{"parameterUnit":"m.s-1","parameterCategory":1,"la1":30.6,"la2":28.766,"lo1":-90.7593,"lo2":-88.6598,"dx":0.0162,"dy":0.0183,"nx":116,"ny":114,"refTime":"2023-02-06T06:00:00:Z","depth":0,"parameterNumber":3,"parameterNumberName":"V-component_of_WINDS"},"data":[0.0,0.0,0.0,0.0,0.0,0.0,0.0,0.0,0.0,0.0,0.0,0.0,0.0,0.0,0.0,0.0,0.0,0.0,0.0,0.0,0.0,0.0,0.0,0.0,0.0,0.0,0.0,0.0,0.0,0.0,0.0,0.0,0.0,0.0,0.0,0.0,0.0,0.0,0.0,0.0,0.0,0.0,0.0,0.0,0.0,0.0,0.0,0.0,0.0,0.0,0.0,0.0,0.0,0.0,0.0,0.0,0.0,0.0,0.0,0.0,0.0,0.0,0.0,0.0,0.0,0.0,0.0,0.0,0.0,0.0,0.0,0.0,0.0,0.0,0.0,0.0,0.0,0.0,0.0,0.0,0.0,0.0,0.0,0.0,0.0,0.0,0.0,0.0,0.0,0.0,0.0,0.0,0.0,0.0,0.0,0.0,0.0,0.0,0.0,0.0,0.0,0.0,0.0,0.0,0.0,0.0,0.0,0.0,0.0,0.0,0.0,0.0,0.0,0.0,0.0,0.0,0.0,0.0,0.0,0.0,0.0,0.0,0.0,0.0,0.0,0.0,0.0,0.0,0.0,0.0,0.0,0.0,0.0,0.0,0.0,0.0,0.0,0.0,0.0,0.0,0.0,0.0,0.0,0.0,0.0,0.0,0.0,0.0,0.0,0.0,0.0,0.0,0.0,0.0,0.0,0.0,0.0,0.0,0.0,0.0,0.0,0.0,0.0,0.0,0.0,0.0,0.0,0.0,0.0,0.0,0.0,0.0,0.0,0.0,0.0,0.0,0.0,0.0,0.0,0.0,0.0,0.0,0.0,0.0,0.0,0.0,0.0,0.0,0.0,0.0,0.0,0.0,0.0,0.0,0.0,0.0,0.0,0.0,0.0,0.0,0.0,0.0,0.0,0.0,0.0,0.0,0.0,0.0,0.0,0.0,0.0,0.0,0.0,0.0,0.0,0.0,0.0,0.0,0.0,0.0,0.0,0.0,0.0,0.0,0.0,0.0,0.0,0.0,0.0,0.0,0.0,0.0,0.0,0.0,0.0,0.0,0.0,0.0,0.0,0.0,0.0,0.0,0.0,0.0,0.0,0.0,0.0,0.0,0.0,0.0,0.0,0.0,0.0,0.0,0.0,0.0,0.0,0.0,0.0,0.0,0.0,0.0,0.0,0.0,0.0,0.0,0.0,0.0,0.0,0.0,0.0,0.0,0.0,0.0,0.0,0.0,0.0,0.0,0.0,0.0,0.0,0.0,0.0,0.0,0.0,0.0,0.0,0.0,0.0,0.0,0.0,0.0,0.0,0.0,0.0,0.0,0.0,0.0,0.0,0.0,0.0,0.0,0.0,0.0,0.0,0.0,0.0,0.0,0.0,0.0,0.0,0.0,0.0,0.0,0.0,0.0,0.0,0.0,0.0,0.0,0.0,0.0,0.0,0.0,0.0,0.0,0.0,0.0,0.0,0.0,0.0,0.0,0.0,0.0,0.0,0.0,0.0,0.0,0.0,0.0,0.0,0.0,0.0,0.0,0.0,0.0,0.0,0.0,0.0,0.0,0.0,0.0,0.0,0.0,0.0,0.0,0.0,0.0,0.0,0.0,0.0,0.0,0.0,0.0,0.0,0.0,0.0,0.0,0.0,0.0,0.0,0.0,0.0,0.0,0.0,0.0,0.0,0.0,0.0,0.0,0.0,0.0,0.0,0.0,0.0,0.0,0.0,0.0,0.0,0.0,0.0,0.0,0.0,0.0,0.0,0.0,0.0,0.0,0.0,0.0,0.0,0.0,0.0,0.0,0.0,0.0,0.0,0.0,0.0,0.0,0.0,0.0,0.0,0.0,0.0,0.0,0.0,0.0,0.0,0.0,0.0,0.0,0.0,0.0,0.0,0.0,0.0,0.0,0.0,0.0,0.0,0.0,0.0,0.0,0.0,0.0,0.0,0.0,0.0,0.0,0.0,0.0,0.0,0.0,0.0,0.0,0.0,0.0,0.0,0.0,0.0,0.0,0.0,0.0,0.0,0.0,0.0,0.0,0.0,0.0,0.0,0.0,0.0,0.0,0.0,0.0,0.0,0.0,0.0,0.0,0.0,0.0,0.0,0.0,0.0,0.0,0.0,0.0,0.0,0.0,0.0,0.0,0.0,0.0,0.0,0.0,0.0,0.0,0.0,0.0,0.0,0.0,0.0,0.0,0.0,0.0,0.0,0.0,0.0,0.0,0.0,0.0,0.0,0.0,0.0,0.0,0.0,0.0,0.0,0.0,0.0,0.0,0.0,0.0,0.0,0.0,0.0,0.0,0.0,0.0,0.0,0.0,0.0,0.0,0.0,0.0,0.0,0.0,0.0,0.0,0.0,0.0,0.0,0.0,0.0,0.0,0.0,0.0,0.0,0.0,0.0,0.0,0.0,0.0,0.0,0.0,0.0,0.0,0.0,0.0,0.0,0.0,0.0,0.0,0.0,0.0,0.0,0.0,0.0,0.0,0.0,0.0,0.0,0.0,0.0,0.0,0.0,0.0,0.0,0.0,0.0,0.0,0.0,0.0,0.0,0.0,0.0,0.0,0.0,0.0,0.0,0.0,0.0,0.0,0.0,0.0,0.0,0.0,0.0,0.0,0.0,0.0,0.0,0.0,0.0,0.0,0.0,0.0,0.0,0.0,0.0,0.0,0.0,0.0,0.0,0.0,0.0,0.0,0.0,0.0,0.0,0.0,0.0,0.0,0.0,0.0,0.0,0.0,0.0,0.0,0.0,0.0,0.0,0.0,0.0,0.0,0.0,0.0,0.0,0.0,0.0,0.0,0.0,0.0,0.0,0.0,0.0,0.0,0.0,0.0,0.0,0.0,0.0,0.0,0.0,0.0,0.0,0.0,0.0,0.0,0.0,0.0,0.0,0.0,0.0,0.0,0.0,0.0,0.0,0.0,0.0,0.0,0.0,0.0,0.0,0.0,0.0,0.0,0.0,0.0,0.0,0.0,0.0,0.0,0.0,0.0,0.0,0.0,0.0,0.0,0.0,0.0,0.0,0.0,0.0,0.0,0.0,0.0,0.0,0.0,0.0,0.0,0.0,0.0,0.0,0.0,0.0,0.0,0.0,0.0,0.0,0.0,0.0,0.0,0.0,0.0,0.0,0.0,0.0,0.0,0.0,0.0,0.0,0.0,0.0,0.0,0.0,0.0,0.0,0.0,0.0,0.0,0.0,0.0,0.0,0.0,0.0,0.0,0.0,0.0,0.0,0.0,0.0,0.0,0.0,0.0,0.0,0.0,0.0,0.0,0.0,0.0,0.0,0.0,0.0,0.0,0.0,0.0,0.0,0.0,0.0,0.0,0.0,0.0,0.0,0.0,0.0,0.0,0.0,0.0,0.0,0.0,0.0,0.0,0.0,0.0,0.0,0.0,0.0,0.0,0.0,0.0,0.0,0.0,0.0,0.0,0.0,0.0,0.0,0.0,0.0,0.0,0.0,0.0,0.0,0.0,0.0,0.0,0.0,0.0,0.0,0.0,0.0,0.0,0.0,0.0,0.0,0.0,0.0,0.0,0.0,0.0,0.0,0.0,0.0,0.0,0.0,0.0,0.0,0.0,0.0,0.0,0.0,0.0,0.0,0.0,0.0,0.0,0.0,0.0,0.0,0.0,0.0,0.0,0.0,0.0,0.0,0.0,0.0,0.0,0.0,0.0,0.0,0.0,0.0,0.0,0.0,0.0,0.0,0.0,0.0,0.0,0.0,0.0,0.0,0.0,0.0,0.0,0.0,0.0,0.0,0.0,0.0,0.0,0.0,0.0,0.0,0.0,0.0,0.0,0.0,0.0,0.0,0.0,0.0,0.0,0.0,0.0,0.0,0.0,0.0,0.0,0.0,0.0,0.0,0.0,0.0,0.0,0.0,0.0,0.0,0.0,0.0,0.0,0.0,0.0,0.0,0.0,0.0,0.0,0.0,0.0,0.0,0.0,0.0,0.0,0.0,0.0,0.0,0.0,0.0,0.0,0.0,0.0,0.0,0.0,0.0,0.0,0.0,0.0,0.0,0.0,0.0,0.0,0.0,0.0,0.0,0.0,0.0,0.0,0.0,0.0,0.0,0.0,0.0,0.0,0.0,0.0,0.0,0.0,0.0,0.0,0.0,0.0,0.0,0.0,0.0,0.0,0.0,0.0,0.0,0.0,0.0,0.0,0.0,0.0,0.0,0.0,0.0,0.0,0.0,0.0,0.0,0.0,0.0,0.0,0.0,0.0,0.0,0.0,0.0,0.0,0.0,0.0,0.0,0.0,0.0,0.0,0.0,0.0,0.0,0.0,0.0,0.0,0.0,0.0,0.0,0.0,0.0,0.0,0.0,0.0,0.0,0.0,0.0,0.0,0.0,0.0,0.0,0.0,0.0,0.0,0.0,0.0,0.0,0.0,0.0,0.0,0.0,0.0,0.0,0.0,0.0,0.0,0.0,0.0,0.0,0.0,0.0,0.0,0.0,0.0,0.0,0.0,0.0,0.0,0.0,0.0,0.0,0.0,0.0,0.0,0.0,0.0,0.0,0.0,0.0,0.0,0.0,0.0,0.0,0.0,0.0,0.0,0.0,0.0,0.0,0.0,0.0,0.0,0.0,0.0,0.0,0.0,0.0,0.0,0.0,0.0,0.0,0.0,0.0,0.0,0.0,0.0,0.0,0.0,0.0,0.0,0.0,0.0,0.0,0.0,0.0,0.0,0.0,0.0,0.0,0.0,0.0,0.0,0.0,0.0,0.0,0.0,0.0,0.0,0.0,0.0,0.0,0.0,0.0,0.0,0.0,0.0,0.0,0.0,0.0,0.0,0.0,0.0,0.0,0.0,0.0,0.0,0.0,0.0,0.0,0.0,0.0,0.0,0.0,0.0,0.0,0.0,0.0,0.0,0.0,0.0,0.0,0.0,0.0,0.0,0.0,0.0,0.0,0.0,0.0,0.0,0.0,0.0,0.0,0.0,0.0,0.0,0.0,0.0,0.0,0.0,0.0,0.0,0.0,0.0,0.0,0.0,0.0,0.0,0.0,0.0,0.0,0.0,0.0,0.0,0.0,0.0,0.0,0.0,0.0,0.0,0.0,0.0,0.0,0.0,0.0,0.0,0.0,0.0,0.0,0.0,0.0,0.0,0.0,0.0,0.0,0.0,0.0,0.0,0.0,0.0,0.0,0.0,0.0,0.0,0.0,0.0,0.0,0.0,0.0,0.0,0.0,0.0,0.0,0.0,0.0,0.0,0.0,0.0,0.0,0.0,0.0,0.0,0.0,0.0,0.0,0.0,0.0,0.0,0.0,0.0,0.0,0.0,0.0,0.0,0.0,0.0,0.0,0.0,0.0,0.0,0.0,0.0,0.0,0.0,0.0,0.0,0.0,0.0,0.0,0.0,0.0,0.0,0.0,0.0,0.0,0.0,0.0,0.0,0.0,0.0,0.0,0.0,0.0,0.0,0.0,0.0,0.0,0.0,0.0,0.0,0.0,0.0,0.0,0.0,0.0,0.0,0.0,0.0,0.0,0.0,0.0,0.0,0.0,0.0,0.0,0.0,0.0,0.0,0.0,0.0,0.0,0.0,0.0,0.0,0.0,0.0,0.0,0.0,0.0,0.0,0.0,0.0,0.0,0.0,0.0,0.0,0.0,0.0,0.0,0.0,0.0,0.0,0.0,0.0,0.0,0.0,0.0,0.0,0.0,0.0,0.0,0.0,0.0,0.0,0.0,0.0,0.0,0.0,0.0,0.0,0.0,0.0,0.0,0.0,0.0,0.0,0.0,0.0,0.0,0.0,0.0,0.0,0.0,0.0,0.0,0.0,0.0,0.0,0.0,0.0,0.0,0.0,0.0,0.0,0.0,0.0,0.0,0.0,0.0,0.0,0.0,0.0,0.0,0.0,0.0,0.0,0.0,0.0,0.0,0.0,0.0,0.0,0.0,0.0,0.0,0.0,0.0,0.0,0.0,0.0,0.0,0.0,0.0,0.0,0.0,0.0,0.0,0.0,0.0,0.0,0.0,0.0,0.0,0.0,0.0,0.0,0.0,0.0,0.0,0.0,0.0,0.0,0.0,0.0,0.0,0.0,0.0,0.0,0.0,0.0,0.0,0.0,2.6081,0.0,0.0,0.0,0.0,0.0,0.0,0.0,0.0,0.0,0.0,0.0,0.0,0.0,0.0,0.0,0.0,0.0,0.0,0.0,0.0,0.0,0.0,0.0,0.0,0.0,0.0,0.0,0.0,0.0,0.0,0.0,0.0,0.0,0.0,0.0,0.0,0.0,0.0,0.0,0.0,0.0,0.0,0.0,0.0,0.0,0.0,0.0,0.0,0.0,0.0,0.0,0.0,0.0,0.0,0.0,0.0,0.0,0.0,0.0,0.0,0.0,0.0,0.0,0.0,0.0,0.0,0.0,0.0,0.0,0.0,0.0,0.0,0.0,0.0,0.0,0.0,0.0,0.0,0.0,0.0,0.0,0.0,0.0,0.0,0.0,0.0,0.0,0.0,0.0,0.0,0.0,0.0,0.0,0.0,0.0,0.0,0.0,0.0,0.0,0.0,0.0,0.0,0.0,0.0,0.0,0.0,0.0,0.0,0.0,0.0,0.0,0.0,0.0,0.0,0.0,0.0,2.8096,0.0,0.0,0.0,0.0,0.0,0.0,0.0,0.0,0.0,0.0,0.0,0.0,0.0,0.0,0.0,0.0,0.0,0.0,0.0,0.0,0.0,0.0,0.0,0.0,0.0,0.0,0.0,0.0,0.0,0.0,0.0,0.0,0.0,0.0,0.0,0.0,0.0,0.0,0.0,0.0,0.0,0.0,0.0,0.0,0.0,0.0,0.0,0.0,0.0,0.0,0.0,0.0,0.0,0.0,0.0,0.0,0.0,0.0,0.0,0.0,0.0,0.0,0.0,0.0,0.0,0.0,0.0,0.0,0.0,0.0,0.0,0.0,0.0,0.0,0.0,0.0,0.0,0.0,0.0,0.0,0.0,0.0,0.0,0.0,0.0,0.0,0.0,0.0,0.0,0.0,0.0,0.0,0.0,0.0,0.0,0.0,0.0,0.0,0.0,0.0,0.0,0.0,0.0,0.0,0.0,0.0,0.0,0.0,3.663,3.7214,3.8357,3.8357,3.8357,3.8101,3.3721,3.1897,3.1976,3.1235,0.0,0.0,0.0,0.0,0.0,0.0,0.0,0.0,0.0,0.0,0.0,0.0,0.0,0.0,0.0,0.0,0.0,0.0,0.0,0.0,0.0,0.0,0.0,0.0,0.0,0.0,0.0,0.0,0.0,0.0,0.0,0.0,0.0,0.0,0.0,0.0,0.0,0.0,3.8047,3.95,4.0038,3.9564,0.0,0.0,0.0,0.0,0.0,0.0,0.0,0.0,0.0,0.0,0.0,0.0,0.0,0.0,0.0,0.0,0.0,0.0,0.0,0.0,0.0,0.0,0.0,0.0,0.0,0.0,0.0,0.0,0.0,0.0,0.0,0.0,0.0,0.0,0.0,0.0,0.0,0.0,0.0,0.0,0.0,0.0,0.0,0.0,3.4904,3.5189,0.0,0.0,0.0,0.0,0.0,0.0,0.0,0.0,0.0,0.0,0.0,0.0,0.0,3.7343,3.8605,3.8502,3.8827,3.9564,3.9489,3.9556,3.9732,3.9732,3.9732,3.9686,3.9004,0.0,3.6045,3.5154,0.0,0.0,0.0,0.0,0.0,0.0,0.0,0.0,0.0,0.0,0.0,0.0,0.0,0.0,0.0,0.0,0.0,0.0,0.0,0.0,0.0,0.0,0.0,0.0,0.0,0.0,0.0,0.0,0.0,0.0,0.0,0.0,0.0,0.0,0.0,0.0,3.962,4.021,4.0319,4.1334,4.1801,4.1674,3.888,3.6493,3.4382,3.2069,0.0,0.0,0.0,0.0,0.0,0.0,0.0,0.0,0.0,0.0,0.0,0.0,0.0,0.0,0.0,0.0,0.0,0.0,0.0,0.0,0.0,0.0,0.0,0.0,0.0,0.0,0.0,0.0,0.0,0.0,0.0,0.0,0.0,0.0,0.0,0.0,0.0,0.0,0.0,3.5263,3.6377,3.63,3.649,3.6258,0.0,0.0,0.0,0.0,0.0,0.0,0.0,0.0,0.0,3.9339,4.0144,4.1111,4.2219,4.2161,4.2526,4.3243,4.3227,4.3181,4.3181,4.3181,4.2965,4.2597,4.2597,4.1801,4.036,3.7857,3.6533,3.5897,0.0,0.0,0.0,0.0,3.3002,3.2612,0.0,0.0,0.0,0.0,0.0,0.0,0.0,0.0,0.0,0.0,0.0,0.0,0.0,0.0,0.0,3.9161,0.0,0.0,0.0,0.0,0.0,0.0,0.0,0.0,0.0,0.0,0.0,0.0,4.2299,4.3157,4.3265,4.4106,4.4494,4.4463,4.4056,4.1789,3.8106,3.5023,0.0,0.0,0.0,0.0,0.0,0.0,0.0,0.0,0.0,0.0,0.0,0.0,0.0,0.0,0.0,0.0,0.0,0.0,0.0,0.0,0.0,0.0,0.0,0.0,0.0,0.0,0.0,0.0,0.0,0.0,0.0,0.0,0.0,0.0,0.0,0.0,0.0,0.0,0.0,3.6882,3.8116,3.7627,3.8646,3.8783,0.0,0.0,0.0,0.0,0.0,0.0,3.8564,4.0133,4.1455,4.2415,4.344,4.4468,4.5415,4.5275,4.5517,4.6261,4.6075,4.5889,4.5703,4.5703,4.5196,4.4282,4.4513,4.413,4.3175,4.0226,3.8719,3.8092,3.7009,3.6362,3.6082,3.6257,3.6231,3.612,0.0,0.0,0.0,0.0,0.0,0.0,0.0,0.0,0.0,0.0,0.0,0.0,0.0,0.0,4.114,4.2886,4.2964,4.3498,0.0,0.0,0.0,0.0,0.0,0.0,0.0,0.0,0.0,4.5098,4.7391,4.8498,4.8551,5.0039,5.0742,5.0666,4.9153,4.6388,4.2686,0.0,0.0,0.0,0.0,0.0,0.0,0.0,0.0,0.0,0.0,0.0,0.0,0.0,0.0,0.0,0.0,0.0,0.0,0.0,0.0,0.0,0.0,0.0,0.0,0.0,0.0,0.0,0.0,0.0,0.0,0.0,0.0,0.0,0.0,0.0,0.0,0.0,0.0,0.0,0.0,0.0,0.0,4.01,4.1812,0.0,0.0,0.0,0.0,4.0824,4.1511,4.2266,4.3044,4.3168,4.3939,4.5426,4.5539,4.6295,4.7703,4.7039,4.7056,4.777,4.7073,4.638,4.5703,4.5703,4.4891,4.3494,4.4265,4.413,4.332,4.2434,4.0875,3.9022,3.8815,3.7926,3.6826,3.7524,3.7344,3.6759,0.0,0.0,0.0,0.0,0.0,0.0,0.0,0.0,0.0,0.0,0.0,0.0,0.0,4.1947,4.3807,4.5941,4.6522,4.6588,4.6152,0.0,0.0,0.0,0.0,0.0,0.0,0.0,4.5792,4.7648,4.8972,4.9869,5.034,5.0885,5.1419,5.1866,5.1291,5.0317,0.0,0.0,0.0,0.0,0.0,0.0,0.0,0.0,0.0,0.0,0.0,0.0,0.0,0.0,0.0,0.0,0.0,0.0,0.0,0.0,0.0,0.0,0.0,0.0,0.0,0.0,0.0,0.0,0.0,0.0,0.0,0.0,0.0,0.0,0.0,0.0,0.0,0.0,0.0,0.0,0.0,0.0,0.0,4.2923,4.5249,0.0,4.412,4.4325,4.4595,4.4622,4.5345,4.5925,4.6222,4.7133,4.791,4.8443,4.8931,4.9437,4.9951,4.9689,4.9689,4.9968,4.9672,4.8904,4.7684,4.7684,4.6829,4.5297,4.4716,4.456,4.4652,4.35,4.2271,4.1107,4.0567,3.9789,3.8967,3.9218,3.9151,3.8925,0.0,0.0,0.0,0.0,0.0,0.0,0.0,0.0,0.0,0.0,0.0,4.0058,4.2724,4.4552,4.6561,4.8956,4.9103,4.8757,4.8012,0.0,0.0,0.0,0.0,0.0,0.0,4.6468,4.7973,5.0168,5.0782,5.1323,5.1819,5.2115,5.2531,5.3066,5.3345,0.0,0.0,0.0,0.0,0.0,0.0,0.0,3.5676,0.0,0.0,0.0,0.0,0.0,0.0,0.0,0.0,0.0,0.0,0.0,0.0,0.0,0.0,0.0,0.0,0.0,0.0,0.0,0.0,0.0,0.0,0.0,0.0,0.0,0.0,0.0,0.0,0.0,0.0,0.0,0.0,0.0,0.0,0.0,4.5957,4.5534,4.7891,4.8883,4.7133,4.7613,4.8044,4.8049,4.8543,4.8877,4.8926,4.9827,5.0368,5.0368,5.0864,5.1086,5.1086,5.1086,5.1086,5.1086,5.082,5.0024,4.8792,4.8519,4.7528,4.5982,4.5348,4.5065,4.4955,4.4276,4.3408,4.243,4.1809,4.1087,4.0343,4.0171,4.0096,4.0096,0.0,0.0,0.0,0.0,0.0,0.0,0.0,0.0,0.0,0.0,3.955,4.1595,4.4892,4.7104,4.9334,5.1811,5.0547,4.9961,5.073,4.6985,0.0,0.0,0.0,0.0,4.8324,4.9557,5.0982,5.2676,5.3055,5.3248,5.3304,5.4119,5.4555,5.4639,5.5374,0.0,0.0,0.0,0.0,0.0,0.0,0.0,4.0192,0.0,0.0,0.0,0.0,0.0,0.0,0.0,0.0,0.0,0.0,0.0,0.0,0.0,0.0,0.0,0.0,0.0,0.0,0.0,0.0,0.0,0.0,0.0,0.0,0.0,0.0,0.0,0.0,0.0,0.0,0.0,0.0,0.0,4.3273,4.5879,4.7873,4.7951,4.9785,5.0792,5.0158,5.0589,5.0942,5.1008,5.0981,5.103,5.1154,5.1164,5.1164,5.1164,5.1164,5.1164,5.1164,5.1164,5.1164,5.1164,5.035,4.9596,4.8823,4.8037,4.6832,4.5425,4.6082,4.5569,4.4223,4.4903,4.4284,4.2882,4.2466,4.1748,4.0874,4.0343,4.0146,4.0146,0.0,0.0,0.0,0.0,0.0,0.0,0.0,0.0,0.0,0.0,4.0442,4.2975,4.621,4.8175,5.0215,5.2656,5.1079,5.0046,5.0268,0.0,0.0,0.0,0.0,0.0,5.0061,5.1013,5.2306,5.3983,5.4093,5.4437,5.5016,5.4907,5.5514,5.6678,0.0,0.0,0.0,0.0,0.0,0.0,0.0,0.0,4.3239,0.0,0.0,0.0,0.0,0.0,0.0,0.0,0.0,0.0,0.0,0.0,0.0,0.0,0.0,0.0,0.0,0.0,0.0,0.0,0.0,0.0,0.0,0.0,0.0,0.0,0.0,0.0,0.0,0.0,0.0,0.0,0.0,4.5294,4.5472,4.8557,5.1042,5.1646,5.3233,5.4235,5.406,5.3674,5.3418,5.3449,5.2897,5.2594,5.2617,5.2617,5.2617,5.2617,5.2617,5.2617,5.2617,5.2617,5.2617,5.2617,5.1817,5.1017,5.0216,4.9416,4.847,4.7434,4.666,4.6072,4.5559,4.4729,4.4084,4.3504,4.2969,4.2239,4.1534,4.1397,4.1331,4.1331,0.0,0.0,0.0,0.0,0.0,0.0,0.0,0.0,0.0,0.0,4.1731,4.4371,4.7237,4.8723,5.0228,5.2011,5.0403,4.9286,4.9286,0.0,0.0,0.0,0.0,4.9442,5.1745,5.2417,5.3414,5.4745,5.4919,5.5236,5.5708,5.6135,5.6854,5.781,0.0,0.0,0.0,0.0,0.0,0.0,0.0,0.0,4.8141,4.5885,4.4702,4.3999,4.1953,4.1531,4.1527,3.8933,0.0,0.0,0.0,0.0,0.0,0.0,0.0,0.0,0.0,0.0,0.0,0.0,0.0,0.0,0.0,0.0,0.0,0.0,0.0,0.0,0.0,0.0,0.0,0.0,4.7324,4.8682,4.9658,5.1366,5.3059,5.4546,5.5244,5.5721,5.6069,5.506,5.4399,5.4399,5.3665,5.3185,5.3185,5.3185,5.3185,5.3185,5.3185,5.3185,5.3185,5.3185,5.3185,5.3206,5.205,5.1242,5.0765,4.9591,4.8783,4.8268,4.7483,4.6743,4.601,4.5201,4.4393,0.0,0.0,0.0,0.0,0.0,4.181,4.181,0.0,0.0,0.0,0.0,0.0,0.0,0.0,0.0,0.0,0.0,0.0,4.5372,4.7796,4.8767,4.9657,5.0617,4.9215,4.8254,0.0,0.0,0.0,4.9081,5.0002,5.1406,5.335,5.3924,5.4574,5.5339,5.5803,5.6046,5.6169,5.76,5.832,5.8453,0.0,0.0,0.0,0.0,0.0,0.0,0.0,0.0,5.3531,5.1381,5.0936,5.0984,4.7575,4.6349,4.5873,4.2937,0.0,0.0,0.0,0.0,0.0,0.0,0.0,0.0,0.0,0.0,0.0,0.0,0.0,0.0,0.0,0.0,0.0,0.0,0.0,0.0,0.0,0.0,0.0,0.0,5.1291,5.2964,5.4726,5.428,5.4517,5.6558,5.6267,5.6116,5.6673,5.5414,5.4533,5.4488,5.3776,5.3336,5.3336,0.0,0.0,0.0,0.0,5.3185,5.3185,5.3185,5.3185,5.3167,5.1573,5.0802,5.0747,4.9058,4.8306,4.8306,4.8306,4.7388,4.5902,4.5902,4.4947,4.3465,4.3099,4.2875,4.2713,4.2203,4.1982,4.1982,0.0,0.0,0.0,0.0,0.0,0.0,0.0,0.0,0.0,3.9587,4.2002,4.4497,4.6972,4.7961,4.9039,5.058,4.9454,4.856,0.0,0.0,4.8832,5.0602,5.2116,5.3449,5.4556,5.5961,5.6734,5.6791,5.7593,5.8242,5.8757,5.8701,5.9052,5.9718,0.0,0.0,0.0,0.0,0.0,0.0,0.0,0.0,5.5166,5.3503,5.2582,5.2014,5.0695,5.0175,4.977,4.7329,4.6416,4.6081,4.4682,0.0,0.0,0.0,0.0,0.0,0.0,0.0,0.0,0.0,0.0,0.0,0.0,0.0,0.0,0.0,0.0,0.0,0.0,0.0,0.0,5.177,5.3447,5.5298,5.7639,5.7546,5.7148,5.6925,5.732,5.7286,5.6395,5.579,5.5301,5.4909,5.4499,5.424,5.424,5.3906,5.3683,5.3683,5.338,5.3185,5.3185,5.3185,5.3185,5.3167,0.0,0.0,5.0747,4.9058,4.8306,4.8306,4.8306,4.7388,4.5902,4.5902,4.4947,4.348,4.3414,4.3378,4.3321,4.3214,4.3178,4.3178,0.0,0.0,0.0,0.0,0.0,0.0,0.0,0.0,0.0,0.0,4.1635,4.3836,4.5464,4.5651,4.6153,4.7391,4.7383,0.0,0.0,4.9419,5.0683,5.2918,5.3794,5.4665,5.5535,5.6766,5.737,5.7294,5.8537,5.9318,5.9649,5.9756,6.0035,6.0437,0.0,0.0,0.0,0.0,0.0,0.0,0.0,0.0,5.6847,5.5853,5.5262,5.4724,5.2924,5.2283,5.1958,5.0115,4.9252,4.8808,4.8081,4.6771,4.5187,0.0,0.0,0.0,0.0,0.0,0.0,0.0,0.0,0.0,0.0,0.0,0.0,0.0,0.0,4.8664,0.0,0.0,5.3319,5.5197,5.6182,5.7276,5.8924,5.8989,5.8509,5.7612,5.7846,5.7854,5.721,5.6259,5.5764,5.5934,5.5051,5.4503,5.4503,5.4272,5.4153,5.4153,5.3961,5.3851,5.3851,5.3851,5.3628,5.3181,5.1989,5.1169,5.0723,4.9476,4.8898,4.8897,4.8451,4.7576,4.6382,4.5581,4.478,4.405,4.405,4.3823,4.3515,4.3515,4.3515,4.3515,0.0,0.0,0.0,0.0,0.0,0.0,0.0,0.0,0.0,0.0,4.1219,4.2835,4.3489,4.3124,4.3181,0.0,0.0,0.0,0.0,5.0578,5.2286,5.487,5.5143,5.5552,5.6269,5.7072,5.7487,5.7444,5.9089,5.9863,5.9843,6.0518,6.0834,6.0834,0.0,0.0,0.0,0.0,0.0,0.0,0.0,0.0,5.8289,5.7561,5.7323,5.7057,5.4616,5.3499,5.2994,5.1856,5.0916,5.0271,5.048,4.9644,4.8181,4.5974,4.6014,0.0,0.0,0.0,0.0,0.0,0.0,0.0,0.0,0.0,4.8569,4.9503,5.104,5.2683,5.4218,5.5332,5.6587,5.8266,5.8684,5.9011,5.9665,5.9742,5.9358,5.8265,5.8281,5.8211,5.7808,5.6813,5.6314,5.6522,5.5595,5.4901,5.475,5.4655,5.4628,5.4628,5.455,5.4503,5.4503,5.4333,5.3884,5.3189,5.2205,5.1375,5.0662,4.9866,4.9489,4.9433,4.8414,4.7509,4.6641,4.5197,4.4593,4.4593,4.4593,4.4242,4.3712,4.3712,4.3712,4.3712,0.0,0.0,0.0,0.0,0.0,0.0,0.0,0.0,0.0,0.0,0.0,0.0,0.0,0.0,0.0,0.0,0.0,0.0,4.9557,5.0713,5.2472,5.5133,5.5993,5.6462,5.654,5.7399,5.7758,5.758,5.931,6.0097,5.9983,6.0658,6.0981,6.0972,0.0,0.0,0.0,0.0,0.0,0.0,0.0,0.0,5.9139,5.7232,5.6705,5.6822,5.574,5.4202,5.2642,5.2418,5.1627,5.0858,5.1572,5.1684,5.1208,4.9506,0.0,4.6651,4.4748,4.4205,4.4711,4.7042,4.7258,4.7871,0.0,0.0,5.2948,5.4118,5.5677,5.6809,5.6671,5.7958,5.9092,5.9327,6.0012,6.055,6.0646,6.0646,6.0065,5.8465,5.8906,5.8623,5.6771,5.7462,5.725,5.5429,5.6179,5.6383,5.5604,5.5224,5.5034,5.5034,5.4705,5.4503,5.4503,5.3733,5.3302,5.3189,5.1605,5.0794,5.0662,4.9866,4.9489,4.9414,4.7825,4.6679,4.5854,4.4976,4.4593,4.4593,4.4593,4.454,4.4474,4.4474,4.4474,4.4474,0.0,0.0,0.0,0.0,0.0,0.0,0.0,0.0,0.0,0.0,0.0,0.0,0.0,0.0,0.0,0.0,0.0,0.0,4.964,5.1304,5.3297,5.5937,5.6406,5.6601,5.6601,5.7441,5.785,5.7762,5.9393,6.0175,6.0129,6.0723,6.0997,6.0969,0.0,0.0,0.0,0.0,0.0,0.0,0.0,0.0,5.7192,5.6318,5.5166,5.3937,5.3573,5.261,0.0,0.0,5.108,5.0907,5.223,5.1969,5.0963,4.9823,4.932,0.0,4.8348,4.7704,0.0,0.0,4.9662,5.0759,5.252,5.346,5.4268,5.525,5.7191,5.8513,5.7873,5.9127,6.0262,0.0,6.055,6.08,6.08,6.08,6.0339,5.9146,5.93,5.8773,5.6916,5.6771,5.664,5.6244,5.6233,5.6069,5.5722,5.5535,5.5446,5.5446,5.4823,5.4499,5.4499,5.3627,5.2958,5.2431,5.1737,5.1145,5.0699,5.0336,4.9629,4.8625,4.7452,4.6459,4.5657,4.5324,4.5171,4.5171,4.5171,4.5171,4.514,4.4732,4.4593,4.4593,0.0,0.0,0.0,0.0,0.0,0.0,0.0,0.0,0.0,0.0,0.0,0.0,0.0,0.0,0.0,0.0,0.0,0.0,0.0,5.0737,5.3066,5.543,5.5976,5.6133,5.5898,5.6973,5.7422,5.7187,5.8775,5.9549,5.9527,6.0093,6.0339,6.028,0.0,0.0,0.0,0.0,0.0,0.0,0.0,0.0,5.5477,5.5047,5.336,5.1293,5.1496,5.0818,0.0,0.0,4.9493,4.9819,5.1008,5.0876,5.012,4.9303,4.9171,4.9385,4.9795,0.0,0.0,5.0481,5.2157,5.3648,5.3892,5.4983,5.6057,5.6359,5.8242,5.9608,5.8781,5.9819,6.08,6.08,6.08,6.08,6.08,6.0589,6.0127,5.9281,5.8954,5.8242,5.6791,5.6511,5.6472,5.6637,5.6291,5.5953,5.5703,5.5703,5.5703,5.5703,5.5126,5.4722,5.4491,5.3645,5.275,5.1904,5.1673,5.126,5.0693,5.0462,4.9394,4.774,4.7154,4.6413,4.5594,4.5594,4.5594,4.5594,4.5594,4.5594,4.5531,4.5044,4.4884,4.4884,0.0,0.0,0.0,0.0,0.0,0.0,0.0,0.0,0.0,0.0,0.0,0.0,0.0,0.0,0.0,0.0,0.0,0.0,0.0,4.8335,5.1035,5.2734,5.4433,5.4941,5.4101,5.5762,5.623,5.5371,5.7129,5.7903,5.7796,5.8452,5.8694,5.8576,0.0,0.0,0.0,0.0,0.0,0.0,0.0,0.0,5.4944,5.3403,5.1484,4.9757,5.0487,0.0,0.0,0.0,4.674,4.7109,4.7085,4.8163,0.0,4.8478,4.7151,0.0,0.0,0.0,4.9821,5.2744,5.4806,5.6261,5.6901,5.8402,5.9358,5.8413,5.9588,6.0492,5.9627,6.0204,6.08,6.08,6.08,6.08,6.08,6.0069,5.9242,5.8434,5.7588,5.6714,0.0,5.7242,5.753,5.5857,5.6503,5.6599,5.5742,5.5703,5.5703,5.5703,5.5684,5.528,5.4511,5.3645,5.275,5.1885,5.1106,5.0731,5.0673,4.9817,4.8529,4.6942,4.6904,4.6413,4.5594,4.5594,4.5594,4.5594,4.5594,4.5594,4.5594,4.5577,4.5568,4.5568,0.0,0.0,0.0,0.0,0.0,0.0,0.0,0.0,0.0,0.0,0.0,0.0,0.0,0.0,0.0,0.0,0.0,0.0,0.0,4.6285,4.8633,5.0937,5.2109,5.2578,5.2285,5.3418,5.3867,5.3574,5.5226,5.6317,5.6857,5.7428,5.7978,5.846,0.0,0.0,0.0,0.0,0.0,0.0,0.0,0.0,5.293,5.1864,4.9962,4.7918,0.0,0.0,0.0,0.0,0.0,0.0,4.57,0.0,0.0,4.6494,0.0,0.0,0.0,0.0,5.3468,5.5657,5.7035,5.8042,5.8758,5.9379,5.9502,5.852,5.828,5.7838,5.6434,5.6857,5.7607,5.8176,5.9204,6.0146,6.0723,6.055,5.9858,5.8473,5.805,0.0,0.0,0.0,0.0,5.5742,5.5972,5.6011,5.5722,5.5779,5.5789,5.5695,5.5268,5.4635,5.3776,5.2906,5.2056,5.1225,5.0864,5.0404,4.9798,4.8933,4.7952,4.6865,4.6297,4.5874,4.5594,4.5594,4.5594,4.5594,4.5594,4.5594,4.5594,4.5594,4.5594,4.5594,0.0,0.0,0.0,0.0,0.0,0.0,0.0,0.0,0.0,0.0,0.0,0.0,0.0,0.0,0.0,0.0,0.0,0.0,0.0,0.0,4.5261,4.7253,4.8405,4.8874,4.8581,4.9715,5.0455,5.0765,5.1963,5.3147,5.4251,5.4463,5.4824,5.5303,5.4929,0.0,0.0,0.0,0.0,0.0,0.0,0.0,5.0397,4.9619,4.801,0.0,0.0,0.0,0.0,0.0,0.0,0.0,0.0,0.0,0.0,0.0,0.0,0.0,0.0,5.4184,5.6317,5.8081,5.9157,5.988,6.0254,6.0092,5.9567,5.8522,5.7357,5.6118,5.4741,5.4914,5.5453,5.6022,5.7242,5.855,5.9742,5.9646,5.9287,5.8893,5.8557,5.796,0.0,0.0,0.0,5.5724,5.6028,5.6097,5.5789,5.5915,5.5971,5.587,5.5157,5.4504,5.3934,5.277,5.1774,5.0966,5.0886,5.0225,4.9057,4.8504,4.7627,4.6506,4.5952,4.5701,4.5701,4.5701,4.5684,4.5673,4.5673,4.5643,4.5594,4.5594,4.5594,4.5594,0.0,0.0,0.0,0.0,0.0,0.0,0.0,0.0,0.0,0.0,0.0,0.0,0.0,0.0,0.0,0.0,0.0,0.0,0.0,0.0,0.0,4.1983,4.3591,4.4117,4.3334,4.4935,4.6193,4.701,4.7484,4.8539,5.0096,4.9674,4.9448,4.949,5.0254,0.0,0.0,0.0,0.0,0.0,0.0,0.0,4.7679,4.6874,0.0,0.0,0.0,0.0,0.0,0.0,0.0,0.0,0.0,0.0,0.0,0.0,0.0,5.0829,5.4309,5.6511,5.8259,6.0038,6.1074,6.1612,6.1296,6.0589,5.962,5.8361,5.6722,5.5222,0.0,0.0,5.4337,5.4414,5.5243,5.6436,5.8187,5.7747,5.7862,0.0,0.0,0.0,0.0,0.0,0.0,5.5951,0.0,5.6784,5.5951,5.6097,5.6202,5.6191,5.5394,5.4932,5.4845,5.3103,5.1858,5.1103,5.1094,5.0218,4.8569,4.8569,4.7635,4.6039,4.5996,4.5977,4.5957,4.5918,4.5866,4.5816,4.5816,4.5725,4.5629,4.5629,4.5601,4.5612,0.0,0.0,0.0,0.0,0.0,0.0,0.0,0.0,0.0,0.0,0.0,0.0,0.0,0.0,0.0,0.0,0.0,0.0,0.0,0.0,0.0,0.0,0.0,0.0,0.0,0.0,0.0,0.0,0.0,4.4549,4.6067,4.5317,4.5865,0.0,4.7721,0.0,0.0,0.0,0.0,0.0,0.0,0.0,4.7186,0.0,0.0,0.0,0.0,0.0,0.0,0.0,0.0,0.0,0.0,0.0,4.9994,0.0,0.0,5.4253,5.6556,5.8416,5.9979,6.1094,6.1456,6.1334,6.0521,6.0073,5.9019,5.6076,5.4087,5.2241,0.0,0.0,0.0,5.3337,5.5924,0.0,6.0074,6.0251,0.0,5.997,0.0,5.9373,5.8757,5.9088,0.0,0.0,5.701,5.6368,5.6135,5.6264,5.6305,5.6197,5.6086,5.5383,5.4092,5.2341,5.1388,5.1174,5.1116,5.053,4.9469,4.9469,4.887,4.78,4.7153,4.6861,4.6822,4.6176,4.5881,4.5872,4.5872,4.5852,4.582,4.582,4.5783,4.5749,0.0,0.0,0.0,0.0,0.0,0.0,0.0,0.0,0.0,0.0,0.0,0.0,0.0,0.0,0.0,0.0,0.0,0.0,0.0,0.0,0.0,0.0,0.0,0.0,0.0,0.0,0.0,0.0,0.0,0.0,0.0,4.0348,4.088,4.2198,4.3268,0.0,0.0,0.0,0.0,0.0,0.0,0.0,0.0,0.0,0.0,0.0,0.0,0.0,0.0,0.0,0.0,4.7932,4.9219,5.0846,5.2558,5.3943,0.0,5.6711,5.8515,5.9961,6.1074,6.1496,6.1551,6.1022,5.9192,5.8428,5.7218,5.4014,5.1702,0.0,0.0,0.0,0.0,0.0,0.0,0.0,5.9175,5.9853,6.0291,0.0,6.0666,0.0,6.0051,6.0109,5.9836,0.0,5.7962,5.7228,5.6881,5.6614,5.6456,5.638,5.6081,5.508,5.3321,5.2347,5.1665,5.1294,5.1245,5.0801,4.9984,4.9984,4.9496,4.864,0.0,4.7389,4.7311,4.6431,4.6039,4.5988,4.5988,4.5944,4.5899,4.5899,4.5877,4.5859,0.0,0.0,0.0,0.0,0.0,0.0,0.0,0.0,0.0,0.0,0.0,0.0,0.0,0.0,0.0,0.0,0.0,0.0,0.0,0.0,0.0,0.0,0.0,0.0,0.0,0.0,0.0,0.0,0.0,0.0,0.0,0.0,0.0,0.0,0.0,0.0,0.0,0.0,0.0,0.0,0.0,0.0,0.0,0.0,0.0,0.0,0.0,0.0,0.0,0.0,4.964,4.9652,5.2301,5.376,5.4841,5.6579,5.7616,5.8534,6.0094,6.107,6.1612,6.1504,6.1361,6.0525,5.7691,5.6388,5.4967,5.2002,0.0,4.8029,4.7817,4.8567,4.9372,4.9838,0.0,5.5397,5.7295,5.836,5.9529,6.1161,6.1459,6.1538,6.1523,6.084,6.0078,5.9258,5.8927,5.8412,5.7595,5.6947,5.6601,5.6601,5.5644,5.4394,5.2891,5.2637,5.2148,5.1406,5.1406,5.1035,5.0351,5.0351,4.9941,4.918,4.832,4.7949,4.7871,4.6875,4.6401,4.6296,4.6179,4.6067,4.5944,4.5944,4.5936,4.5924,0.0,0.0,0.0,0.0,0.0,0.0,0.0,0.0,0.0,0.0,0.0,0.0,0.0,0.0,0.0,0.0,0.0,0.0,0.0,0.0,0.0,0.0,0.0,0.0,0.0,0.0,0.0,0.0,0.0,0.0,0.0,0.0,0.0,0.0,0.0,0.0,0.0,0.0,0.0,0.0,0.0,0.0,0.0,0.0,0.0,0.0,0.0,0.0,0.0,0.0,5.1775,5.3221,5.5268,5.6991,5.8435,5.9326,5.9685,6.0004,6.09,6.1242,6.1354,6.1334,6.0709,5.9417,5.6804,5.5448,0.0,0.0,0.0,4.7682,4.6278,4.7298,4.9019,5.1164,0.0,0.0,0.0,0.0,6.023,0.0,0.0,0.0,0.0,0.0,0.0,0.0,5.8495,5.7693,5.6834,5.6679,5.6601,5.6601,5.5058,5.4082,5.3789,5.2344,5.1543,5.1406,5.1406,5.1328,5.1191,5.1191,5.1113,5.0918,5.0098,0.0,4.9629,4.8027,4.7363,4.7264,4.6542,4.6247,4.6225,4.6225,4.615,4.6082,0.0,0.0,0.0,0.0,0.0,0.0,0.0,0.0,0.0,0.0,0.0,0.0,0.0,0.0,0.0,0.0,0.0,0.0,0.0,0.0,0.0,0.0,0.0,0.0,0.0,0.0,0.0,0.0,0.0,0.0,0.0,0.0,0.0,0.0,0.0,0.0,0.0,0.0,0.0,0.0,0.0,0.0,0.0,0.0,0.0,0.0,0.0,0.0,0.0,0.0,5.0986,5.2719,5.6101,5.8032,5.9175,5.9884,5.9922,5.9904,6.0725,6.0763,6.0592,6.0728,6.0104,5.8587,5.5296,0.0,0.0,0.0,0.0,4.6547,4.5748,0.0,0.0,0.0,0.0,0.0,0.0,0.0,0.0,0.0,0.0,0.0,0.0,0.0,0.0,5.8594,5.8144,5.7715,5.7305,5.6855,5.6601,5.6601,5.4902,5.4004,5.4004,5.2266,5.1406,5.1406,5.1406,5.1406,5.1406,5.1406,5.1406,5.1367,5.0547,5.0195,5.0058,4.832,4.7598,4.7519,4.6641,4.6308,4.6308,4.6308,4.6268,4.6203,0.0,0.0,0.0,0.0,0.0,0.0,0.0,0.0,0.0,0.0,0.0,0.0,0.0,0.0,0.0,0.0,0.0,0.0,0.0,0.0,0.0,0.0,0.0,0.0,0.0,0.0,0.0,0.0,0.0,0.0,0.0,0.0,0.0,0.0,0.0,0.0,0.0,0.0,0.0,0.0,0.0,0.0,0.0,0.0,0.0,0.0,0.0,0.0,0.0,0.0,4.8892,5.029,5.4505,5.6855,5.8169,5.872,5.8989,5.9254,5.9898,5.9942,5.9831,6.0054,5.9433,5.7774,5.3923,5.2324,0.0,0.0,4.5594,4.5594,4.5594,0.0,0.0,0.0,0.0,0.0,0.0,0.0,0.0,0.0,0.0,0.0,0.0,0.0,0.0,5.7695,5.7617,5.7617,5.7617,5.6973,5.6601,5.6601,5.4902,5.4004,5.4004,5.2266,5.1406,5.1406,5.1406,5.1406,5.1406,5.1406,5.1406,5.1367,5.0723,5.0469,5.0312,4.8594,4.7871,4.7773,4.6719,4.6308,4.6308,4.6308,4.6308,4.6308,0.0,0.0,0.0,0.0,0.0,0.0,0.0,0.0,0.0,0.0,0.0,0.0,0.0,0.0,0.0,0.0,0.0,0.0,0.0,0.0,0.0,0.0,0.0,0.0,0.0,0.0,0.0,0.0,0.0,0.0,0.0,0.0,0.0,0.0,0.0,0.0,0.0,0.0,0.0,0.0,0.0,0.0,0.0,0.0,0.0,0.0,0.0,0.0,0.0,0.0,0.0,4.6668,4.9054,5.2357,5.5354,5.5285,0.0,0.0,5.8435,5.8916,5.9433,5.9488,5.8604,5.6818,5.3359,0.0,0.0,4.6326,4.5594,4.5594,4.5594,4.5729,0.0,0.0,0.0,0.0,0.0,0.0,0.0,0.0,0.0,0.0,0.0,0.0,0.0,5.6797,5.6719,5.6719,5.6719,5.664,5.6601,5.6601,5.4902,5.4004,5.4004,5.2266,5.1406,5.1406,5.1406,5.1406,5.1406,5.1406,5.1406,5.1406,5.1328,5.1289,0.0,4.9473,4.8789,4.8613,4.6953,4.6308,4.6308,4.6308,4.6308,4.6308,0.0,0.0,0.0,0.0,0.0,0.0,0.0,0.0,0.0,0.0,0.0,0.0,0.0,0.0,0.0,0.0,0.0,0.0,0.0,0.0,0.0,0.0,0.0,0.0,0.0,0.0,0.0,0.0,0.0,0.0,0.0,0.0,0.0,0.0,0.0,0.0,0.0,0.0,0.0,0.0,0.0,0.0,0.0,0.0,0.0,0.0,0.0,0.0,0.0,0.0,0.0,0.0,4.4707,4.6841,0.0,0.0,5.4719,5.5956,5.7397,5.8159,5.8632,5.8913,5.7131,5.4827,5.2933,0.0,0.0,4.6049,4.5594,4.5594,4.5594,4.5594,4.5885,0.0,0.0,0.0,0.0,0.0,0.0,0.0,0.0,0.0,0.0,0.0,5.6973,5.6621,5.6601,5.6367,5.5859,5.6308,5.6601,5.6601,5.543,5.4531,5.4004,5.2793,5.1914,5.1406,5.1406,5.1406,5.1387,5.0898,5.0683,5.0683,5.0683,5.0683,0.0,4.9394,4.8906,4.873,4.6973,4.6308,4.6308,4.6308,4.6308,4.6308,0.0,0.0,0.0,0.0,0.0,0.0,0.0,0.0,0.0,0.0,0.0,0.0,0.0,0.0,0.0,0.0,0.0,0.0,0.0,0.0,0.0,0.0,0.0,0.0,0.0,0.0,0.0,0.0,0.0,0.0,0.0,0.0,0.0,0.0,0.0,0.0,0.0,0.0,0.0,0.0,0.0,0.0,0.0,0.0,0.0,0.0,0.0,0.0,0.0,0.0,0.0,0.0,0.0,0.0,0.0,0.0,5.2006,5.3643,5.5407,5.658,5.7375,5.7696,5.5598,5.3174,0.0,0.0,4.7229,4.5868,4.5594,4.5594,4.5594,4.5627,4.5706,0.0,0.0,4.6568,0.0,0.0,0.0,0.0,0.0,0.0,0.0,5.6308,5.6601,5.6601,5.6601,5.6328,5.5723,5.6269,5.6484,5.6211,5.5625,5.4883,5.4004,5.3144,5.2266,5.1406,5.1406,5.1406,5.1367,5.0566,5.0332,5.0527,5.0039,4.9961,0.0,4.8984,4.8516,4.8379,4.6875,4.6308,4.6308,4.6308,4.6308,4.6308,0.0,0.0,0.0,0.0,0.0,0.0,0.0,0.0,0.0,0.0,0.0,0.0,0.0,0.0,0.0,0.0,0.0,0.0,0.0,0.0,0.0,0.0,0.0,0.0,0.0,0.0,0.0,0.0,0.0,0.0,0.0,0.0,0.0,0.0,0.0,0.0,0.0,0.0,0.0,0.0,0.0,0.0,0.0,0.0,0.0,0.0,0.0,0.0,0.0,0.0,0.0,0.0,0.0,0.0,0.0,0.0,4.8427,5.2016,5.2052,5.3815,5.5633,5.5633,5.4117,5.2263,0.0,0.0,4.7229,4.5868,4.5594,4.5594,4.5594,4.5708,4.5814,0.0,0.0,0.0,0.0,0.0,0.0,0.0,0.0,0.0,0.0,5.5586,5.6601,5.6601,5.6601,0.0,5.6582,5.6601,5.6191,5.5332,5.5293,5.4883,5.4004,5.3144,5.2266,5.1406,5.1406,5.1406,5.1367,5.0566,5.0625,5.1308,4.9629,4.9394,0.0,4.832,4.7617,4.7539,4.6641,4.6308,4.6308,4.6308,4.6308,4.6308,0.0,0.0,0.0,0.0,0.0,0.0,0.0,0.0,0.0,0.0,0.0,0.0,0.0,0.0,0.0,0.0,0.0,0.0,0.0,0.0,0.0,0.0,0.0,0.0,0.0,0.0,0.0,0.0,0.0,0.0,0.0,0.0,0.0,0.0,0.0,0.0,0.0,0.0,0.0,0.0,0.0,0.0,0.0,0.0,0.0,0.0,0.0,0.0,0.0,0.0,0.0,0.0,0.0,0.0,0.0,0.0,0.0,0.0,4.9951,5.1316,5.2325,5.2325,5.0574,4.8843,4.893,0.0,4.5558,4.5591,4.5594,4.5594,4.5594,4.5715,4.5814,0.0,0.0,0.0,0.0,0.0,0.0,0.0,0.0,0.0,0.0,0.0,5.6601,5.6601,5.6601,5.6348,5.5742,5.6289,5.6191,5.5332,5.5293,5.4609,5.3125,5.2832,5.2266,5.1406,5.1406,5.1406,5.1367,5.0566,5.0019,4.9668,4.9121,4.8711,4.8379,4.7832,4.7598,4.7519,4.6641,4.6308,4.6308,4.6308,4.6308,4.6308,0.0,0.0,0.0,0.0,0.0,0.0,0.0,0.0,0.0,0.0,0.0,0.0,0.0,0.0,0.0,0.0,0.0,0.0,0.0,0.0,0.0,0.0,0.0,0.0,0.0,0.0,0.0,0.0,0.0,0.0,0.0,0.0,0.0,0.0,0.0,0.0,0.0,0.0,0.0,0.0,0.0,0.0,3.8234,0.0,0.0,0.0,0.0,0.0,0.0,0.0,0.0,0.0,0.0,0.0,0.0,0.0,0.0,0.0,0.0,4.9003,4.9866,4.9866,4.8251,0.0,0.0,0.0,4.4781,4.5457,4.5594,4.562,4.5665,4.5764,4.5861,0.0,0.0,0.0,0.0,0.0,0.0,0.0,0.0,0.0,0.0,5.5876,5.6164,5.6496,5.6484,5.6064,5.5207,5.5656,5.5402,5.4211,5.4899,5.4453,5.2715,5.2695,5.2266,5.1406,5.1406,5.1406,5.1367,5.0566,5.0078,4.9785,4.8828,4.8281,0.0,4.7383,4.7109,4.7051,4.6504,4.6308,4.6308,4.6308,4.6308,4.6308,0.0,0.0,0.0,0.0,0.0,0.0,0.0,0.0,0.0,0.0,0.0,0.0,0.0,0.0,0.0,0.0,0.0,0.0,0.0,0.0,0.0,0.0,0.0,0.0,0.0,0.0,0.0,0.0,0.0,0.0,0.0,0.0,0.0,0.0,0.0,0.0,0.0,0.0,0.0,0.0,0.0,0.0,0.0,0.0,0.0,0.0,0.0,0.0,0.0,0.0,0.0,0.0,0.0,0.0,0.0,0.0,0.0,0.0,0.0,0.0,0.0,0.0,0.0,0.0,0.0,0.0,0.0,0.0,4.5603,4.564,4.5789,4.5861,4.5944,0.0,0.0,0.0,0.0,0.0,0.0,0.0,0.0,0.0,5.3827,5.4562,5.5327,5.6149,5.6085,5.5652,5.4859,5.482,5.4042,5.2344,5.4112,5.4276,5.2596,5.2596,5.2186,5.1386,5.1386,5.1346,5.1269,5.0585,5.0586,0.0,4.8691,4.8086,4.8594,4.6973,4.6308,4.6308,4.6308,4.6308,4.6308,4.6308,4.6308,4.6308,0.0,0.0,0.0,0.0,0.0,0.0,0.0,0.0,0.0,0.0,0.0,0.0,0.0,0.0,0.0,0.0,0.0,0.0,0.0,0.0,0.0,0.0,0.0,0.0,0.0,0.0,0.0,0.0,0.0,0.0,0.0,0.0,0.0,0.0,0.0,0.0,0.0,0.0,0.0,0.0,0.0,0.0,0.0,0.0,0.0,0.0,4.0096,4.0096,0.0,0.0,0.0,0.0,0.0,0.0,0.0,0.0,4.248,0.0,0.0,0.0,0.0,0.0,0.0,0.0,0.0,0.0,0.0,0.0,0.0,0.0,0.0,0.0,0.0,0.0,0.0,0.0,0.0,0.0,0.0,0.0,0.0,5.4062,5.2896,5.3487,5.405,5.4245,5.4237,5.4125,5.393,5.3911,5.34,5.2325,5.2753,5.2504,5.1487,5.1487,5.137,5.1172,5.1172,5.0825,5.0192,5.0716,4.9993,4.8356,4.8514,4.7949,4.6875,4.6465,4.6308,4.6308,4.6308,4.6308,4.6308,4.6308,4.6308,4.6308,0.0,0.0,0.0,0.0,0.0,0.0,0.0,0.0,0.0,0.0,0.0,0.0,0.0,0.0,0.0,0.0,0.0,0.0,0.0,0.0,0.0,0.0,0.0,0.0,0.0,0.0,0.0,0.0,0.0,0.0,0.0,0.0,0.0,0.0,0.0,0.0,0.0,0.0,0.0,0.0,0.0,0.0,0.0,0.0,0.0,0.0,4.0096,4.0096,0.0,4.0726,4.0903,4.1018,0.0,0.0,0.0,0.0,4.2711,0.0,0.0,0.0,0.0,0.0,0.0,0.0,0.0,0.0,0.0,0.0,0.0,0.0,0.0,0.0,0.0,0.0,0.0,0.0,0.0,0.0,0.0,0.0,5.2643,5.3346,0.0,5.3152,5.3086,5.3475,5.3455,5.325,5.2843,5.2824,5.2436,5.1584,5.1564,5.1425,5.1108,5.1089,5.0899,5.0495,5.0495,5.0053,4.9225,4.973,4.9246,4.8008,4.8149,4.7711,4.6875,4.6465,4.6308,4.6308,4.6308,4.6308,4.6308,4.6308,4.6308,4.6308,0.0,0.0,0.0,0.0,0.0,0.0,0.0,0.0,0.0,0.0,0.0,0.0,0.0,0.0,0.0,0.0,0.0,0.0,0.0,0.0,0.0,0.0,0.0,0.0,0.0,0.0,0.0,0.0,0.0,0.0,0.0,0.0,0.0,0.0,0.0,0.0,0.0,0.0,0.0,0.0,0.0,0.0,0.0,0.0,0.0,0.0,0.0,0.0,0.0,4.085,4.111,4.1291,4.1877,0.0,0.0,0.0,0.0,0.0,0.0,0.0,0.0,0.0,0.0,0.0,0.0,0.0,0.0,0.0,0.0,0.0,0.0,0.0,0.0,0.0,0.0,0.0,0.0,0.0,0.0,0.0,5.1799,0.0,5.408,5.2826,5.2179,5.293,5.2761,5.2299,5.1558,5.1385,5.101,5.0327,5.0308,5.04,5.0637,5.0914,5.0662,4.9934,4.9798,4.9278,4.8448,4.8468,4.8402,4.8245,0.0,0.0,4.7344,4.6601,4.6308,4.6308,4.6308,4.6308,4.6308,4.6308,4.6308,4.6308,0.0,0.0,0.0,0.0,0.0,0.0,0.0,0.0,0.0,0.0,0.0,0.0,0.0,0.0,0.0,0.0,0.0,0.0,0.0,0.0,0.0,0.0,0.0,0.0,0.0,0.0,0.0,0.0,0.0,0.0,0.0,0.0,0.0,0.0,0.0,0.0,0.0,0.0,0.0,0.0,0.0,0.0,0.0,0.0,0.0,0.0,0.0,0.0,0.0,4.1468,4.2,4.2519,4.3069,0.0,0.0,0.0,0.0,0.0,4.3952,4.5263,0.0,0.0,0.0,0.0,0.0,0.0,0.0,0.0,0.0,0.0,0.0,0.0,0.0,0.0,0.0,0.0,0.0,0.0,5.3655,5.229,0.0,5.2612,5.1468,5.1086,5.0961,5.1096,5.0404,4.9913,4.9798,4.9086,4.8625,4.8509,4.8509,4.8527,4.8559,5.0014,5.0689,5.0554,4.9802,4.9011,4.8163,4.8273,4.7598,4.636,0.0,4.7054,4.6484,4.6367,4.6308,4.6308,4.6308,4.6308,4.6308,4.6308,4.6308,4.6308,0.0,0.0,0.0,0.0,0.0,0.0,0.0,0.0,0.0,0.0,0.0,0.0,0.0,0.0,0.0,0.0,0.0,0.0,0.0,0.0,0.0,0.0,0.0,0.0,0.0,0.0,0.0,0.0,0.0,0.0,0.0,0.0,0.0,0.0,0.0,0.0,0.0,0.0,0.0,0.0,0.0,0.0,0.0,0.0,0.0,0.0,0.0,0.0,0.0,0.0,4.248,4.2788,4.3321,0.0,0.0,0.0,0.0,0.0,4.4548,4.5294,4.6012,0.0,0.0,0.0,0.0,0.0,0.0,0.0,0.0,0.0,0.0,0.0,0.0,0.0,0.0,5.1342,5.2085,5.2473,5.2683,0.0,0.0,5.198,5.2039,5.1221,5.05,5.0029,4.9625,4.9183,4.8721,4.8317,4.8105,4.8105,4.8105,4.8105,4.8105,4.8894,4.9086,4.8644,4.824,4.7586,4.6749,4.6802,4.6472,4.5859,0.0,4.6445,4.62,4.6268,4.6308,4.6308,4.6308,4.6308,4.6308,4.6308,4.6308,4.6308,0.0,0.0,0.0,0.0,0.0,0.0,0.0,0.0,0.0,0.0,0.0,0.0,0.0,0.0,0.0,0.0,0.0,0.0,0.0,0.0,0.0,0.0,0.0,0.0,0.0,0.0,0.0,0.0,0.0,0.0,0.0,0.0,0.0,0.0,0.0,0.0,0.0,0.0,0.0,0.0,0.0,0.0,0.0,0.0,0.0,0.0,0.0,0.0,0.0,0.0,0.0,0.0,0.0,0.0,0.0,0.0,4.4346,4.4781,4.5061,4.5492,4.6061,0.0,0.0,0.0,0.0,0.0,0.0,0.0,0.0,0.0,0.0,0.0,0.0,0.0,5.148,5.2039,5.2597,5.2092,5.2043,5.3088,5.1895,5.1491,5.2779,5.1375,5.0106,4.9452,4.9048,4.8529,4.7855,4.7625,4.7509,4.7509,4.7509,4.7509,4.7509,4.7509,4.7394,4.7173,4.6981,4.6547,4.5893,4.5691,4.5673,4.5809,4.5867,4.5981,4.6113,4.6247,4.6308,4.6308,4.6308,4.6308,4.6308,4.6308,4.6308,4.6308,0.0,0.0,0.0,0.0,0.0,0.0,0.0,0.0,0.0,0.0,0.0,0.0,0.0,0.0,0.0,0.0,0.0,0.0,0.0,0.0,0.0,0.0,0.0,0.0,0.0,0.0,0.0,0.0,0.0,0.0,0.0,0.0,0.0,0.0,0.0,0.0,0.0,0.0,0.0,0.0,0.0,0.0,0.0,0.0,0.0,0.0,0.0,0.0,0.0,0.0,0.0,0.0,0.0,0.0,0.0,0.0,4.4508,4.5091,4.5246,4.6656,4.7939,4.7344,0.0,0.0,0.0,0.0,0.0,0.0,0.0,0.0,0.0,0.0,0.0,5.0678,5.2856,5.4418,5.4341,0.0,5.3973,5.328,5.2385,5.1865,5.1981,5.0491,4.9471,4.9394,4.7971,4.7038,4.6981,4.622,4.5787,4.5787,4.5787,4.5787,4.5787,4.5787,4.6528,4.8009,4.7259,4.6865,4.6778,4.597,4.5673,4.5809,4.5867,4.5981,4.6113,4.6247,4.6308,4.6308,4.6308,4.6308,4.6308,4.6308,4.6308,4.6308,0.0,0.0,0.0,0.0,0.0,0.0,0.0,0.0,0.0,0.0,0.0,0.0,0.0,0.0,0.0,0.0,0.0,0.0,0.0,0.0,0.0,0.0,0.0,0.0,0.0,0.0,0.0,0.0,0.0,0.0,0.0,0.0,0.0,0.0,0.0,0.0,0.0,0.0,0.0,0.0,0.0,0.0,0.0,0.0,0.0,0.0,0.0,0.0,0.0,0.0,4.3321,0.0,0.0,0.0,0.0,0.0,4.5033,4.5447,4.5561,4.6167,4.6848,4.7221,0.0,0.0,0.0,0.0,0.0,0.0,0.0,0.0,0.0,0.0,0.0,5.1457,5.2771,5.3947,5.4425,5.403,5.3568,5.3241,5.2423,5.1904,5.1904,5.0875,4.976,4.8663,4.8009,4.7201,4.6144,4.5787,4.5594,4.5594,4.5594,4.5594,4.5594,4.5594,4.5922,4.6528,4.624,4.6086,4.6086,4.5748,4.5618,4.5677,4.5825,4.5924,4.5992,4.6202,4.6308,4.6308,4.6308,4.6308,4.6308,4.6308,4.6308,4.6308,0.0,0.0,0.0,0.0,0.0,0.0,0.0,0.0,0.0,0.0,0.0,0.0,0.0,0.0,0.0,0.0,0.0,0.0,0.0,0.0,0.0,0.0,0.0,0.0,0.0,0.0,0.0,0.0,0.0,0.0,0.0,0.0,0.0,0.0,0.0,0.0,0.0,0.0,0.0,0.0,0.0,4.1133,0.0,0.0,0.0,0.0,0.0,0.0,0.0,0.0,0.0,0.0,0.0,0.0,0.0,0.0,0.0,4.5685,4.5796,4.5853,0.0,0.0,0.0,0.0,0.0,0.0,0.0,0.0,0.0,0.0,0.0,0.0,0.0,0.0,5.2635,5.3414,5.401,5.3337,5.2702,5.2433,5.1645,5.1096,5.1096,5.0125,4.9009,4.7817,4.7471,4.6817,4.5671,4.5594,4.5594,4.5594,4.5594,4.5594,4.5594,4.5594,4.5594,4.5594,4.5594,4.5594,4.5594,4.5594,4.5594,4.562,4.5803,4.5899,4.5916,4.6198,4.6308,4.6308,4.6308,4.6308,4.6308,4.6308,4.6308,4.6308,0.0,0.0,0.0,0.0,0.0,0.0,0.0,0.0,0.0,0.0,0.0,0.0,0.0,0.0,0.0,0.0,0.0,0.0,0.0,0.0,0.0,0.0,0.0,0.0,0.0,0.0,0.0,0.0,0.0,0.0,0.0,0.0,0.0,0.0,0.0,0.0,0.0,0.0,0.0,0.0,4.0903,4.1621,4.2711,0.0,0.0,0.0,0.0,0.0,0.0,0.0,4.4016,0.0,0.0,0.0,0.0,0.0,4.5433,4.5815,4.5886,4.5995,0.0,0.0,0.0,0.0,0.0,0.0,0.0,0.0,0.0,0.0,0.0,0.0,0.0,5.1615,5.2596,5.3183,5.3203,5.2423,5.1587,5.0789,4.9913,4.9394,4.9394,4.7894,4.6904,4.6904,4.6105,4.5614,4.5594,4.5594,4.5594,4.5594,4.5594,4.5594,4.5594,4.5594,4.5594,4.5594,4.5594,4.5594,4.5594,4.5594,4.5594,4.5601,4.5803,4.5899,4.592,4.6198,4.6308,4.6308,4.6308,4.6308,4.6308,4.6308,4.6308,4.6308,0.0,0.0,0.0,0.0,0.0,0.0,0.0,0.0,0.0,0.0,0.0,0.0,0.0,0.0,0.0,0.0,0.0,0.0,0.0,0.0,0.0,0.0,0.0,0.0,0.0,0.0,0.0,0.0,0.0,0.0,0.0,0.0,0.0,0.0,0.0,0.0,0.0,0.0,0.0,0.0,4.1358,4.2,4.275,0.0,0.0,0.0,0.0,0.0,0.0,0.0,0.0,0.0,0.0,0.0,0.0,4.5371,4.5618,4.5815,4.5886,0.0,0.0,0.0,0.0,0.0,0.0,0.0,0.0,0.0,0.0,0.0,0.0,0.0,0.0,5.0971,5.126,5.1645,5.2212,5.1048,5.0048,4.9798,4.9029,4.849,4.849,4.8048,4.7509,4.6942,4.6663,4.624,4.5633,4.5594,4.5594,4.5594,4.5594,4.5594,4.5594,4.5594,4.5594,4.5594,4.5594,4.5594,4.5594,4.5594,4.564,4.5754,4.5846,4.5944,4.6047,4.6225,4.6308,4.6308,4.6308,4.6308,4.6308,4.6308,4.6308,4.6308,0.0,0.0,0.0,0.0,0.0,0.0,0.0,0.0,0.0,0.0,0.0,0.0,0.0,0.0,0.0,0.0,0.0,0.0,0.0,0.0,0.0,0.0,0.0,0.0,0.0,0.0,0.0,0.0,0.0,0.0,0.0,0.0,0.0,0.0,0.0,0.0,0.0,0.0,0.0,4.1291,4.1643,4.2304,4.3069,0.0,0.0,0.0,0.0,0.0,0.0,0.0,0.0,0.0,0.0,0.0,0.0,4.5605,4.5763,4.585,4.5955,0.0,0.0,0.0,0.0,0.0,0.0,0.0,0.0,0.0,0.0,0.0,0.0,0.0,0.0,5.1068,5.0914,5.0971,5.1788,5.0471,4.9394,4.9394,4.8355,4.7625,4.7625,4.7317,4.6913,4.6413,4.6374,4.6144,4.5633,4.5594,4.5594,4.5594,4.5594,4.5594,4.5594,4.5594,4.5594,4.5594,4.5594,4.5594,4.5594,4.5594,4.5673,4.5816,4.5938,4.6067,4.6196,4.6268,4.6308,4.6308,4.6308,4.6308,4.6308,4.6308,4.6308,4.6289,0.0,0.0,0.0,0.0,0.0,0.0,0.0,0.0,0.0,0.0,0.0,0.0,0.0,0.0,0.0,0.0,0.0,0.0,0.0,0.0,0.0,0.0,0.0,0.0,0.0,0.0,0.0,0.0,0.0,0.0,0.0,0.0,0.0,0.0,0.0,0.0,0.0,0.0,4.1357,4.181,4.181,4.2465,4.3531,4.3791,0.0,0.0,0.0,0.0,0.0,0.0,0.0,0.0,4.5531,0.0,4.5651,4.5769,4.5855,4.5936,0.0,0.0,0.0,0.0,0.0,0.0,0.0,0.0,0.0,0.0,0.0,0.0,0.0,5.0048,5.0029,5.1538,5.1106,5.0837,5.1558,5.024,4.9163,4.9163,4.7759,4.6778,4.6778,4.6067,4.5594,4.5594,4.5594,4.5594,4.5594,4.5594,4.5594,4.5594,4.5594,4.5594,4.5594,4.5594,4.5594,4.5594,4.5594,4.5594,4.5594,4.5594,4.5688,4.5821,4.6037,4.6198,4.6308,4.6308,4.6308,4.6308,4.6308,4.6308,4.6308,4.6308,4.6308,4.6289,0.0,0.0,0.0,0.0,0.0,0.0,0.0,0.0,0.0,0.0,0.0,0.0,0.0,0.0,0.0,0.0,0.0,0.0,0.0,0.0,0.0,0.0,0.0,0.0,0.0,0.0,0.0,0.0,0.0,0.0,0.0,0.0,0.0,0.0,0.0,0.0,0.0,4.0258,4.0899,4.181,4.181,4.2465,4.3475,4.3166,4.3446,0.0,0.0,0.0,0.0,0.0,0.0,0.0,4.5703,4.5761,4.5776,4.5841,4.5963,0.0,0.0,0.0,0.0,0.0,0.0,0.0,0.0,0.0,0.0,0.0,0.0,0.0,5.0712,5.0558,5.0539,5.0894,5.024,4.974,4.9913,4.849,4.7451,4.7451,4.6528,4.5874,4.5874,4.571,4.5594,4.5594,4.5594,4.5594,4.5594,4.5594,4.5594,4.5594,4.5594,4.5594,4.5594,4.5594,4.5594,4.5594,4.5594,4.5594,4.5594,4.5594,4.5706,4.5896,4.6144,4.6269,4.6308,4.6308,4.6308,4.6308,4.6308,4.6308,4.6308,4.6308,4.6308,4.6289,0.0,0.0,0.0,0.0,0.0,0.0,0.0,0.0,0.0,0.0,0.0,0.0,0.0,0.0,0.0,0.0,0.0,0.0,0.0,0.0,0.0,0.0,0.0,0.0,0.0,0.0,0.0,0.0,0.0,0.0,0.0,0.0,0.0,0.0,0.0,0.0,0.0,4.0462,4.0896,4.1402,4.1686,4.2324,4.3105,4.3062,4.3311,4.3702,0.0,0.0,0.0,0.0,0.0,0.0,0.0,0.0,4.5866,4.5967,4.6042,0.0,0.0,0.0,0.0,0.0,0.0,0.0,0.0,0.0,0.0,0.0,0.0,4.9586,4.999,5.0067,4.9933,4.951,4.9413,4.924,4.8836,4.7702,4.6904,4.6904,4.6124,4.5594,4.5594,4.5594,4.5594,4.5594,4.5594,4.5594,4.5594,4.5594,4.5594,4.5594,4.5594,4.5594,4.5594,4.5594,4.5594,4.5594,4.5594,4.5594,4.5603,4.5706,4.5805,4.5912,4.6177,4.6308,4.6308,4.6308,4.6308,4.6308,4.6308,4.6308,4.6308,4.6308,4.6268,4.6196,0.0,0.0,0.0,0.0,0.0,0.0,0.0,0.0,0.0,0.0,0.0,0.0,0.0,0.0,0.0,0.0,0.0,0.0,0.0,0.0,0.0,0.0,0.0,0.0,0.0,0.0,0.0,0.0,0.0,0.0,0.0,0.0,0.0,0.0,0.0,0.0,0.0,4.0757,4.0973,4.0949,4.1446,4.1991,4.2501,0.0,0.0,0.0,0.0,0.0,0.0,4.5117,0.0,0.0,0.0,0.0,4.5772,4.6048,0.0,0.0,0.0,0.0,0.0,0.0,0.0,0.0,0.0,0.0,0.0,0.0,4.8105,4.8317,4.9048,4.9183,4.8933,4.8221,4.8586,4.8721,4.799,4.7201,4.6682,4.6682,4.6028,4.5594,4.5594,4.5594,4.5594,4.5594,4.5594,4.5594,4.5594,4.5594,4.5594,4.5594,4.5594,4.5537,4.5383,4.5383,4.5383,4.5383,4.5537,4.5612,4.5643,4.5828,4.5899,4.5912,4.6177,4.6308,4.6308,4.6308,4.6308,4.6308,4.6308,4.6308,4.6308,4.6269,4.6199,4.608,0.0,0.0,0.0,0.0,0.0,0.0,0.0,0.0,0.0,0.0,0.0,0.0,0.0,0.0,0.0,0.0,0.0,0.0,0.0,0.0,0.0,0.0,0.0,0.0,0.0,0.0,0.0,0.0,0.0,0.0,0.0,0.0,0.0,0.0,0.0,0.0,0.0,0.0,0.0,4.0903,4.0995,0.0,0.0,0.0,0.0,0.0,0.0,0.0,0.0,0.0,4.417,0.0,0.0,0.0,0.0,0.0,0.0,0.0,0.0,0.0,0.0,0.0,0.0,0.0,0.0,0.0,0.0,0.0,4.8105,4.8144,4.8259,4.8279,4.824,4.8125,4.7605,4.7201,4.7077,4.6317,4.5768,4.5768,4.5671,4.5594,4.5594,4.5594,4.5594,4.5594,4.5594,4.5594,4.5594,4.5594,4.5594,4.5594,4.5594,4.5248,4.447,4.447,4.447,4.447,4.5248,4.5657,4.5769,4.5857,4.5899,4.5912,4.6177,4.6308,4.6308,4.6308,4.6308,4.6308,4.6308,4.6308,4.6289,4.6173,4.6115,4.6072,0.0,0.0,0.0,0.0,0.0,0.0,0.0,0.0,0.0,0.0,0.0,0.0,0.0,0.0,0.0,0.0,0.0,0.0,0.0,0.0,0.0,0.0,0.0,0.0,0.0,0.0,0.0,0.0,0.0,0.0,0.0,4.0787,4.0383,0.0,0.0,0.0,0.0,0.0,0.0,0.0,0.0,0.0,0.0,0.0,0.0,0.0,0.0,0.0,0.0,0.0,0.0,0.0,4.4418,0.0,0.0,0.0,0.0,0.0,0.0,0.0,0.0,0.0,0.0,0.0,0.0,0.0,4.6259,4.6624,4.7086,4.7432,4.7432,4.7432,4.7278,4.6778,4.6817,4.674,4.624,4.5845,4.5594,4.5594,4.5594,4.5594,4.5594,4.5594,4.5402,4.4913,4.4874,4.4662,4.422,4.4201,4.4201,4.4201,4.4201,4.4008,4.3624,4.3624,4.3855,4.4297,4.422,4.4766,4.579,4.54,4.5508,4.6011,4.6222,4.6308,4.6308,4.6308,4.6308,4.6308,4.6308,4.6248,4.6175,4.6119,4.6037,4.592,0.0,0.0,0.0,0.0,0.0,0.0,0.0,0.0,0.0,0.0,0.0,0.0,0.0,0.0,0.0,0.0,0.0,0.0,0.0,0.0,0.0,0.0,0.0,0.0,0.0,0.0,0.0,0.0,0.0,0.0,4.1721,4.1324,4.122,0.0,4.0791,0.0,0.0,0.0,0.0,0.0,0.0,0.0,0.0,0.0,0.0,0.0,0.0,0.0,0.0,0.0,0.0,0.0,0.0,0.0,0.0,0.0,0.0,0.0,0.0,0.0,0.0,0.0,0.0,0.0,0.0,0.0,4.5457,0.0,4.606,4.6567,4.6567,4.6759,4.6605,4.5748,4.6144,4.6336,4.5691,4.5594,4.5594,4.5594,4.5594,4.5594,4.5594,4.5402,4.4998,4.4355,4.4105,4.372,4.3124,4.3104,4.3104,4.3104,4.3104,4.2989,4.2777,4.2777,4.3066,4.3662,4.3288,4.3849,4.5186,4.4863,4.5136,4.5836,4.615,4.6308,4.6308,4.6308,4.6308,4.6308,4.6268,4.6198,4.6087,4.603,4.5935,4.5796,0.0,0.0,0.0,0.0,0.0,0.0,0.0,0.0,0.0,0.0,0.0,0.0,0.0,0.0,0.0,0.0,0.0,0.0,0.0,0.0,0.0,0.0,0.0,0.0,0.0,0.0,0.0,0.0,0.0,0.0,4.1521,4.2259,4.2599,4.2577,4.1979,4.1297,4.0567,0.0,0.0,0.0,0.0,0.0,0.0,0.0,0.0,0.0,0.0,0.0,0.0,0.0,0.0,0.0,0.0,0.0,0.0,0.0,0.0,0.0,0.0,0.0,0.0,0.0,0.0,0.0,0.0,0.0,0.0,4.5137,4.541,4.5671,4.5671,4.6336,4.6605,4.5748,4.5633,4.5652,4.5614,4.5594,4.5594,4.5594,4.5594,4.5594,4.5594,4.4855,4.4355,4.4297,4.3585,4.3143,4.3104,4.3104,4.3104,4.3104,4.3104,4.2701,4.1885,4.1865,4.1885,4.195,4.2786,4.33,4.356,4.4412,4.4881,4.5097,4.5937,4.6308,4.6308,4.6308,4.6308,4.6289,4.615,4.611,4.6075,4.5894,4.5816,4.5776,0.0,0.0,0.0,0.0,0.0,0.0,0.0,0.0,0.0,0.0,0.0,0.0,0.0,0.0,0.0,0.0,0.0,0.0,0.0,0.0,0.0,0.0,0.0,0.0,0.0,0.0,0.0,0.0,0.0,4.0467,4.1505,4.2159,4.243,4.2394,4.1453,4.0884,4.058,4.0047,0.0,0.0,0.0,0.0,0.0,0.0,0.0,0.0,0.0,0.0,0.0,0.0,0.0,0.0,0.0,0.0,0.0,0.0,0.0,0.0,0.0,0.0,0.0,0.0,0.0,0.0,4.438,4.4722,4.4849,4.5063,4.5602,4.5955,4.5664,4.5864,4.5951,4.5652,4.5594,4.5594,4.5594,4.5594,4.5594,4.5594,4.5594,4.5383,4.4816,4.447,4.3855,4.2777,4.2431,4.2027,4.1458,4.1439,4.1439,4.1439,4.1439,4.1277,4.0969,4.0969,4.1289,4.1924,4.1693,4.2277,4.3515,4.3307,4.3558,4.4219,4.5098,4.5781,4.6308,4.6308,4.6247,4.6173,4.6117,4.6011,4.5896,4.5828,4.5747,4.5665,0.0,0.0,0.0,0.0,0.0,0.0,0.0,0.0,0.0,0.0,0.0,0.0,0.0,0.0,0.0,0.0,0.0,0.0,0.0,0.0,0.0,0.0,0.0,0.0,0.0,0.0,0.0,0.0,0.0,0.0,0.0,0.0,4.1901,4.1849,4.0817,0.0,0.0,0.0,0.0,3.8761,0.0,0.0,3.7022,0.0,0.0,0.0,0.0,0.0,0.0,0.0,0.0,0.0,0.0,0.0,0.0,0.0,0.0,0.0,0.0,0.0,0.0,0.0,0.0,0.0,4.4125,0.0,4.4304,4.4827,4.5449,4.5842,4.5646,4.5594,4.5568,4.5448,4.5342,4.5293,4.5419,4.5342,4.5352,4.5577,4.5504,4.5131,4.4365,4.4066,4.3316,4.1904,4.1527,0.0,4.0535,4.0496,4.0496,4.0496,4.0496,4.0496,4.0496,4.0537,4.0899,4.1569,4.1048,4.1482,4.2711,4.2456,4.2825,4.375,4.4568,4.5291,4.5879,4.613,4.6175,4.6084,4.6037,4.592,4.579,4.5754,4.568,4.5594,0.0,0.0,0.0,0.0,0.0,0.0,0.0,0.0,0.0,0.0,0.0,0.0,0.0,0.0,0.0,0.0,0.0,0.0,0.0,0.0,0.0,0.0,0.0,0.0,0.0,0.0,0.0,0.0,0.0,0.0,0.0,0.0,4.1095,0.0,4.0267,4.0322,4.1038,0.0,4.0595,3.969,0.0,3.6976,3.769,0.0,0.0,0.0,3.7318,3.7328,0.0,0.0,0.0,0.0,0.0,0.0,0.0,0.0,0.0,0.0,0.0,0.0,0.0,0.0,0.0,0.0,4.2988,0.0,4.3516,4.441,4.4842,4.5152,4.5522,4.5586,4.5485,4.5129,4.4825,4.472,4.5074,4.4825,4.4861,4.5513,4.5293,4.484,4.4318,4.3547,4.2701,4.1827,4.0969,4.0496,4.0496,4.0496,4.0496,4.0496,4.0496,4.0496,4.0504,4.0604,4.0684,4.0715,4.0874,4.0976,4.1039,4.1949,4.2832,4.3672,4.4431,4.4845,4.5019,4.5776,4.6087,4.6072,4.5883,4.5796,4.5769,4.5651,4.5594,4.5594,0.0,0.0,0.0,0.0,0.0,0.0,0.0,0.0,0.0,0.0,0.0,0.0,0.0,0.0,0.0,0.0,0.0,0.0,0.0,0.0,0.0,0.0,0.0,0.0,0.0,0.0,0.0,0.0,0.0,0.0,0.0,0.0,0.0,0.0,4.0267,3.9801,3.9637,3.9643,0.0,0.0,3.8315,3.7624,0.0,0.0,0.0,0.0,0.0,3.6118,0.0,0.0,3.8136,3.9319,0.0,0.0,0.0,0.0,0.0,0.0,3.9141,0.0,0.0,0.0,0.0,0.0,0.0,0.0,4.2548,4.4258,4.4178,4.4101,4.5057,4.5232,4.5129,4.4781,4.4861,4.5085,4.5419,4.4966,4.4861,4.5513,4.4747,4.3969,4.3483,4.2662,4.1797,0.0,4.065,4.0496,4.0496,4.0496,4.0496,4.0496,4.0496,4.0545,4.063,4.0068,4.0155,4.0902,4.0335,4.0447,4.1149,4.1406,4.166,4.1972,4.3336,4.3948,4.4094,4.5417,4.5938,4.5883,4.5815,4.574,4.566,4.5612,4.5594,4.5594,0.0,0.0,0.0,0.0,0.0,0.0,0.0,0.0,0.0,0.0,0.0,0.0,0.0,0.0,0.0,0.0,0.0,0.0,0.0,0.0,0.0,0.0,0.0,0.0,0.0,0.0,0.0,0.0,0.0,0.0,0.0,0.0,0.0,0.0,0.0,0.0,0.0,0.0,0.0,0.0,3.7826,0.0,0.0,3.6501,3.5989,0.0,0.0,0.0,3.674,3.6421,3.7531,0.0,0.0,0.0,0.0,0.0,0.0,0.0,0.0,0.0,0.0,0.0,0.0,0.0,4.2648,4.209,4.1708,4.324,4.3158,4.3175,4.4377,4.4582,4.4611,4.4792,4.4701,4.483,4.5322,4.4943,4.4861,4.5513,4.4862,4.4152,4.3656,4.2835,4.1989,4.1104,4.0708,4.0496,4.0496,4.0496,4.0342,4.0015,3.9996,3.9856,3.9573,3.9152,3.9244,3.9867,3.9815,4.0091,4.0664,4.1035,4.1366,4.1711,4.2581,4.3156,4.3522,4.4741,4.546,4.579,4.5733,4.5665,4.5594,4.5594,4.5594,4.5594,0.0,0.0,0.0,0.0,0.0,0.0,0.0,0.0,0.0,0.0,0.0,0.0,0.0,0.0,0.0,0.0,0.0,0.0,0.0,0.0,0.0,0.0,0.0,0.0,0.0,0.0,0.0,0.0,0.0,0.0,0.0,0.0,0.0,0.0,0.0,0.0,0.0,0.0,0.0,3.8029,3.6684,3.7119,0.0,0.0,3.6755,0.0,3.6769,3.691,3.7141,3.6047,3.6794,0.0,0.0,0.0,0.0,0.0,3.6203,0.0,0.0,0.0,0.0,0.0,0.0,0.0,4.1789,4.1321,4.0902,4.1738,4.1933,4.2319,4.3499,4.3751,4.4045,4.4786,4.442,4.4304,4.4954,4.4707,4.4745,4.5457,4.5166,4.4732,4.4329,4.3489,4.2624,4.1865,4.0989,4.0458,4.0362,4.0362,3.9996,3.9188,3.9165,3.8801,3.8033,3.8122,3.8228,3.8338,3.9206,3.9668,3.9785,4.0664,4.1401,4.2009,4.2064,4.2481,4.3137,4.3964,4.4824,4.564,4.5613,4.5594,4.5594,4.5594,4.5577,4.5531,0.0,0.0,0.0,0.0,0.0,0.0,0.0,0.0,0.0,0.0,0.0,0.0,0.0,0.0,0.0,0.0,0.0,0.0,0.0,0.0,0.0,0.0,0.0,0.0,0.0,0.0,0.0,0.0,0.0,0.0,0.0,0.0,0.0,0.0,0.0,0.0,0.0,0.0,0.0,3.7205,3.7487,0.0,3.7308,3.6936,3.6485,3.6036,3.5926,3.5957,3.6132,0.0,3.7101,3.7365,0.0,0.0,0.0,0.0,0.0,0.0,0.0,0.0,0.0,0.0,0.0,0.0,3.9182,3.949,4.0,4.0611,4.0961,4.1402,4.23,4.3198,4.3759,4.3667,4.4133,4.454,4.467,4.414,4.4076,4.5085,4.4288,4.3817,4.4254,4.2951,4.1981,4.1808,4.0989,4.0227,3.9573,3.9534,3.915,3.8277,3.8318,3.8308,3.8242,3.7634,3.7739,3.8549,3.8046,3.8164,3.8887,3.9766,4.017,4.0288,4.1555,4.2146,4.2331,4.3732,4.4419,4.4652,4.5342,4.5594,4.5594,4.5594,4.5429,4.5201,0.0,0.0,0.0,0.0,0.0,0.0,0.0,0.0,0.0,0.0,0.0,0.0,0.0,0.0,0.0,0.0,0.0,0.0,0.0,0.0,0.0,0.0,0.0,0.0,0.0,0.0,0.0,0.0,0.0,0.0,0.0,0.0,0.0,0.0,0.0,0.0,0.0,0.0,3.5739,3.6336,3.6696,0.0,3.6954,3.6479,3.5792,3.5097,3.5097,3.5097,3.5246,3.6213,3.7111,0.0,0.0,3.7205,3.7562,0.0,3.5671,3.58,0.0,0.0,0.0,3.7777,0.0,0.0,0.0,3.8255,3.8588,3.8737,3.8999,3.945,4.0293,4.1254,4.1982,4.2257,4.2862,4.329,4.329,4.3893,4.4561,4.5263,4.4819,4.44,4.4318,4.3181,4.2085,4.1219,4.0381,3.9727,3.9323,3.8892,3.8257,3.7373,3.7442,3.7322,3.6966,3.6654,3.675,3.7258,3.7284,3.7539,3.7988,3.9233,3.9754,3.9727,4.0896,4.1592,4.1991,4.3203,4.3932,4.4393,4.5267,4.5594,4.5577,4.541,4.5243,4.5074,0.0,0.0,0.0,0.0,0.0,0.0,0.0,0.0,0.0,0.0,0.0,0.0,0.0,0.0,0.0,0.0,0.0,0.0,0.0,0.0,0.0,0.0,0.0,4.0765,0.0,0.0,0.0,0.0,0.0,0.0,0.0,0.0,0.0,0.0,0.0,0.0,0.0,0.0,0.0,3.5732,0.0,3.6178,3.6738,3.6008,3.5248,3.452,3.4342,3.4283,3.4467,3.5545,0.0,3.7746,3.6777,3.7231,0.0,0.0,0.0,0.0,0.0,0.0,0.0,0.0,0.0,3.7629,0.0,0.0,0.0,3.689,3.7173,0.0,0.0,0.0,0.0,4.0671,0.0,0.0,0.0,4.3445,0.0,4.5207,4.512,4.4888,4.4586,4.3662,4.2316,4.0419,3.9669,3.915,3.8815,3.8123,3.7368,3.6517,3.6618,3.6333,3.5663,3.5829,3.5914,3.5934,3.6697,3.7031,3.7088,3.8707,3.9408,3.9371,4.0477,4.128,4.1885,4.2912,4.3675,4.4285,4.5158,4.5504,4.5457,4.5129,4.4954,4.4842,0.0,0.0,0.0,0.0,0.0,0.0,0.0,0.0,0.0,0.0,0.0,0.0,0.0,0.0,0.0,0.0,0.0,0.0,3.7916,0.0,0.0,0.0,0.0,0.0,3.9132,0.0,0.0,0.0,0.0,0.0,0.0,0.0,0.0,0.0,3.6634,0.0,0.0,0.0,3.5758,0.0,3.5949,3.6033,0.0,3.5949,3.537,3.4588,3.3807,3.3514,3.3787,0.0,3.6071,3.6417,0.0,3.7683,0.0,0.0,0.0,0.0,0.0,0.0,0.0,0.0,3.6846,0.0,0.0,0.0,3.7147,3.5925,0.0,0.0,0.0,0.0,0.0,0.0,0.0,0.0,4.133,4.2195,4.3094,4.3908,4.3316,4.3541,4.528,4.4028,4.2085,3.9631,3.9361,3.8623,3.7084,3.6904,3.6498,3.5753,3.5806,3.5843,3.5864,3.5948,3.5995,3.5995,3.6094,3.6129,3.6124,3.7794,3.8442,3.8391,4.082,4.184,4.1923,4.3508,4.4029,4.3946,4.4815,4.5169,4.5107,4.4769,4.4428,4.4117,0.0,0.0,0.0,0.0,0.0,0.0,0.0,0.0,0.0,0.0,0.0,0.0,0.0,0.0,0.0,0.0,0.0,3.8639,0.0,0.0,0.0,0.0,0.0,0.0,0.0,0.0,0.0,0.0,3.9427,0.0,0.0,0.0,0.0,0.0,3.7398,0.0,3.6178,0.0,0.0,0.0,0.0,0.0,0.0,3.5407,3.4392,3.3144,3.2266,3.2225,3.2706,0.0,3.4635,0.0,0.0,0.0,0.0,0.0,0.0,0.0,0.0,0.0,0.0,0.0,0.0,0.0,3.525,0.0,3.609,0.0,0.0,0.0,0.0,0.0,0.0,0.0,3.8143,0.0,0.0,0.0,4.1533,0.0,0.0,0.0,4.4115,4.2604,4.0958,3.9419,3.8834,3.8007,3.6769,3.6293,3.5913,3.5605,3.5746,3.5841,3.5901,3.5972,3.5996,3.5996,3.5951,3.6171,3.6637,3.7725,3.8452,3.8938,4.0474,4.1535,4.225,4.2967,4.3647,4.4277,4.4416,4.46,4.4757,4.4387,4.4132,4.3971,0.0,0.0,0.0,0.0,0.0,0.0,0.0,0.0,0.0,0.0,0.0,0.0,4.0096,3.9584,0.0,0.0,0.0,3.918,0.0,0.0,3.9579,0.0,0.0,0.0,0.0,0.0,0.0,0.0,0.0,0.0,0.0,0.0,0.0,0.0,0.0,3.7158,3.6591,0.0,0.0,3.5921,3.5975,3.5703,3.5194,3.459,3.3437,3.2029,3.115,3.1178,3.1693,3.2163,3.3526,0.0,3.513,0.0,0.0,0.0,0.0,0.0,3.7392,0.0,0.0,0.0,0.0,0.0,0.0,0.0,0.0,0.0,0.0,0.0,0.0,0.0,0.0,0.0,0.0,3.6895,0.0,3.8606,0.0,0.0,0.0,0.0,0.0,4.1978,4.0714,3.9429,3.8535,3.7564,3.643,3.5877,3.5606,3.5626,3.6045,3.6142,3.5938,3.6209,3.623,3.5974,3.5917,3.6294,3.7069,3.7778,3.8529,3.9294,4.0292,4.1351,4.2414,4.2623,4.3388,4.4419,4.4102,4.4121,4.4252,4.3974,4.3865,4.3836,0.0,4.0096,0.0,0.0,0.0,0.0,0.0,0.0,0.0,0.0,0.0,0.0,0.0,0.0,0.0,0.0,0.0,3.8997,3.9022,0.0,3.8591,0.0,0.0,4.0135,0.0,0.0,0.0,3.99,3.9365,3.9282,0.0,0.0,0.0,0.0,0.0,3.6565,3.5937,3.59,3.5942,3.5996,3.5996,3.4957,3.3398,0.0,3.2847,3.1889,3.1029,0.0,0.0,3.2586,3.3122,0.0,0.0,0.0,0.0,0.0,0.0,0.0,0.0,0.0,0.0,3.7969,0.0,0.0,0.0,0.0,3.5025,0.0,0.0,0.0,0.0,0.0,0.0,0.0,0.0,0.0,0.0,0.0,0.0,0.0,0.0,0.0,0.0,4.315,4.2072,3.9589,3.8648,3.7414,3.5629,3.5587,3.563,3.5696,3.6655,3.6781,3.5996,3.6836,3.6793,3.5903,3.5903,3.6245,3.6933,3.7735,3.836,3.8899,4.0559,4.1594,4.2177,4.2957,4.3565,4.4031,4.4016,4.382,4.3531,4.3513,4.3513,4.3513,0.0,0.0,0.0,0.0,0.0,0.0,0.0,4.0435,0.0,0.0,0.0,0.0,0.0,0.0,4.0096,0.0,0.0,3.9537,3.9022,3.9469,0.0,0.0,0.0,4.0757,0.0,0.0,0.0,3.99,4.0108,4.0008,0.0,0.0,0.0,0.0,0.0,3.7403,0.0,0.0,0.0,0.0,0.0,3.5213,3.411,0.0,0.0,3.1033,3.074,3.0594,0.0,3.1204,3.1739,3.2295,3.3174,3.3794,3.4263,3.4545,3.543,0.0,0.0,0.0,3.7142,3.7142,0.0,0.0,0.0,0.0,0.0,0.0,0.0,0.0,0.0,0.0,0.0,0.0,0.0,0.0,0.0,0.0,0.0,0.0,0.0,0.0,0.0,0.0,4.0213,3.8773,3.789,3.6866,3.5637,3.6266,3.6631,3.657,3.759,3.7949,3.7598,3.7347,3.7033,3.6612,3.5993,3.6319,3.7429,3.7621,3.8297,3.9367,3.9927,4.0783,4.1781,4.2057,4.2761,4.3679,4.3679,4.3597,4.3515,4.3515,4.3515,4.3515,4.0392,0.0,0.0,0.0,0.0,0.0,0.0,0.0,0.0,0.0,4.1003,0.0,4.0782,0.0,4.015,0.0,3.9834,3.9668,3.921,3.9686,0.0,3.7866,4.0101,0.0,0.0,0.0,0.0,0.0,4.0544,4.0464,0.0,0.0,0.0,0.0,0.0,0.0,0.0,0.0,3.5995,0.0,0.0,3.512,0.0,0.0,3.2307,3.1024,0.0,3.0784,3.0453,3.0453,3.0816,3.1288,3.1602,3.2237,3.2852,3.2891,3.3853,3.4942,3.5026,3.5635,0.0,3.6269,3.6096,0.0,3.5577,0.0,0.0,0.0,0.0,0.0,0.0,0.0,0.0,0.0,0.0,0.0,0.0,3.6033,0.0,0.0,0.0,0.0,0.0,0.0,3.9523,3.84,3.7498,3.6598,3.5687,3.6632,3.7158,3.7061,3.8317,3.8795,3.8395,3.8163,3.7686,3.696,3.6258,3.6511,3.7622,3.7432,3.8104,3.9414,3.9414,4.0184,4.1415,4.1415,4.2237,4.3515,4.3515,4.3515,4.3515,4.3515,4.3515,4.3515,0.0,0.0,0.0,0.0,4.1455,0.0,0.0,0.0,4.1729,0.0,4.1729,4.1424,4.0657,4.0565,4.0223,3.9481,3.9411,0.0,3.9438,3.9578,0.0,0.0,3.9487,3.9899,3.8433,0.0,0.0,0.0,0.0,0.0,0.0,0.0,0.0,0.0,3.8366,0.0,3.6055,3.6055,3.5989,3.5875,3.5752,3.4676,3.3151,3.3165,3.259,3.1787,3.1748,3.1162,3.0404,3.0404,3.0404,3.0538,3.1365,3.1077,3.0712,3.2314,3.2275,3.2045,3.3648,3.4737,3.5442,3.5442,3.6038,0.0,0.0,0.0,3.5141,0.0,0.0,0.0,0.0,0.0,0.0,0.0,0.0,0.0,0.0,0.0,0.0,0.0,0.0,0.0,0.0,4.0545,3.9889,3.8359,3.7461,3.6632,0.0,3.674,3.7312,3.7251,3.8882,3.9351,3.8528,3.9234,3.8708,3.695,3.6678,3.688,3.7461,3.7234,3.7838,3.9085,3.9085,3.9845,4.1095,4.1095,4.2047,4.3515,4.3515,4.3515,4.3515,4.3515,4.3515,4.3515,4.149,4.2041,4.2559,0.0,4.2096,4.1661,0.0,0.0,0.0,0.0,4.0889,4.0537,4.034,3.9935,3.9623,3.9428,3.9411,0.0,0.0,0.0,0.0,3.6801,3.9022,3.9704,3.8435,4.0993,0.0,4.1274,0.0,0.0,4.0968,0.0,0.0,0.0,0.0,0.0,3.6894,3.6894,3.644,3.5749,3.565,3.4967,0.0,0.0,3.3016,3.1642,3.0987,3.0593,3.0404,3.0404,3.0404,3.0442,3.0654,3.0577,3.0481,3.0923,3.1346,3.1795,3.2218,3.341,3.4526,3.4526,3.518,3.575,0.0,0.0,0.0,0.0,0.0,0.0,0.0,0.0,0.0,0.0,0.0,0.0,0.0,0.0,0.0,0.0,0.0,0.0,0.0,3.8327,3.7784,3.7369,3.7211,3.6714,3.5754,0.0,3.886,3.8112,3.9761,4.0506,4.0192,3.9703,3.8866,3.7705,3.7408,3.7233,3.7209,3.7546,3.8106,3.8803,3.8803,3.9682,4.1095,4.1095,4.2047,4.3515,4.3515,4.3515,4.3515,4.3515,4.3515,4.3515,4.2062,0.0,0.0,4.3677,0.0,0.0,4.2762,0.0,0.0,4.1609,4.1156,0.0,4.0123,3.9806,3.9481,3.9121,3.9085,0.0,3.8996,0.0,0.0,3.7627,3.8939,3.9211,3.8203,4.004,0.0,4.129,0.0,0.0,4.1493,0.0,0.0,0.0,0.0,3.8743,0.0,3.7141,3.655,3.5646,3.5574,0.0,0.0,3.3641,3.2583,3.1077,3.0577,3.0404,3.0404,3.0404,3.0404,3.0404,3.0404,3.0404,3.0404,3.0404,3.075,3.1135,3.1135,3.2352,3.3622,3.3622,3.4564,3.55,3.55,3.55,3.5534,0.0,3.4931,3.4331,0.0,0.0,0.0,0.0,0.0,0.0,0.0,0.0,0.0,0.0,0.0,0.0,0.0,3.7157,3.7041,3.7441,3.723,3.6857,0.0,0.0,3.9372,3.8437,4.0393,4.124,4.0762,4.0544,3.9748,3.8358,3.8052,3.774,3.7466,3.7634,3.8073,3.8726,3.9074,3.9937,4.1132,4.148,4.2378,4.3515,4.3515,4.3515,4.3515,4.3515,4.3515,4.3515,0.0,0.0,0.0,0.0,0.0,0.0,0.0,4.3107,0.0,4.2168,0.0,4.1004,3.9915,3.9748,3.946,3.8762,0.0,3.9001,3.9698,3.916,3.8794,3.8794,3.8704,3.8308,3.7605,3.8259,0.0,0.0,0.0,0.0,0.0,0.0,0.0,0.0,0.0,0.0,0.0,3.6988,3.633,0.0,3.5522,3.4462,3.2891,3.2891,3.1872,3.0404,3.0404,3.0404,3.0404,3.0404,3.0404,3.0404,3.0404,3.0404,3.0404,3.0404,3.0404,3.0404,3.0404,3.1538,3.2776,3.2872,3.4122,3.5365,3.5462,3.55,3.554,3.5663,3.5034,3.4645,0.0,0.0,0.0,0.0,0.0,0.0,0.0,0.0,0.0,0.0,0.0,0.0,0.0,0.0,3.7089,3.8019,3.7453,3.7078,0.0,0.0,3.9169,3.8404,4.057,4.1432,4.0803,4.1312,4.0677,3.8899,3.8612,3.8276,3.7891,3.7727,3.8043,3.8744,3.9441,4.0267,4.115,4.1864,4.2671,4.3515,4.3515,4.3515,4.3497,4.3608,4.3644,4.3644,0.0,0.0,0.0,0.0,0.0,4.3993,4.4359,4.3168,4.1958,4.1243,4.0777,4.0193,3.9333,3.9032,3.8854,3.8707,3.8707,0.0,0.0,0.0,0.0,3.7154,3.6898,3.651,3.5928,3.7362,3.8579,0.0,3.9843,4.0482,0.0,0.0,0.0,0.0,0.0,0.0,3.8013,3.6494,0.0,3.5528,3.5494,3.4462,3.2891,3.2891,3.1872,3.0404,3.0404,3.0404,3.0404,3.0404,3.0404,3.0404,3.0404,3.0404,3.0404,3.0404,3.0404,3.0404,3.0404,3.1135,3.2064,3.2737,3.366,3.4622,3.5346,3.55,3.554,3.5663,3.5529,3.5369,3.5301,0.0,0.0,0.0,0.0,0.0,0.0,0.0,0.0,0.0,0.0,0.0,0.0,0.0,0.0,3.7954,3.7988,3.767,3.6968,0.0,3.8481,0.0,3.9325,4.0339,0.0,0.0,4.004,3.9358,3.9102,3.8592,3.791,3.832,3.8579,3.8707,3.8854,3.9738,4.1113,4.1242,4.2176,4.3515,4.3515,4.3515,4.3588,4.425,4.4488,4.4488,0.0,0.0,0.0,0.0,0.0,0.0,0.0,4.341,0.0,4.1621,4.0762,3.9914,3.9176,3.8985,3.8909,3.8909,3.8909,3.8795,3.8513,3.813,3.7623,3.6943,3.6785,0.0,3.6347,3.6708,3.7826,3.9664,3.9088,3.9755,0.0,0.0,0.0,0.0,0.0,3.9214,0.0,0.0,0.0,3.55,3.55,3.4462,3.2891,3.2891,3.1872,3.0404,3.0404,3.0404,3.0404,3.0404,3.0404,3.0404,3.0404,3.0404,3.0404,3.0404,3.0404,3.0404,3.0404,3.1038,3.1795,3.2179,3.3256,3.4321,3.4737,3.5173,3.554,3.5663,3.5677,3.5574,3.5348,3.4864,0.0,0.0,0.0,0.0,0.0,0.0,0.0,0.0,0.0,0.0,0.0,0.0,0.0,0.0,0.0,3.7757,3.6936,0.0,3.8593,0.0,0.0,0.0,4.0452,0.0,4.0102,3.9283,3.916,3.8804,3.8334,3.9004,3.9313,3.9368,4.0194,4.102,4.1754,4.2176,4.28,4.3515,4.3515,4.3515,4.3606,4.4415,4.4691,4.4746,0.0,4.4701,0.0,0.0,4.5381,0.0,4.4423,4.3624,4.284,4.2139,4.0914,3.9901,3.9364,3.9238,3.9143,3.8943,3.8925,3.869,3.809,3.8037,3.7698,3.6884,3.6828,3.6764,3.6583,3.5964,3.6818,0.0,3.8127,3.8833,0.0,0.0,0.0,0.0,0.0,0.0,0.0,0.0,3.6241,3.55,3.55,3.4558,3.3179,3.3179,3.2237,3.0904,3.0731,3.0673,3.0654,3.0462,3.0404,3.0404,3.0404,3.0404,3.0404,3.0404,3.0404,3.0404,3.0404,3.0904,3.1468,3.166,3.2699,3.3763,3.4129,3.4737,3.5315,3.5624,3.5727,3.5675,3.5434,3.5117,0.0,0.0,0.0,0.0,0.0,0.0,0.0,0.0,0.0,0.0,0.0,0.0,0.0,0.0,0.0,3.7633,3.7218,3.8112,3.8486,0.0,0.0,3.9957,4.0283,0.0,4.0446,3.9774,3.9607,3.9412,3.9239,3.9863,4.0157,4.023,4.1497,4.2139,4.2359,4.3167,4.3515,4.3515,4.3515,4.3515,4.3608,4.4599,4.4966,4.5094,0.0,0.0,0.0,0.0,0.0,0.0,4.4378,4.3624,4.278,4.1942,4.0815,4.0081,4.0012,3.9742,3.9251,3.8437,3.8368,3.8041,3.725,3.72,3.6845,3.605,3.6015,3.5667,3.4929,3.4845,3.5308,0.0,3.7167,3.8163,3.9284,0.0,0.0,0.0,0.0,0.0,0.0,3.6129,3.5637,3.55,3.55,3.493,3.409,3.409,3.3487,3.2564,3.1833,3.1583,3.1468,3.0673,3.0404,3.0404,3.0404,3.0404,3.0404,3.0404,3.0404,3.0404,3.0404,3.0462,3.0712,3.1506,3.1814,3.2333,3.3859,3.4263,3.4588,3.5512,3.5791,3.5843,3.5697,3.54,3.5048,0.0,0.0,0.0,0.0,0.0,0.0,0.0,0.0,0.0,0.0,3.498,0.0,0.0,3.6362,3.7478,3.814,3.6921,3.7175,3.9263,3.8776,3.977,4.247,4.1069,4.0915,4.1987,4.1252,4.0905,4.0875,4.0948,4.0985,4.1003,4.115,4.1627,4.2359,4.3167,4.3515,4.3515,4.3515,4.3515,4.3698,4.5223,4.5792,4.6012,0.0,0.0,0.0,0.0,0.0,0.0,0.0,4.3316,4.2604,4.12,4.0628,4.0286,4.012,3.9507,3.9188,3.9378,3.8893,3.8546,3.8439,3.7922,3.7254,3.6424,3.5916,3.5515,3.5182,3.5182,3.5564,0.0,0.0,3.8327,3.9245,3.9825,0.0,0.0,0.0,3.7395,3.6884,3.5984,3.5562,3.55,3.55,3.4988,3.4205,3.4205,3.366,3.2852,3.2545,3.2429,3.2295,3.1462,3.0827,3.0404,3.0404,3.0404,3.0404,3.0404,3.0404,3.0404,3.0404,3.0404,3.0481,3.0827,3.1308,3.1872,3.2545,3.3093,3.3775,3.4768,3.5492,3.5919,3.5729,3.5466,3.5188,3.4959,0.0,0.0,0.0,0.0,0.0,0.0,0.0,0.0,0.0,0.0,0.0,0.0,0.0,3.7747,3.7581,3.7434,3.7927,3.9225,0.0,3.9742,4.176,4.1114,4.1054,4.1572,4.1242,4.1095,4.1113,4.159,4.2084,4.2543,4.2543,4.2708,4.3039,4.3369,4.3515,4.3515,4.3515,4.3791,4.436,4.548,4.6214,4.6764,4.5222,0.0,4.5648,0.0,4.5648,4.5167,4.3721,4.328,4.2566,4.1085,4.0669,4.0441,4.0232,3.9669,3.9466,3.987,3.9333,3.8861,3.8605,3.8253,3.7551,3.6411,3.6038,0.0,3.5541,3.5508,3.5804,3.6406,3.7263,3.8052,3.8756,3.9087,0.0,0.0,3.7393,3.6883,3.6473,3.5839,3.554,3.55,3.55,3.5135,3.4584,3.4584,3.4199,3.3622,3.3372,3.3276,3.316,3.2333,3.1487,3.0731,3.0481,3.0577,3.0731,3.0481,3.0404,3.0404,3.0404,3.0404,3.0404,3.0404,3.0865,3.1383,3.168,3.2405,3.3386,3.4655,3.5476,3.5923,3.5732,3.5525,3.5324,3.5133,0.0,0.0,0.0,0.0,0.0,0.0,3.3807,3.3935,3.427,0.0,0.0,0.0,0.0,3.8278,3.7935,3.8016,3.8568,0.0,0.0,0.0,4.1791,4.1572,4.1572,4.1809,4.1809,4.1809,4.1827,4.2396,4.2947,4.3515,4.3515,4.3515,4.3515,4.3515,4.3626,4.3846,4.3846,4.4342,4.5149,4.5957,4.6599,4.7223,4.5522,4.5708,4.5796,4.5796,4.5796,4.5506,4.4621,4.3709,4.2777,4.1904,4.1027,4.0496,4.0489,4.0489,4.0186,3.9478,3.9392,3.8701,3.704,3.7737,3.7394,0.0,0.0,3.6331,3.5605,3.5534,3.5568,3.5703,0.0,0.0,3.7232,0.0,3.7995,3.7207,3.7,3.642,3.562,3.5522,3.55,3.55,3.55,3.5481,3.5481,3.5481,3.5481,3.5365,3.4487,3.4186,3.4052,3.3179,3.2352,3.1525,3.0673,3.0981,3.1525,3.0654,3.0404,3.0404,3.0404,3.0404,3.0404,3.0404,3.0404,3.0656,3.1589,3.2463,3.3623,3.5492,3.5898,3.5869,3.572,3.5638,3.5492,3.5152,0.0,0.0,0.0,0.0,0.0,0.0,3.3807,3.3495,3.2711,3.4087,0.0,0.0,0.0,0.0,0.0,0.0,0.0,4.1001,4.0286,0.0,4.346,4.2671,4.2671,4.3478,4.3478,4.3478,4.3478,4.3478,4.3496,4.3515,4.3515,4.3515,4.3515,4.3515,4.3975,4.469,4.469,4.5186,4.5975,4.6782,4.7094,4.7223,4.5577,4.5635,4.5657,4.5657,4.5657,4.5175,4.3767,4.3288,4.2566,4.1104,4.0669,4.0496,4.0496,4.0015,3.9807,0.0,3.9648,3.9108,0.0,3.8837,3.8252,3.6526,3.6745,3.6796,3.6561,3.6524,3.6837,3.7468,0.0,0.0,0.0,3.7411,3.7055,3.6114,3.6043,3.5828,3.5522,3.5508,3.55,3.55,3.55,3.55,3.55,3.55,3.55,3.5462,3.5192,3.5084,3.4949,3.4083,3.4007,3.4019,3.2564,3.15,3.075,3.0481,3.0404,3.0404,3.0404,3.0404,3.0408,3.0452,3.0477,3.0568,3.0889,3.2155,3.3423,3.4054,3.5092,3.5867,3.572,3.5657,3.5546,3.5393,3.5369,0.0,0.0,0.0,0.0,0.0,3.3915,3.3697,3.344,3.4908,0.0,0.0,0.0,0.0,0.0,0.0,0.0,0.0,4.1387,0.0,4.3496,4.324,4.324,4.3515,4.3515,4.3515,4.3515,4.3515,4.3515,4.3515,4.3515,4.3515,4.3515,4.3515,4.3975,4.4691,4.4691,4.5517,4.6746,4.7003,4.7443,4.7957,4.5594,4.5643,4.568,4.568,4.568,4.5314,4.4272,4.3797,4.3047,4.167,4.1231,4.0947,4.06,4.014,0.0,4.0565,4.02,3.9807,3.9458,3.9189,3.8395,3.7007,3.6981,3.7014,3.7061,3.7349,0.0,3.7919,3.7564,3.712,3.6598,3.6603,3.6242,3.5605,3.5571,3.5547,3.55,3.55,3.55,3.55,3.55,3.55,3.55,3.55,3.55,3.55,3.55,3.55,3.5423,3.4872,3.4834,3.4814,3.3737,3.2449,3.1269,3.0981,3.0654,3.0404,3.0404,3.0425,3.0456,3.0481,3.0513,3.0726,3.1454,3.2506,3.3548,3.4238,3.5157,3.5802,3.5717,3.5621,3.5552,3.552,3.55,3.5417,3.513,0.0,0.0,0.0,0.0,0.0,0.0,3.5495,3.6615,0.0,0.0,0.0,0.0,0.0,4.1242,4.1535,4.2047,4.269,4.3496,4.3515,4.3515,4.3515,4.3515,4.3515,4.3515,4.3515,4.3644,4.3956,4.3956,4.4121,4.4397,4.4397,4.4874,4.559,4.559,4.6397,4.7553,4.7553,4.7865,4.8361,4.5594,4.57,4.5783,0.0,4.5783,0.0,4.5719,4.4913,4.4003,4.3145,4.2433,4.1683,4.0792,4.0761,4.0809,4.0809,0.0,0.0,0.0,3.8988,3.8148,3.7147,3.7151,3.7264,3.7372,3.8068,3.8077,3.7383,3.6448,3.5956,3.589,3.5698,3.5605,3.559,3.5534,3.55,3.55,3.55,3.55,3.55,3.55,3.55,3.55,3.55,3.55,3.55,3.55,3.55,3.55,3.55,3.4968,3.4302,3.4302,3.368,3.2833,3.2025,3.1173,3.0481,3.0493,3.0505,3.0503,3.0501,3.0581,3.1089,3.2822,3.3315,3.3887,3.5566,3.5798,3.5703,3.5696,3.5579,3.55,3.55,3.55,3.5398,3.5155,0.0,0.0,0.0,0.0,0.0,3.5096,3.5881,3.6721,0.0,0.0,0.0,0.0,0.0,4.1572,4.2286,4.2359,4.2745,4.3496,4.3515,4.3515,4.3515,4.3515,4.3533,4.3588,4.3588,4.4011,4.4764,4.4764,4.5223,4.5902,4.5902,4.6379,4.7094,4.7094,4.759,4.8306,4.8306,4.8343,4.8508,0.0,0.0,4.5651,4.5651,4.5651,4.5457,4.4892,4.4608,4.3944,4.2514,4.2184,4.1736,4.0876,4.087,4.0955,4.0955,4.088,4.0507,3.9672,4.0096,3.9685,3.8133,3.879,3.9233,3.9256,3.9429,3.9062,3.8145,3.7295,3.6462,3.5676,3.5621,3.5571,3.5522,3.552,3.55,3.55,3.55,3.55,3.55,3.55,3.55,3.55,3.55,3.55,3.55,3.55,3.55,3.55,3.55,3.5365,3.5192,3.5192,3.4584,3.3725,3.2872,3.2025,3.1395,3.1453,3.0999,3.0521,3.0638,3.0735,3.1127,3.2205,3.2949,3.3691,3.471,3.5339,3.5682,3.5635,3.557,3.55,3.55,3.55,3.5486,3.5405,3.5698,0.0,0.0,3.598,3.6216,3.6019,3.6725,3.7547,0.0,0.0,0.0,4.1699,4.2488,4.2745,4.2304,4.2892,4.3296,4.3515,4.3515,4.3515,4.3515,4.3515,4.3809,4.4415,4.4415,4.4856,4.5626,4.5626,4.5718,4.5902,4.5902,4.6379,4.7094,4.7094,4.759,4.8306,4.8306,4.8728,4.9335,4.5594,4.5594,4.5594,4.5594,4.5594,4.5497,4.5157,4.5086,4.4657,4.3458,4.2987,4.2445,4.1587,4.1254,4.1082,4.1082,4.1025,4.0795,4.0368,4.0448,4.0066,3.9131,3.9608,3.9902,3.9902,4.0231,3.9723,3.8344,3.7082,3.6169,3.5605,3.5579,3.5534,3.55,3.55,3.55,3.55,3.55,3.55,3.55,3.55,3.55,3.55,3.55,3.55,3.55,3.55,3.55,3.55,3.55,3.55,3.55,3.55,3.5173,3.4712,3.4254,3.2998,3.1741,3.1797,3.1212,3.0625,3.0764,3.0857,3.1211,3.2461,3.3064,3.3699,3.4949,3.5437,3.5633,3.5601,3.554,3.55,3.55,3.5808,3.5923,3.5558,3.6296,3.6644,3.5979,3.6705,3.7291,3.7393,3.8135,3.8927,3.9738,4.0948,0.0,4.2286,4.3057,4.3313,4.2855,4.3276,4.3515,4.3515,4.3515,4.3515,4.3515,4.3864,4.4287,4.4727,4.5094,4.57,4.6452,4.6452,4.6673,4.7003,4.7003,4.726,4.7645,4.7645,4.7921,4.8306,4.8306,4.8838,4.9647,4.5594,4.5594,4.5594,4.5594,4.562,4.568,4.579,4.582,4.5578,4.483,4.4197,4.3425,4.2414,4.1754,4.1328,4.1211,4.1191,4.1191,4.1191,4.0508,4.0098,4.0098,4.0098,4.0097,4.0077,4.054,3.9978,3.8272,3.6619,3.5711,3.5574,3.5534,3.55,3.55,3.55,3.55,3.55,3.55,3.55,3.55,3.55,3.55,3.55,3.55,3.55,3.55,3.55,3.55,3.55,3.55,3.55,3.5507,3.5515,3.5425,3.5342,3.5402,3.3712,3.1863,3.198,3.1387,3.0767,3.0878,3.0996,3.1504,3.3046,3.3443,3.3942,3.5529,3.571,3.56,3.5579,3.5502,3.5516,3.5758,3.6265,3.6495,3.6046,0.0,3.7509,3.6564,3.7565,3.8534,3.9029,3.968,4.0414,4.1224,4.1919,4.2359,4.247,4.313,4.3515,4.3515,4.3515,4.3515,4.3515,4.3515,4.3552,4.3681,4.4378,4.4819,4.5076,4.5773,4.6526,4.7278,4.7278,4.7663,4.8306,4.8306,4.8306,4.8306,4.8306,4.8379,4.8508,4.8508,4.9114,5.0069,4.5594,4.5594,4.5594,4.5594,4.5685,4.5796,4.5872,4.5971,4.5789,4.5052,4.4841,4.4179,4.2558,4.2285,4.1933,4.1269,4.1191,4.1191,4.1191,4.1074,4.0996,4.0996,4.0996,4.0954,4.0831,4.0162,3.9295,3.8214,3.719,3.63,3.5521,3.5494,3.55,3.55,3.55,3.55,3.55,3.55,3.55,3.55,3.55,3.55,3.55,3.55,3.55,3.55,3.55,3.55,3.55,3.55,3.55,3.5508,3.5574,3.5085,3.4501,3.4629,3.3387,3.2125,3.2868,3.1992,3.0878,3.0898,3.1445,3.2226,3.3105,3.3874,3.4645,3.5476,3.5616,3.5574,3.5534,3.5315,3.5615,3.6982,3.6722,3.6788,3.8022,0.0,3.9016,3.8943,3.9762,4.0454,4.0698,4.0838,4.1242,4.2047,4.2231,4.2598,4.3277,4.3441,4.3515,4.3515,4.3515,4.3515,4.3515,4.3515,4.3828,4.4525,4.4636,4.5406,4.6727,4.6856,4.7351,4.8122,4.8122,4.8196,4.8306,4.8306,4.8306,4.8306,4.8306,4.8746,4.9408,4.9408,5.0345,5.1646,4.5594,4.5648,4.5708,4.5708,4.5783,4.5896,4.5988,4.605,4.5991,4.5742,4.5293,4.4687,4.3887,4.2969,4.2246,4.1875,4.1445,4.1191,4.1191,4.1191,4.1191,4.1191,4.1128,4.1014,4.0848,3.9956,3.9265,3.8782,3.7919,3.7276,3.6853,3.6853,3.6596,3.6154,3.6154,3.5904,3.55,3.55,3.55,3.55,3.55,3.55,3.55,3.55,3.55,3.55,3.55,3.55,3.5514,3.5534,3.5249,3.4861,3.4966,3.4415,3.3732,3.3827,3.2968,3.1998,3.2018,3.1463,3.1016,3.1484,3.1852,3.2426,3.3718,3.4227,3.4665,3.5437,3.5566,3.5675,3.6072,3.5932,3.6127,3.7318,3.7584,0.0,3.8023,3.9393,4.0148,3.9561,4.0522,4.1371,4.1711,4.1754,4.2084,4.2892,4.2947,4.3112,4.3478,4.3515,4.3515,4.3515,4.3515,4.3515,4.3515,4.392,4.4342,4.4727,4.5572,4.6379,4.7113,4.7553,4.7957,4.8306,4.8306,4.8306,4.8306,4.8306,4.8306,4.8361,4.882,4.9262,4.9647,5.0106,5.0986,5.1995,4.5643,4.5725,4.5796,4.5814,4.5881,4.5985,4.6082,4.614,4.6177,4.6289,4.5723,4.5234,4.5019,4.3613,4.2617,4.2422,4.166,4.1191,4.1191,4.1191,4.1191,4.115,4.1014,4.0867,4.0703,4.0016,3.9548,3.9304,3.8623,3.82,3.8007,3.7796,3.7334,3.6692,3.65,3.6077,3.55,3.55,3.55,3.55,3.55,3.55,3.55,3.55,3.5508,3.5522,3.5522,3.5528,3.5544,3.5601,3.5185,3.4656,3.4786,3.4224,3.3496,3.3363,3.2712,3.2014,3.1835,3.1504,3.1406,3.2244,3.2524,3.2943,3.4245,3.4564,3.4791,3.5447,3.5669,3.5962,3.6596,3.6572,3.6806,3.7794,0.0,3.8559,3.8472,4.0034,4.0964,4.0334,4.1217,4.2069,4.2522,4.258,4.2837,4.346,4.3515,4.3515,4.3515,4.3515,4.3515,4.3515,4.3515,4.3589,4.3773,4.4397,4.4874,4.526,4.6507,4.7204,4.7388,4.8012,4.8306,4.8306,4.8306,4.8306,4.8306,4.8306,4.8306,4.8398,4.9242,4.9721,4.9978,5.0784,5.1591,5.227,4.5768,4.579,4.5808,4.5886,4.5995,4.6084,4.6108,4.6201,4.6289,4.6308,4.623,4.5898,4.5098,4.416,4.3281,4.2461,4.166,4.1191,4.1191,4.1191,4.1149,4.1023,4.0831,4.0721,4.0697,4.053,4.005,3.9304,3.9246,3.8796,3.7988,3.718,3.675,3.6673,3.5923,3.5558,3.55,3.55,3.55,3.55,3.55,3.55,3.55,3.55,3.5547,3.5595,3.5595,3.5635,3.5686,3.5693,3.5654,3.5613,3.5743,3.5192,3.4342,3.361,3.2812,3.2519,3.4004,3.3281,3.2284,3.3024,3.3812,3.4389,3.4335,3.4933,3.5491,3.5515,3.611,3.6635,3.6692,3.6889,3.7546,3.9097,0.0,0.0,4.098,4.1022,4.1255,4.2425,4.2649,4.2906,4.3365,4.3423,4.3441,4.3515,4.3515,4.3515,4.3515,4.3515,4.3515,4.3515,4.3515,4.3864,4.4617,4.4654,4.5443,4.6911,4.7039,4.748,4.8214,4.8269,4.8306,4.8306,4.8306,4.8306,4.8306,4.8306,4.8306,4.8398,4.9242,5.005,5.082,5.161,5.2417,5.3115,4.579,4.5896,4.599,4.6024,4.6122,4.6224,4.6224,4.6268,4.6308,4.6308,4.6308,4.6172,4.584,4.5039,4.4375,4.4043,4.3242,4.2733,4.2699,4.2172,4.1589,4.0916,4.0767,4.0655,4.0588,4.0534,4.0342,4.0035,4.0035,3.9881,3.9534,3.87,3.8315,3.8277,3.743,3.675,3.6231,3.6231,3.5962,3.55,3.55,3.55,3.5494,3.5546,3.5582,3.5601,3.5642,3.5675,3.5713,3.5799,3.5461,3.5022,3.5125,3.4565,3.3902,3.414,3.3571,3.3267,3.4986,3.4184,3.3063,3.3851,3.4221,3.4544,3.5001,3.5322,3.5676,3.6149,3.6481,3.7019,3.8104,3.8218,3.8624,4.0078,0.0,4.0126,4.1423,4.1852,4.2235,4.2742,4.3066,4.3299,4.3478,4.3515,4.3515,4.3515,4.3515,4.3515,4.3515,4.3975,4.447,4.4966,4.4984,4.4892,4.4691,4.5682,4.6489,4.7113,4.7608,4.8012,4.8306,4.8306,4.8306,4.8306,4.8306,4.8618,4.9095,4.9095,4.9389,4.9939,5.0747,5.1279,5.1646,5.2454,5.2949,5.3185,4.5826,4.5975,4.6115,4.6168,4.6246,4.6308,4.6308,4.6308,4.6308,4.6308,4.6308,4.6308,4.6308,4.5527,4.5,4.5,4.4199,4.3551,4.3203,4.2326,4.1489,4.0809,4.067,4.0589,4.0496,4.0496,4.0496,4.0496,4.0496,4.0496,4.0477,3.9688,3.9304,3.9246,3.8104,3.7257,3.6673,3.6423,3.6015,3.5528,3.5528,3.554,3.5579,3.5616,3.5657,3.5694,3.5743,3.5777,3.5802,3.5893,3.553,3.5045,3.5097,3.4512,3.3984,3.4822,3.4438,3.4018,3.5427,3.4926,3.4149,3.4715,3.4772,3.4869,3.543,3.5721,3.6038,3.6596,3.7142,3.7873,3.9092,3.9244,3.9554,4.063,4.082,4.1067,4.1724,4.2385,4.2861,4.3002,4.3299,4.3515,4.3515,4.3515,4.3515,4.3515,4.3718,4.3975,4.4232,4.4782,4.5333,4.5883,4.6159,4.6012,4.5461,4.6544,4.7223,4.748,4.8049,4.8306,4.8324,4.8581,4.871,4.8728,4.8985,4.9426,4.9996,4.9996,5.0288,5.0857,5.1408,5.1775,5.2068,5.2619,5.2986,5.3185,4.5896,4.6001,4.6145,4.6288,4.6308,4.6308,4.6308,4.6308,4.6308,4.6308,4.6308,4.6308,4.6308,4.5527,4.5019,4.5019,4.4219,4.3317,4.2368,4.1304,4.0717,4.0697,4.0581,4.0496,4.0496,4.0496,4.0496,4.0496,4.0496,4.0496,4.0477,3.9688,3.9304,3.9227,3.7507,3.6719,3.668,3.5853,3.5566,3.5611,3.5591,3.5648,3.5707,3.5707,3.5775,3.5901,3.5901,3.5946,3.5996,3.5996,3.5996,3.5996,3.5996,3.541,3.4862,3.566,3.5295,3.4742,3.5421,3.5605,3.5605,3.5605,3.5605,3.5588,3.5521,3.6135,3.6712,3.6712,3.8104,3.9315,3.9315,3.9769,4.0267,4.0743,4.0875,4.1254,4.2179,4.26,4.2968,4.3437,4.3515,4.3515,4.3515,4.3515,4.3515,4.3515,4.425,4.5057,4.5865,4.5902,4.5902,4.592,4.6691,4.7113,4.7113,4.7113,4.7498,4.8306,4.8306,4.8306,4.8343,4.9225,4.961,4.9647,5.0453,5.0802,5.082,5.082,5.082,5.082,5.082,5.1316,5.1995,5.1995,5.2509,5.3185,4.5894,4.6082,4.6248,4.6289,4.6308,4.6308,4.6308,4.6308,4.6308,4.6308,4.6308,4.6308,4.6308,4.6074,4.5918,4.5918,4.5664,4.4861,4.3306,4.2817,4.2034,4.0761,4.0581,4.0496,4.0496,4.0496,4.0496,4.0496,4.0496,4.0496,4.0477,3.9688,3.9611,4.01,3.9058,3.8593,3.8541,3.7793,3.7115,3.6526,3.5916,3.5678,3.5713,3.5805,3.5869,3.5907,3.5949,3.5975,3.5996,3.5996,3.5996,3.5996,3.5946,3.5744,3.5561,3.5724,3.5541,3.5351,3.5553,3.5973,3.6235,3.5676,3.5946,3.6376,3.6341,3.7007,3.7713,3.8108,3.9039,3.9976,4.0596,4.1294,4.2023,4.2775,4.2916,4.3068,4.3438,4.3587,4.3602,4.3511,4.3515,4.3515,4.3515,4.3515,4.3718,4.4305,4.5094,4.5645,4.5883,4.6452,4.6984,4.7572,4.7829,4.7938,4.7938,4.7938,4.8067,4.8306,4.8306,4.8618,4.9225,4.9482,4.9922,5.0453,5.071,5.1114,5.1628,5.1628,5.1977,5.2491,5.2491,5.2637,5.2839,5.2839,5.3004,5.3185,4.5974,4.6149,4.6308,4.6308,4.6308,4.6308,4.6308,4.6308,4.6308,4.6308,4.6308,4.6308,4.6308,4.6308,4.6308,4.6308,4.5955,4.5281,4.4185,4.3666,4.276,4.132,4.1158,4.0914,4.0516,4.0496,4.0496,4.0496,4.0552,4.0588,4.0568,4.0101,4.0152,4.0565,3.9455,3.8967,3.8894,3.7743,3.6992,3.6515,3.5986,3.5788,3.5834,3.5917,3.5944,3.5948,3.5956,3.5951,3.595,3.5901,3.5878,3.5874,3.5823,3.6063,3.6242,3.5791,3.6096,3.6505,3.6134,3.6601,3.7062,3.6454,3.6768,3.7178,3.7049,3.7685,3.8461,3.8972,3.9745,4.0623,4.1587,4.2169,4.2787,4.3664,4.3798,4.385,4.399,4.4001,4.3881,4.3548,4.3515,4.3515,4.3515,4.3515,4.3956,4.5094,4.592,4.6507,4.6838,4.7296,4.7791,4.8288,4.8306,4.8306,4.8306,4.8306,4.8306,4.8306,4.8306,4.8765,4.961,4.9941,5.0508,5.1298,5.161,5.2032,5.2472,5.2472,5.2766,5.3167,5.2858,5.2931,5.317,5.2839,5.2931,5.3185,4.6077,4.6202,4.6308,4.6308,4.6308,4.6308,4.6308,4.6308,4.6308,4.6308,4.6308,4.6308,4.6308,4.6308,4.6308,4.6308,4.5516,4.499,4.4912,4.4042,4.3151,4.2264,4.2107,4.1589,4.0642,4.0543,4.0504,4.0519,4.0649,4.0703,4.0701,4.077,4.0797,4.0719,3.9132,3.8435,3.8302,3.658,3.5904,3.6025,3.5947,3.5947,3.5996,3.5996,3.5996,3.5975,3.5913,3.5877,3.5869,3.5732,3.5707,3.5703,3.5774,3.6308,3.6728,3.5936,3.6784,3.78,3.6934,3.7392,3.8032,3.7705,3.7904,3.8078,3.7669,3.8309,3.9086,3.95,4.0314,4.1309,4.2346,4.258,4.2914,4.3735,4.3879,4.3903,4.3975,4.4001,4.3881,4.3548,4.3515,4.3533,4.3606,4.3753,4.4397,4.5792,4.6709,4.7498,4.8159,4.8269,4.8306,4.8306,4.8306,4.8306,4.8306,4.8306,4.8306,4.8306,4.8379,4.8875,4.9739,5.0545,5.1353,5.2142,5.2894,5.3185,5.3185,5.3185,5.3185,5.3133,5.238,5.2546,5.3115,5.238,5.2564,5.3185,4.6087,4.6202,4.6308,4.6308,4.6308,4.6308,4.6308,4.6308,4.6308,4.6308,4.6308,4.6308,4.6308,4.6308,4.6308,4.6308,4.6112,4.5701,4.5018,4.4761,4.4241,4.3327,4.2607,4.2054,4.168,4.0906,4.0552,4.0668,4.068,4.074,4.0784,4.0789,4.0797,4.0762,3.982,3.9394,3.928,3.764,3.6968,3.6932,3.6248,3.5995,3.5996,3.5945,3.5916,3.5911,3.5797,3.5732,3.5749,3.571,3.5707,3.581,3.6439,3.6309,3.5969,3.6344,3.6716,3.696,3.6764,3.7834,3.8942,3.8602,3.908,3.9385,3.8353,3.9279,4.033,4.016,4.1311,4.244,4.2679,4.3254,4.3844,4.4342,4.443,4.4333,4.4039,4.4001,4.3881,4.3548,4.3515,4.3736,4.4378,4.5572,4.6214,4.592,4.7241,4.7828,4.7369,4.7957,4.8306,4.8306,4.8306,4.8306,4.8306,4.8306,4.8306,4.8324,4.8985,4.9738,5.0563,5.1371,5.2179,5.2968,5.3112,5.3185,5.3185,5.3185,5.3185,5.3167,5.3023,5.3059,5.3167,5.3004,5.3059,5.3185,4.6177,4.6247,4.6308,4.6308,4.6308,4.6308,4.6308,4.6308,4.6308,4.6308,4.6308,4.6308,4.6308,4.6308,4.6308,4.6308,4.6308,4.6113,4.5644,4.5625,4.5038,4.3701,4.3177,4.2471,4.154,4.0945,4.0659,4.0697,4.0795,4.0641,4.0279,4.0333,4.0104,3.9614,3.8845,3.8476,3.8335,3.707,3.6533,3.6494,3.6043,3.5868,3.5846,3.5817,3.5805,3.5794,3.569,3.5635,3.5654,3.6042,3.5926,3.5741,3.6547,3.6774,3.6736,3.6701,3.7565,3.843,3.8046,3.8892,3.9852,3.9772,4.0103,4.0227,3.9427,3.9933,4.0689,4.1156,4.1949,4.2733,4.3278,4.3718,4.4132,4.4527,4.4447,4.4233,4.4028,4.3865,4.3841,4.4046,4.4066,4.4397,4.5186,4.6379,4.6929,4.6507,4.7609,4.8122,4.7681,4.8086,4.8306,4.8306,4.8306,4.8306,4.8306,4.8306,4.8508,4.893,4.939,5.0013,5.0839,5.1628,5.2435,5.3185,5.3185,5.3185,5.3185,5.3185,5.3185,5.3185,5.3185,5.3185,5.3185,5.3185,5.3185,5.3185,4.6289,4.6308,4.6308,4.6308,4.6308,4.6308,4.6308,4.6308,4.6308,4.6308,4.6308,4.6308,4.6308,4.6308,4.6308,4.6308,4.6308,4.6308,4.6308,4.6308,4.5586,4.3984,4.3739,4.2861,4.1269,4.0992,4.0821,4.0756,4.0922,4.057,3.9738,3.9823,3.9349,3.8365,3.7537,3.7096,3.694,3.6076,3.5707,3.5707,3.5707,3.5707,3.5703,3.5686,3.5682,3.5667,3.5606,3.5546,3.5596,3.6269,3.6135,3.5846,3.6654,3.743,3.7892,3.7315,3.86,4.0057,3.9396,3.9775,4.0404,4.0653,4.0704,4.0709,4.064,4.0628,4.0967,4.2077,4.2415,4.2789,4.3735,4.3909,4.4016,4.435,4.4136,4.3909,4.3909,4.3789,4.3956,4.4618,4.4929,4.5369,4.6049,4.6819,4.7314,4.7314,4.7921,4.8306,4.8306,4.8306,4.8306,4.8306,4.8306,4.8379,4.8526,4.8526,4.8948,4.9812,4.9941,5.0343,5.1041,5.183,5.2564,5.3185,5.3185,5.3185,5.3185,5.3185,5.3185,5.3185,5.3185,5.3185,5.3185,5.3185,5.3185,5.3185,4.6308,4.6308,4.6308,4.6308,4.6308,4.6308,4.6308,4.6308,4.6308,4.6308,4.6308,4.6308,4.6308,4.6308,4.6308,4.6308,4.6308,4.6308,4.6308,4.6308,4.5859,4.4863,4.4082,4.3196,4.2149,4.1473,4.108,4.0952,4.0988,4.0605,3.9863,3.9776,3.925,3.8364,3.7436,3.7031,3.694,3.6076,3.5707,3.5707,3.5707,3.5707,3.5696,3.5639,3.5616,3.5601,3.554,3.5501,3.5519,3.5635,3.6058,3.6692,3.7546,3.7911,3.8123,3.8757,3.8988,3.9013,3.8898,3.9296,3.9822,4.0253,4.0369,4.0663,4.177,4.2038,4.2077,4.2266,4.2837,4.3385,4.3528,4.3563,4.358,4.3647,4.3597,4.3563,4.3563,4.412,4.458,4.469,4.592,4.6819,4.6929,4.7663,4.8141,4.8141,4.8251,4.8306,4.8306,4.8306,4.8306,4.8306,4.8306,4.8655,4.9427,4.9427,4.9829,5.0655,5.1334,5.172,5.1848,5.2674,5.3093,5.3185,5.3185,5.3185,5.3185,5.3185,5.3185,5.3185,5.3185,5.3185,5.3185,5.3185,5.3185,5.3185,4.6308,4.6308,4.6308,4.6308,4.6308,4.6308,4.6308,4.6308,4.6308,4.6308,4.6308,4.6308,4.6308,4.6308,4.6308,4.6308,4.6308,4.6094,4.5605,4.5566,4.4961,4.3613,4.3183,4.2577,4.1692,4.1366,4.0937,4.0383,4.0871,4.0409,3.9052,3.9,3.8217,3.6821,3.6405,3.6207,3.6137,3.5739,3.5585,3.5585,3.5585,3.5585,3.5568,3.5386,3.5318,3.5324,3.5293,3.5369,3.5635,3.6577,3.6808,3.6942,3.8296,3.8719,3.8796,3.9188,3.9412,3.9614,4.0081,4.0236,4.049,4.1451,4.17,4.1913,4.2791,4.2965,4.2965,4.2965,4.324,4.3515,4.3515,4.3515,4.3515,4.3515,4.3515,4.3644,4.4103,4.4488,4.5021,4.592,4.7058,4.7755,4.7755,4.8104,4.8306,4.8306,4.8746,4.8802,4.8343,4.8765,4.8802,4.8324,4.8306,4.8728,4.9592,4.961,5.0235,5.1463,5.183,5.1995,5.2013,5.2839,5.3185,5.3185,5.3185,5.3185,5.3185,5.3185,5.3185,5.3185,5.3185,5.3185,5.3185,5.3185,5.3185,5.3185]}]]